<?xml version='1.0' encoding='UTF-8'?><gpx version="1.1" creator="JPX - https://github.com/jenetics/jpx" xmlns="http://www.topografix.com/GPX/1/1"><trk><trkseg><trkpt lat="43.478492344982286" lon="6.7183759988092815"><ele>63.0</ele><time>2026-04-03T14:45:17.991Z</time></trkpt><trkpt lat="43.47845614999569" lon="6.718447369921612"><ele>63.0</ele><time>2026-04-03T14:45:18.992Z</time></trkpt><trkpt lat="43.47840839264841" lon="6.718641687852373"><ele>63.0</ele><time>2026-04-03T14:45:21.993Z</time></trkpt><trkpt lat="43.47833721655848" lon="6.7186765441672796"><ele>63.0</ele><time>2026-04-03T14:45:23.994Z</time></trkpt><trkpt lat="43.478261629873664" lon="6.718691688039357"><ele>63.0</ele><time>2026-04-03T14:45:24.995Z</time></trkpt><trkpt lat="43.47811526016011" lon="6.718691814832676"><ele>63.0</ele><time>2026-04-03T14:45:26.995Z</time></trkpt><trkpt lat="43.4779877910097" lon="6.718697893209892"><ele>63.0</ele><time>2026-04-03T14:45:28.996Z</time></trkpt><trkpt lat="43.477896805466244" lon="6.71868380921994"><ele>63.0</ele><time>2026-04-03T14:45:30.996Z</time></trkpt><trkpt lat="43.47781206381314" lon="6.718621874681181"><ele>63.0</ele><time>2026-04-03T14:45:32.997Z</time></trkpt><trkpt lat="43.477805791500586" lon="6.718491327979553"><ele>63.0</ele><time>2026-04-03T14:45:34.997Z</time></trkpt><trkpt lat="43.47777976197183" lon="6.718367055228073"><ele>63.0</ele><time>2026-04-03T14:45:36.998Z</time></trkpt><trkpt lat="43.47791970128385" lon="6.718272902842707"><ele>63.0</ele><time>2026-04-03T14:45:38.998Z</time></trkpt><trkpt lat="43.4780010635928" lon="6.7182365475592265"><ele>63.0</ele><time>2026-04-03T14:45:41.999Z</time></trkpt><trkpt lat="43.47807266401319" lon="6.718195719451895"><ele>63.0</ele><time>2026-04-03T14:45:45.999Z</time></trkpt><trkpt lat="43.47814151022136" lon="6.718148915215645"><ele>63.0</ele><time>2026-04-03T14:45:46.999Z</time></trkpt><trkpt lat="43.478232035294745" lon="6.71808710615716"><ele>63.0</ele><time>2026-04-03T14:45:47.999Z</time></trkpt><trkpt lat="43.478362290963716" lon="6.717997044197506"><ele>63.0</ele><time>2026-04-03T14:45:48.999Z</time></trkpt><trkpt lat="43.478514630762064" lon="6.71792645434203"><ele>63.0</ele><time>2026-04-03T14:45:49.999Z</time></trkpt><trkpt lat="43.478635699231624" lon="6.717850303870739"><ele>63.0</ele><time>2026-04-03T14:45:50.999Z</time></trkpt><trkpt lat="43.47874538990806" lon="6.7177801745067836"><ele>62.75</ele><time>2026-04-03T14:45:51.999Z</time></trkpt><trkpt lat="43.47883881510027" lon="6.717708079305723"><ele>62.5</ele><time>2026-04-03T14:45:52.999Z</time></trkpt><trkpt lat="43.47893362513338" lon="6.717641035448718"><ele>62.25</ele><time>2026-04-03T14:45:54Z</time></trkpt><trkpt lat="43.47905696727902" lon="6.717579617903153"><ele>62.0</ele><time>2026-04-03T14:45:55Z</time></trkpt><trkpt lat="43.479179361043435" lon="6.717505476894854"><ele>62.0</ele><time>2026-04-03T14:45:56Z</time></trkpt><trkpt lat="43.479332156545475" lon="6.717414919953494"><ele>62.0</ele><time>2026-04-03T14:45:57Z</time></trkpt><trkpt lat="43.4794720090697" lon="6.717321052865512"><ele>62.0</ele><time>2026-04-03T14:45:58Z</time></trkpt><trkpt lat="43.47961656283512" lon="6.717243191243332"><ele>62.66666666666667</ele><time>2026-04-03T14:45:59Z</time></trkpt><trkpt lat="43.47976682710833" lon="6.717172229017004"><ele>63.33333333333333</ele><time>2026-04-03T14:46:00Z</time></trkpt><trkpt lat="43.479919115920964" lon="6.717136292453529"><ele>64.0</ele><time>2026-04-03T14:46:01Z</time></trkpt><trkpt lat="43.4800739592402" lon="6.717099751028568"><ele>64.0</ele><time>2026-04-03T14:46:02Z</time></trkpt><trkpt lat="43.480229896690794" lon="6.717072948702178"><ele>64.0</ele><time>2026-04-03T14:46:03Z</time></trkpt><trkpt lat="43.48038533683055" lon="6.717052247243692"><ele>64.0</ele><time>2026-04-03T14:46:04Z</time></trkpt><trkpt lat="43.48052787662076" lon="6.717024760601188"><ele>65.33333333333333</ele><time>2026-04-03T14:46:05Z</time></trkpt><trkpt lat="43.480684871388846" lon="6.717025346571293"><ele>66.66666666666667</ele><time>2026-04-03T14:46:06Z</time></trkpt><trkpt lat="43.48084266611758" lon="6.717006685538311"><ele>68.0</ele><time>2026-04-03T14:46:07Z</time></trkpt><trkpt lat="43.48099819200631" lon="6.71698212190514"><ele>68.0</ele><time>2026-04-03T14:46:08Z</time></trkpt><trkpt lat="43.48114624104261" lon="6.7169618961762785"><ele>68.0</ele><time>2026-04-03T14:46:09Z</time></trkpt><trkpt lat="43.4812874278618" lon="6.716942103200884"><ele>68.0</ele><time>2026-04-03T14:46:10Z</time></trkpt><trkpt lat="43.48142922277037" lon="6.716928544091019"><ele>68.0</ele><time>2026-04-03T14:46:11Z</time></trkpt><trkpt lat="43.481570317556255" lon="6.71691792299354"><ele>67.75</ele><time>2026-04-03T14:46:12Z</time></trkpt><trkpt lat="43.4817088390377" lon="6.716903240431692"><ele>67.5</ele><time>2026-04-03T14:46:13Z</time></trkpt><trkpt lat="43.48183977266388" lon="6.716887285768676"><ele>67.25</ele><time>2026-04-03T14:46:14Z</time></trkpt><trkpt lat="43.48197183466589" lon="6.716874969690274"><ele>67.0</ele><time>2026-04-03T14:46:15Z</time></trkpt><trkpt lat="43.48210444682116" lon="6.7168663614639135"><ele>67.5</ele><time>2026-04-03T14:46:16Z</time></trkpt><trkpt lat="43.48224521699499" lon="6.716855974498433"><ele>68.0</ele><time>2026-04-03T14:46:17Z</time></trkpt><trkpt lat="43.48239280331027" lon="6.716854818262474"><ele>68.5</ele><time>2026-04-03T14:46:18Z</time></trkpt><trkpt lat="43.48253429757153" lon="6.716866215638543"><ele>69.0</ele><time>2026-04-03T14:46:19Z</time></trkpt><trkpt lat="43.482672887628716" lon="6.716878067513096"><ele>69.0</ele><time>2026-04-03T14:46:20Z</time></trkpt><trkpt lat="43.48280846877962" lon="6.716885917098786"><ele>69.0</ele><time>2026-04-03T14:46:21Z</time></trkpt><trkpt lat="43.4829402903755" lon="6.7168935527130005"><ele>69.0</ele><time>2026-04-03T14:46:22Z</time></trkpt><trkpt lat="43.48306681800193" lon="6.716889667442488"><ele>69.0</ele><time>2026-04-03T14:46:23Z</time></trkpt><trkpt lat="43.4831717998959" lon="6.716876097297507"><ele>69.33333333333333</ele><time>2026-04-03T14:46:24Z</time></trkpt><trkpt lat="43.48325147557095" lon="6.716855363857006"><ele>69.66666666666667</ele><time>2026-04-03T14:46:25Z</time></trkpt><trkpt lat="43.48332244943748" lon="6.716838210894973"><ele>70.0</ele><time>2026-04-03T14:46:26Z</time></trkpt><trkpt lat="43.483405596437805" lon="6.716839053465402"><ele>70.33333333333334</ele><time>2026-04-03T14:46:27Z</time></trkpt><trkpt lat="43.48349199716567" lon="6.71688627510098"><ele>70.66666666666667</ele><time>2026-04-03T14:46:28Z</time></trkpt><trkpt lat="43.483591868902124" lon="6.716888218843603"><ele>71.0</ele><time>2026-04-03T14:46:29Z</time></trkpt><trkpt lat="43.48369637941762" lon="6.716839521068122"><ele>71.66666666666667</ele><time>2026-04-03T14:46:30Z</time></trkpt><trkpt lat="43.483787309620084" lon="6.716729572837768"><ele>72.33333333333333</ele><time>2026-04-03T14:46:31Z</time></trkpt><trkpt lat="43.48391829134219" lon="6.716435123101774"><ele>73.0</ele><time>2026-04-03T14:46:33Z</time></trkpt><trkpt lat="43.48402983306353" lon="6.716363448709152"><ele>73.0</ele><time>2026-04-03T14:46:34Z</time></trkpt><trkpt lat="43.48417226447731" lon="6.716350951598645"><ele>73.0</ele><time>2026-04-03T14:46:35Z</time></trkpt><trkpt lat="43.48433493461013" lon="6.716359133032492"><ele>73.0</ele><time>2026-04-03T14:46:36Z</time></trkpt><trkpt lat="43.484503800618874" lon="6.71635993661749"><ele>73.33333333333333</ele><time>2026-04-03T14:46:37Z</time></trkpt><trkpt lat="43.48467527343875" lon="6.716359003651984"><ele>73.66666666666667</ele><time>2026-04-03T14:46:38Z</time></trkpt><trkpt lat="43.48485685302946" lon="6.716332350703658"><ele>74.0</ele><time>2026-04-03T14:46:39Z</time></trkpt><trkpt lat="43.4850389781361" lon="6.716264015248362"><ele>74.0</ele><time>2026-04-03T14:46:40Z</time></trkpt><trkpt lat="43.48521328855102" lon="6.716171179935824"><ele>74.0</ele><time>2026-04-03T14:46:41Z</time></trkpt><trkpt lat="43.48537113707637" lon="6.7160546971982775"><ele>74.0</ele><time>2026-04-03T14:46:42Z</time></trkpt><trkpt lat="43.485519204200486" lon="6.7159270099785715"><ele>75.25</ele><time>2026-04-03T14:46:43Z</time></trkpt><trkpt lat="43.485651633207084" lon="6.715807783522413"><ele>76.5</ele><time>2026-04-03T14:46:44Z</time></trkpt><trkpt lat="43.48577335888375" lon="6.715693953649478"><ele>77.75</ele><time>2026-04-03T14:46:45Z</time></trkpt><trkpt lat="43.485896083895376" lon="6.715594602917058"><ele>79.0</ele><time>2026-04-03T14:46:46Z</time></trkpt><trkpt lat="43.4860386449316" lon="6.715498759507577"><ele>79.0</ele><time>2026-04-03T14:46:47Z</time></trkpt><trkpt lat="43.48618892828615" lon="6.715412934517711"><ele>79.0</ele><time>2026-04-03T14:46:48Z</time></trkpt><trkpt lat="43.48634699554753" lon="6.715334615647437"><ele>79.0</ele><time>2026-04-03T14:46:49Z</time></trkpt><trkpt lat="43.48650932095665" lon="6.7152584416534165"><ele>80.66666666666666</ele><time>2026-04-03T14:46:50Z</time></trkpt><trkpt lat="43.486675025166186" lon="6.71518753304466"><ele>82.33333333333333</ele><time>2026-04-03T14:46:51Z</time></trkpt><trkpt lat="43.48683602831338" lon="6.715106327059092"><ele>84.0</ele><time>2026-04-03T14:46:52Z</time></trkpt><trkpt lat="43.48700107844907" lon="6.715014626480552"><ele>83.33333333333333</ele><time>2026-04-03T14:46:53Z</time></trkpt><trkpt lat="43.487172349667425" lon="6.714906095466665"><ele>82.66666666666666</ele><time>2026-04-03T14:46:54Z</time></trkpt><trkpt lat="43.487341042268696" lon="6.714795595130565"><ele>82.0</ele><time>2026-04-03T14:46:55Z</time></trkpt><trkpt lat="43.48750570373391" lon="6.714684552274387"><ele>82.0</ele><time>2026-04-03T14:46:56Z</time></trkpt><trkpt lat="43.48765622469368" lon="6.7145729408620145"><ele>82.0</ele><time>2026-04-03T14:46:57Z</time></trkpt><trkpt lat="43.487794734990935" lon="6.714465161994047"><ele>82.0</ele><time>2026-04-03T14:46:58Z</time></trkpt><trkpt lat="43.487925488146914" lon="6.7143578878832075"><ele>82.33333333333333</ele><time>2026-04-03T14:46:59Z</time></trkpt><trkpt lat="43.4880480815266" lon="6.714254019121428"><ele>82.66666666666667</ele><time>2026-04-03T14:47:00Z</time></trkpt><trkpt lat="43.48817660990706" lon="6.714123574153663"><ele>83.0</ele><time>2026-04-03T14:47:01Z</time></trkpt><trkpt lat="43.48831317469135" lon="6.713985840273325"><ele>83.0</ele><time>2026-04-03T14:47:02Z</time></trkpt><trkpt lat="43.48845936516628" lon="6.713844969087523"><ele>83.0</ele><time>2026-04-03T14:47:03Z</time></trkpt><trkpt lat="43.48861068205765" lon="6.713705339826491"><ele>83.0</ele><time>2026-04-03T14:47:04Z</time></trkpt><trkpt lat="43.48876819704591" lon="6.713556804399776"><ele>82.0</ele><time>2026-04-03T14:47:05Z</time></trkpt><trkpt lat="43.48893506573626" lon="6.713406207268601"><ele>81.0</ele><time>2026-04-03T14:47:06Z</time></trkpt><trkpt lat="43.48909738725445" lon="6.713251694867341"><ele>80.0</ele><time>2026-04-03T14:47:07Z</time></trkpt><trkpt lat="43.48926055531358" lon="6.7130925256290865"><ele>80.0</ele><time>2026-04-03T14:47:08Z</time></trkpt><trkpt lat="43.489418589634305" lon="6.712936469422966"><ele>80.0</ele><time>2026-04-03T14:47:09Z</time></trkpt><trkpt lat="43.48955792062416" lon="6.712781796718794"><ele>80.0</ele><time>2026-04-03T14:47:10Z</time></trkpt><trkpt lat="43.489687330421056" lon="6.712626971141707"><ele>78.33333333333334</ele><time>2026-04-03T14:47:11Z</time></trkpt><trkpt lat="43.48980499680086" lon="6.712480552097567"><ele>76.66666666666667</ele><time>2026-04-03T14:47:12.001Z</time></trkpt><trkpt lat="43.48991543155007" lon="6.712338137130622"><ele>75.0</ele><time>2026-04-03T14:47:13.001Z</time></trkpt><trkpt lat="43.490017062140346" lon="6.7122024703359795"><ele>75.0</ele><time>2026-04-03T14:47:14.001Z</time></trkpt><trkpt lat="43.49011882414338" lon="6.712068681590542"><ele>75.0</ele><time>2026-04-03T14:47:15.001Z</time></trkpt><trkpt lat="43.49021907526114" lon="6.7119330836886135"><ele>75.0</ele><time>2026-04-03T14:47:16.001Z</time></trkpt><trkpt lat="43.4903402253043" lon="6.711782859250313"><ele>75.0</ele><time>2026-04-03T14:47:17.001Z</time></trkpt><trkpt lat="43.49046569625827" lon="6.7116244307321"><ele>73.0</ele><time>2026-04-03T14:47:18.001Z</time></trkpt><trkpt lat="43.49059693777246" lon="6.711454346835609"><ele>71.0</ele><time>2026-04-03T14:47:19.001Z</time></trkpt><trkpt lat="43.49073979834034" lon="6.711279816855877"><ele>69.0</ele><time>2026-04-03T14:47:20.001Z</time></trkpt><trkpt lat="43.49089844170352" lon="6.711095768021404"><ele>68.66666666666667</ele><time>2026-04-03T14:47:21.001Z</time></trkpt><trkpt lat="43.491067147067994" lon="6.710909003339712"><ele>68.33333333333334</ele><time>2026-04-03T14:47:22.001Z</time></trkpt><trkpt lat="43.49122487607253" lon="6.71074674824225"><ele>68.0</ele><time>2026-04-03T14:47:23.001Z</time></trkpt><trkpt lat="43.49137574314535" lon="6.710593803099808"><ele>67.66666666666667</ele><time>2026-04-03T14:47:24.001Z</time></trkpt><trkpt lat="43.49152234487052" lon="6.71045293312555"><ele>67.33333333333333</ele><time>2026-04-03T14:47:25.001Z</time></trkpt><trkpt lat="43.49168654185154" lon="6.710337262916632"><ele>67.0</ele><time>2026-04-03T14:47:26.001Z</time></trkpt><trkpt lat="43.49184527069117" lon="6.710181231155046"><ele>67.0</ele><time>2026-04-03T14:47:27.001Z</time></trkpt><trkpt lat="43.4920235186014" lon="6.710042601367918"><ele>67.0</ele><time>2026-04-03T14:47:28.001Z</time></trkpt><trkpt lat="43.49220190143886" lon="6.709898810409475"><ele>67.0</ele><time>2026-04-03T14:47:29.001Z</time></trkpt><trkpt lat="43.492369661476445" lon="6.709764660144952"><ele>65.33333333333333</ele><time>2026-04-03T14:47:30Z</time></trkpt><trkpt lat="43.49252784744987" lon="6.709637574568252"><ele>63.66666666666667</ele><time>2026-04-03T14:47:31Z</time></trkpt><trkpt lat="43.4926764699369" lon="6.709521704417868"><ele>62.0</ele><time>2026-04-03T14:47:32Z</time></trkpt><trkpt lat="43.492828585202254" lon="6.709400232267405"><ele>62.333333333333336</ele><time>2026-04-03T14:47:33Z</time></trkpt><trkpt lat="43.49299545056839" lon="6.709268039072161"><ele>62.66666666666667</ele><time>2026-04-03T14:47:34Z</time></trkpt><trkpt lat="43.493170166446944" lon="6.7091333847261625"><ele>63.0</ele><time>2026-04-03T14:47:35Z</time></trkpt><trkpt lat="43.49335761448685" lon="6.708987298511974"><ele>63.0</ele><time>2026-04-03T14:47:36Z</time></trkpt><trkpt lat="43.49354820687072" lon="6.708836537707386"><ele>63.0</ele><time>2026-04-03T14:47:37Z</time></trkpt><trkpt lat="43.4937438876637" lon="6.70868601727267"><ele>63.0</ele><time>2026-04-03T14:47:38Z</time></trkpt><trkpt lat="43.49393708032007" lon="6.708544066921597"><ele>63.33333333333333</ele><time>2026-04-03T14:47:39Z</time></trkpt><trkpt lat="43.49412411433076" lon="6.708398170505306"><ele>63.666666666666664</ele><time>2026-04-03T14:47:40Z</time></trkpt><trkpt lat="43.49429881630787" lon="6.708255119487381"><ele>64.0</ele><time>2026-04-03T14:47:41Z</time></trkpt><trkpt lat="43.494469596630864" lon="6.708111639407173"><ele>64.0</ele><time>2026-04-03T14:47:42Z</time></trkpt><trkpt lat="43.494632445443465" lon="6.707970730178259"><ele>64.0</ele><time>2026-04-03T14:47:43Z</time></trkpt><trkpt lat="43.49478922857835" lon="6.707838909739914"><ele>64.0</ele><time>2026-04-03T14:47:44Z</time></trkpt><trkpt lat="43.49494209626022" lon="6.707713182567872"><ele>64.0</ele><time>2026-04-03T14:47:45Z</time></trkpt><trkpt lat="43.495097013093556" lon="6.707583211443238"><ele>64.0</ele><time>2026-04-03T14:47:46Z</time></trkpt><trkpt lat="43.495243402664784" lon="6.707464511394476"><ele>64.0</ele><time>2026-04-03T14:47:47Z</time></trkpt><trkpt lat="43.49539921079792" lon="6.707335986259954"><ele>65.33333333333333</ele><time>2026-04-03T14:47:48Z</time></trkpt><trkpt lat="43.49556134884268" lon="6.707197189905225"><ele>66.66666666666667</ele><time>2026-04-03T14:47:49Z</time></trkpt><trkpt lat="43.49572768119167" lon="6.707055599827244"><ele>68.0</ele><time>2026-04-03T14:47:50Z</time></trkpt><trkpt lat="43.495896849536024" lon="6.706912435730108"><ele>68.66666666666667</ele><time>2026-04-03T14:47:51Z</time></trkpt><trkpt lat="43.4960652046571" lon="6.706766450640533"><ele>69.33333333333333</ele><time>2026-04-03T14:47:52Z</time></trkpt><trkpt lat="43.49623906334619" lon="6.706624045142866"><ele>70.0</ele><time>2026-04-03T14:47:53Z</time></trkpt><trkpt lat="43.496407343440005" lon="6.70650702968457"><ele>70.0</ele><time>2026-04-03T14:47:54Z</time></trkpt><trkpt lat="43.49657666866405" lon="6.706450240642335"><ele>70.0</ele><time>2026-04-03T14:47:55Z</time></trkpt><trkpt lat="43.49674737893831" lon="6.706407712572388"><ele>70.0</ele><time>2026-04-03T14:47:56Z</time></trkpt><trkpt lat="43.49692404536373" lon="6.706395567671755"><ele>71.0</ele><time>2026-04-03T14:47:57Z</time></trkpt><trkpt lat="43.49711174624432" lon="6.706402432688825"><ele>72.0</ele><time>2026-04-03T14:47:58Z</time></trkpt><trkpt lat="43.497292518761064" lon="6.706456232122146"><ele>73.0</ele><time>2026-04-03T14:47:59Z</time></trkpt><trkpt lat="43.49746807201582" lon="6.706528756366373"><ele>73.0</ele><time>2026-04-03T14:48:00Z</time></trkpt><trkpt lat="43.49763651799822" lon="6.706618961193936"><ele>73.0</ele><time>2026-04-03T14:48:01Z</time></trkpt><trkpt lat="43.49779714754879" lon="6.706710433450247"><ele>73.0</ele><time>2026-04-03T14:48:02Z</time></trkpt><trkpt lat="43.49795919168778" lon="6.706795652952366"><ele>73.0</ele><time>2026-04-03T14:48:03Z</time></trkpt><trkpt lat="43.49812687342399" lon="6.706879459717898"><ele>73.0</ele><time>2026-04-03T14:48:04Z</time></trkpt><trkpt lat="43.49829361383232" lon="6.706951836846433"><ele>73.0</ele><time>2026-04-03T14:48:05Z</time></trkpt><trkpt lat="43.49846417786966" lon="6.707004985705737"><ele>74.0</ele><time>2026-04-03T14:48:06Z</time></trkpt><trkpt lat="43.49864112084416" lon="6.707043793794624"><ele>75.0</ele><time>2026-04-03T14:48:07Z</time></trkpt><trkpt lat="43.49881398687247" lon="6.707014857884899"><ele>76.0</ele><time>2026-04-03T14:48:08Z</time></trkpt><trkpt lat="43.498993388549266" lon="6.706943203669228"><ele>76.0</ele><time>2026-04-03T14:48:09Z</time></trkpt><trkpt lat="43.49916966696963" lon="6.706828429758815"><ele>76.0</ele><time>2026-04-03T14:48:10Z</time></trkpt><trkpt lat="43.499332702253305" lon="6.7066739270049345"><ele>76.0</ele><time>2026-04-03T14:48:11Z</time></trkpt><trkpt lat="43.499471355749165" lon="6.706494967961692"><ele>77.0</ele><time>2026-04-03T14:48:12Z</time></trkpt><trkpt lat="43.49959595052491" lon="6.706323009609599"><ele>78.0</ele><time>2026-04-03T14:48:13Z</time></trkpt><trkpt lat="43.49973091021608" lon="6.70618853365476"><ele>79.0</ele><time>2026-04-03T14:48:14Z</time></trkpt><trkpt lat="43.49985171476816" lon="6.706045411260919"><ele>79.0</ele><time>2026-04-03T14:48:15Z</time></trkpt><trkpt lat="43.49997614112807" lon="6.7058991249142315"><ele>79.0</ele><time>2026-04-03T14:48:16Z</time></trkpt><trkpt lat="43.500098398098395" lon="6.705729166475116"><ele>79.0</ele><time>2026-04-03T14:48:17Z</time></trkpt><trkpt lat="43.500230238731405" lon="6.70557915856212"><ele>79.0</ele><time>2026-04-03T14:48:18Z</time></trkpt><trkpt lat="43.50038044318559" lon="6.705446202809358"><ele>79.0</ele><time>2026-04-03T14:48:19Z</time></trkpt><trkpt lat="43.5005270130639" lon="6.7053142286005585"><ele>79.0</ele><time>2026-04-03T14:48:20Z</time></trkpt><trkpt lat="43.50068419031202" lon="6.705206536104476"><ele>80.66666666666666</ele><time>2026-04-03T14:48:21Z</time></trkpt><trkpt lat="43.50084795812924" lon="6.705097575862636"><ele>82.33333333333333</ele><time>2026-04-03T14:48:22Z</time></trkpt><trkpt lat="43.50102327990466" lon="6.705022024700025"><ele>84.0</ele><time>2026-04-03T14:48:23Z</time></trkpt><trkpt lat="43.50120495793255" lon="6.704982718699389"><ele>85.0</ele><time>2026-04-03T14:48:24Z</time></trkpt><trkpt lat="43.50139069579889" lon="6.7049612102631615"><ele>86.0</ele><time>2026-04-03T14:48:25Z</time></trkpt><trkpt lat="43.50157598260089" lon="6.7049762319367785"><ele>87.0</ele><time>2026-04-03T14:48:26Z</time></trkpt><trkpt lat="43.501760536993885" lon="6.705000519057407"><ele>87.0</ele><time>2026-04-03T14:48:27Z</time></trkpt><trkpt lat="43.50193897517363" lon="6.705025878999586"><ele>87.0</ele><time>2026-04-03T14:48:28Z</time></trkpt><trkpt lat="43.50212374722463" lon="6.705050102145113"><ele>87.0</ele><time>2026-04-03T14:48:29Z</time></trkpt><trkpt lat="43.50232093293436" lon="6.705072817381389"><ele>88.0</ele><time>2026-04-03T14:48:30Z</time></trkpt><trkpt lat="43.50252801733907" lon="6.705091968806981"><ele>89.0</ele><time>2026-04-03T14:48:31Z</time></trkpt><trkpt lat="43.50274723203805" lon="6.705114335149982"><ele>90.0</ele><time>2026-04-03T14:48:32Z</time></trkpt><trkpt lat="43.50294560113877" lon="6.705135871751527"><ele>91.0</ele><time>2026-04-03T14:48:33Z</time></trkpt><trkpt lat="43.50312204953579" lon="6.705151028105334"><ele>92.0</ele><time>2026-04-03T14:48:34Z</time></trkpt><trkpt lat="43.50328378652726" lon="6.70516322343534"><ele>93.0</ele><time>2026-04-03T14:48:35Z</time></trkpt><trkpt lat="43.50344773538964" lon="6.705184404196676"><ele>93.0</ele><time>2026-04-03T14:48:36Z</time></trkpt><trkpt lat="43.50361967728153" lon="6.705212227669755"><ele>93.0</ele><time>2026-04-03T14:48:37Z</time></trkpt><trkpt lat="43.50379178137536" lon="6.705267549003963"><ele>93.0</ele><time>2026-04-03T14:48:38Z</time></trkpt><trkpt lat="43.50396321951225" lon="6.705375941213004"><ele>95.0</ele><time>2026-04-03T14:48:39Z</time></trkpt><trkpt lat="43.50411167418028" lon="6.7055497808952165"><ele>97.0</ele><time>2026-04-03T14:48:40Z</time></trkpt><trkpt lat="43.50426066408357" lon="6.705745881712317"><ele>99.0</ele><time>2026-04-03T14:48:41Z</time></trkpt><trkpt lat="43.50438905089608" lon="6.705975880925728"><ele>103.0</ele><time>2026-04-03T14:48:42Z</time></trkpt><trkpt lat="43.50447407391184" lon="6.7062546484436885"><ele>107.0</ele><time>2026-04-03T14:48:43Z</time></trkpt><trkpt lat="43.504518783989624" lon="6.706581817087166"><ele>110.0</ele><time>2026-04-03T14:48:44Z</time></trkpt><trkpt lat="43.50456083217182" lon="6.7069347150932055"><ele>113.0</ele><time>2026-04-03T14:48:45Z</time></trkpt><trkpt lat="43.50462581112759" lon="6.70727023999366"><ele>113.0</ele><time>2026-04-03T14:48:46Z</time></trkpt><trkpt lat="43.504710194502586" lon="6.707568999834451"><ele>113.0</ele><time>2026-04-03T14:48:46.999Z</time></trkpt><trkpt lat="43.50481729078495" lon="6.707855220717487"><ele>114.66666666666666</ele><time>2026-04-03T14:48:47.999Z</time></trkpt><trkpt lat="43.504925625472644" lon="6.70812088289421"><ele>116.33333333333334</ele><time>2026-04-03T14:48:48.999Z</time></trkpt><trkpt lat="43.50502587281019" lon="6.708384229240342"><ele>118.0</ele><time>2026-04-03T14:48:49.999Z</time></trkpt><trkpt lat="43.50509782866926" lon="6.708668892962631"><ele>122.0</ele><time>2026-04-03T14:48:50.999Z</time></trkpt><trkpt lat="43.50515532503838" lon="6.708984611583809"><ele>126.0</ele><time>2026-04-03T14:48:51.999Z</time></trkpt><trkpt lat="43.50522003473248" lon="6.709280912471701"><ele>130.5</ele><time>2026-04-03T14:48:52.999Z</time></trkpt><trkpt lat="43.50525493781427" lon="6.709590633194049"><ele>135.0</ele><time>2026-04-03T14:48:53.999Z</time></trkpt><trkpt lat="43.5053015131014" lon="6.709972483904227"><ele>138.0</ele><time>2026-04-03T14:48:54.999Z</time></trkpt><trkpt lat="43.50540080653664" lon="6.710328163386399"><ele>141.0</ele><time>2026-04-03T14:48:55.999Z</time></trkpt><trkpt lat="43.50546275980418" lon="6.7107304648619195"><ele>134.5</ele><time>2026-04-03T14:48:56.999Z</time></trkpt><trkpt lat="43.50554365228701" lon="6.71119096905872"><ele>128.0</ele><time>2026-04-03T14:48:57.999Z</time></trkpt><trkpt lat="43.50561999726149" lon="6.711607396283062"><ele>130.5</ele><time>2026-04-03T14:48:58.999Z</time></trkpt><trkpt lat="43.505676727122" lon="6.711975996366163"><ele>133.0</ele><time>2026-04-03T14:48:59.999Z</time></trkpt><trkpt lat="43.50574750896733" lon="6.712328306195836"><ele>133.0</ele><time>2026-04-03T14:49:00.999Z</time></trkpt><trkpt lat="43.505840349385046" lon="6.712687566461684"><ele>133.0</ele><time>2026-04-03T14:49:01.999Z</time></trkpt><trkpt lat="43.50597852028985" lon="6.713037196970712"><ele>134.5</ele><time>2026-04-03T14:49:02.999Z</time></trkpt><trkpt lat="43.50616850958961" lon="6.713361895858728"><ele>136.0</ele><time>2026-04-03T14:49:03.999Z</time></trkpt><trkpt lat="43.506358877846665" lon="6.7136691642316215"><ele>138.0</ele><time>2026-04-03T14:49:04.999Z</time></trkpt><trkpt lat="43.50652390388296" lon="6.71396562657116"><ele>140.0</ele><time>2026-04-03T14:49:05.999Z</time></trkpt><trkpt lat="43.50666329613971" lon="6.714272109646443"><ele>138.0</ele><time>2026-04-03T14:49:06.999Z</time></trkpt><trkpt lat="43.50679870242666" lon="6.714540587391293"><ele>136.0</ele><time>2026-04-03T14:49:07.999Z</time></trkpt><trkpt lat="43.506895302394824" lon="6.71479800619685"><ele>134.0</ele><time>2026-04-03T14:49:08.999Z</time></trkpt><trkpt lat="43.50702554281116" lon="6.715022183396396"><ele>137.66666666666666</ele><time>2026-04-03T14:49:09.999Z</time></trkpt><trkpt lat="43.50715266337155" lon="6.715222496749825"><ele>141.33333333333334</ele><time>2026-04-03T14:49:10.999Z</time></trkpt><trkpt lat="43.507297346369135" lon="6.715440544325592"><ele>145.0</ele><time>2026-04-03T14:49:11.999Z</time></trkpt><trkpt lat="43.50747107048709" lon="6.715655193718129"><ele>145.0</ele><time>2026-04-03T14:49:12.999Z</time></trkpt><trkpt lat="43.507656136728244" lon="6.715827000117662"><ele>145.0</ele><time>2026-04-03T14:49:13.999Z</time></trkpt><trkpt lat="43.50784382365636" lon="6.715958349459537"><ele>145.0</ele><time>2026-04-03T14:49:14.999Z</time></trkpt><trkpt lat="43.508031673961824" lon="6.7160091309466665"><ele>146.33333333333334</ele><time>2026-04-03T14:49:15.999Z</time></trkpt><trkpt lat="43.5082296116876" lon="6.715959346038152"><ele>147.66666666666666</ele><time>2026-04-03T14:49:16.999Z</time></trkpt><trkpt lat="43.50841873034132" lon="6.7158444128706245"><ele>149.0</ele><time>2026-04-03T14:49:18Z</time></trkpt><trkpt lat="43.50858076172741" lon="6.7156821727996086"><ele>149.0</ele><time>2026-04-03T14:49:19Z</time></trkpt><trkpt lat="43.508705214161985" lon="6.715528017426181"><ele>149.0</ele><time>2026-04-03T14:49:20Z</time></trkpt><trkpt lat="43.50883009990989" lon="6.715397045207278"><ele>149.0</ele><time>2026-04-03T14:49:21Z</time></trkpt><trkpt lat="43.50897555971481" lon="6.715309235180797"><ele>150.0</ele><time>2026-04-03T14:49:22Z</time></trkpt><trkpt lat="43.50913377078027" lon="6.715337233500872"><ele>151.0</ele><time>2026-04-03T14:49:23Z</time></trkpt><trkpt lat="43.509293351909335" lon="6.715399219209514"><ele>152.0</ele><time>2026-04-03T14:49:24Z</time></trkpt><trkpt lat="43.50943034645668" lon="6.715543896149119"><ele>152.0</ele><time>2026-04-03T14:49:25Z</time></trkpt><trkpt lat="43.50954704019935" lon="6.715750794660991"><ele>152.0</ele><time>2026-04-03T14:49:26Z</time></trkpt><trkpt lat="43.50965419718779" lon="6.716019761064444"><ele>152.0</ele><time>2026-04-03T14:49:27Z</time></trkpt><trkpt lat="43.50975750476452" lon="6.716345746430243"><ele>155.5</ele><time>2026-04-03T14:49:28Z</time></trkpt><trkpt lat="43.50988563214897" lon="6.716620588033751"><ele>159.0</ele><time>2026-04-03T14:49:29Z</time></trkpt><trkpt lat="43.51004850776603" lon="6.71694670533079"><ele>159.0</ele><time>2026-04-03T14:49:30Z</time></trkpt><trkpt lat="43.51021696420041" lon="6.717301306392299"><ele>159.0</ele><time>2026-04-03T14:49:31Z</time></trkpt><trkpt lat="43.51040525375979" lon="6.717689271106584"><ele>166.5</ele><time>2026-04-03T14:49:32Z</time></trkpt><trkpt lat="43.510575747022216" lon="6.71805319814019"><ele>174.0</ele><time>2026-04-03T14:49:33Z</time></trkpt><trkpt lat="43.51074115526509" lon="6.718361475690816"><ele>169.0</ele><time>2026-04-03T14:49:34Z</time></trkpt><trkpt lat="43.510930181197736" lon="6.718596586688272"><ele>164.0</ele><time>2026-04-03T14:49:35Z</time></trkpt><trkpt lat="43.51111424067385" lon="6.718814777059556"><ele>164.0</ele><time>2026-04-03T14:49:36Z</time></trkpt><trkpt lat="43.51123258795202" lon="6.719080205983528"><ele>164.0</ele><time>2026-04-03T14:49:37Z</time></trkpt><trkpt lat="43.511322806249176" lon="6.71934865965393"><ele>164.0</ele><time>2026-04-03T14:49:38Z</time></trkpt><trkpt lat="43.511359889319934" lon="6.7196229061700645"><ele>170.66666666666666</ele><time>2026-04-03T14:49:39Z</time></trkpt><trkpt lat="43.51134214768285" lon="6.719883255265386"><ele>177.33333333333334</ele><time>2026-04-03T14:49:40Z</time></trkpt><trkpt lat="43.51130459996603" lon="6.720113778978244"><ele>184.0</ele><time>2026-04-03T14:49:41Z</time></trkpt><trkpt lat="43.511278300394004" lon="6.720315543878711"><ele>184.0</ele><time>2026-04-03T14:49:42Z</time></trkpt><trkpt lat="43.511263396028184" lon="6.720478132899486"><ele>184.0</ele><time>2026-04-03T14:49:43Z</time></trkpt><trkpt lat="43.51129779043353" lon="6.720644693297584"><ele>184.0</ele><time>2026-04-03T14:49:44Z</time></trkpt><trkpt lat="43.511373139368295" lon="6.7207961205835725"><ele>184.0</ele><time>2026-04-03T14:49:45Z</time></trkpt><trkpt lat="43.51148593726703" lon="6.720914549110523"><ele>184.0</ele><time>2026-04-03T14:49:46Z</time></trkpt><trkpt lat="43.51159335322207" lon="6.720991402600668"><ele>184.0</ele><time>2026-04-03T14:49:47Z</time></trkpt><trkpt lat="43.51169439830223" lon="6.721068290605867"><ele>184.0</ele><time>2026-04-03T14:49:48Z</time></trkpt><trkpt lat="43.51179640170709" lon="6.721175905750377"><ele>184.0</ele><time>2026-04-03T14:49:49Z</time></trkpt><trkpt lat="43.51189802833083" lon="6.721309964422741"><ele>182.75</ele><time>2026-04-03T14:49:50Z</time></trkpt><trkpt lat="43.51199663478648" lon="6.721447557996931"><ele>181.5</ele><time>2026-04-03T14:49:51Z</time></trkpt><trkpt lat="43.51207819096912" lon="6.721589799520861"><ele>180.25</ele><time>2026-04-03T14:49:52Z</time></trkpt><trkpt lat="43.51215864204432" lon="6.721647023061512"><ele>179.0</ele><time>2026-04-03T14:49:53Z</time></trkpt><trkpt lat="43.51226768312291" lon="6.721702457471454"><ele>181.5</ele><time>2026-04-03T14:49:54Z</time></trkpt><trkpt lat="43.51237667855104" lon="6.7217255966261265"><ele>184.0</ele><time>2026-04-03T14:49:55Z</time></trkpt><trkpt lat="43.51249099052693" lon="6.721688942016157"><ele>186.5</ele><time>2026-04-03T14:49:56Z</time></trkpt><trkpt lat="43.51259905507191" lon="6.7216104912275885"><ele>189.0</ele><time>2026-04-03T14:49:57Z</time></trkpt><trkpt lat="43.51268027206108" lon="6.7214878294580656"><ele>189.0</ele><time>2026-04-03T14:49:58Z</time></trkpt><trkpt lat="43.51275153711927" lon="6.721363611432189"><ele>189.0</ele><time>2026-04-03T14:49:59Z</time></trkpt><trkpt lat="43.51283155595627" lon="6.721249154129518"><ele>189.0</ele><time>2026-04-03T14:50:00Z</time></trkpt><trkpt lat="43.51292619643188" lon="6.721130541392113"><ele>189.0</ele><time>2026-04-03T14:50:01Z</time></trkpt><trkpt lat="43.513042991301155" lon="6.721030006334567"><ele>189.0</ele><time>2026-04-03T14:50:02Z</time></trkpt><trkpt lat="43.51315850180569" lon="6.721003087308578"><ele>189.0</ele><time>2026-04-03T14:50:03Z</time></trkpt><trkpt lat="43.51325668363161" lon="6.72103206254933"><ele>189.0</ele><time>2026-04-03T14:50:04Z</time></trkpt><trkpt lat="43.51335659898969" lon="6.721097945058684"><ele>189.0</ele><time>2026-04-03T14:50:05Z</time></trkpt><trkpt lat="43.51344505636145" lon="6.721174926991454"><ele>189.0</ele><time>2026-04-03T14:50:06Z</time></trkpt><trkpt lat="43.51354470435269" lon="6.721274109767234"><ele>189.0</ele><time>2026-04-03T14:50:07Z</time></trkpt><trkpt lat="43.513678675280936" lon="6.721392495314815"><ele>189.0</ele><time>2026-04-03T14:50:08Z</time></trkpt><trkpt lat="43.51380774157495" lon="6.72151011800413"><ele>189.0</ele><time>2026-04-03T14:50:09Z</time></trkpt><trkpt lat="43.51392591305938" lon="6.721619190238758"><ele>191.25</ele><time>2026-04-03T14:50:10Z</time></trkpt><trkpt lat="43.514030007970334" lon="6.721712031615858"><ele>193.5</ele><time>2026-04-03T14:50:11Z</time></trkpt><trkpt lat="43.51412696543566" lon="6.721795850061706"><ele>195.75</ele><time>2026-04-03T14:50:12Z</time></trkpt><trkpt lat="43.51423425832142" lon="6.721874410704512"><ele>198.0</ele><time>2026-04-03T14:50:13Z</time></trkpt><trkpt lat="43.514350933646114" lon="6.7219202948943195"><ele>198.0</ele><time>2026-04-03T14:50:14Z</time></trkpt><trkpt lat="43.514456433768785" lon="6.721927937125941"><ele>198.0</ele><time>2026-04-03T14:50:15Z</time></trkpt><trkpt lat="43.5145585948635" lon="6.72191358267949"><ele>198.0</ele><time>2026-04-03T14:50:16Z</time></trkpt><trkpt lat="43.514668237519125" lon="6.721907693121425"><ele>198.0</ele><time>2026-04-03T14:50:17Z</time></trkpt><trkpt lat="43.51477976765245" lon="6.721895869962876"><ele>198.0</ele><time>2026-04-03T14:50:18Z</time></trkpt><trkpt lat="43.51489253531631" lon="6.721883915616557"><ele>201.75</ele><time>2026-04-03T14:50:19Z</time></trkpt><trkpt lat="43.515003032300484" lon="6.721757508257541"><ele>205.5</ele><time>2026-04-03T14:50:20Z</time></trkpt><trkpt lat="43.51512836951853" lon="6.721719754186447"><ele>209.25</ele><time>2026-04-03T14:50:21Z</time></trkpt><trkpt lat="43.515261071929984" lon="6.721696332735697"><ele>213.0</ele><time>2026-04-03T14:50:22Z</time></trkpt><trkpt lat="43.51541941100473" lon="6.721693131475364"><ele>214.66666666666669</ele><time>2026-04-03T14:50:23Z</time></trkpt><trkpt lat="43.51561866201133" lon="6.7216994749519055"><ele>216.33333333333334</ele><time>2026-04-03T14:50:24Z</time></trkpt><trkpt lat="43.515783940696636" lon="6.721709334152337"><ele>218.0</ele><time>2026-04-03T14:50:25Z</time></trkpt><trkpt lat="43.51593044498197" lon="6.721719734327603"><ele>218.0</ele><time>2026-04-03T14:50:26Z</time></trkpt><trkpt lat="43.51607189280786" lon="6.721752634372071"><ele>218.0</ele><time>2026-04-03T14:50:27Z</time></trkpt><trkpt lat="43.516223652308554" lon="6.72179960677874"><ele>218.0</ele><time>2026-04-03T14:50:28Z</time></trkpt><trkpt lat="43.51638775502257" lon="6.721844923566058"><ele>221.5</ele><time>2026-04-03T14:50:29Z</time></trkpt><trkpt lat="43.516610666837344" lon="6.721870932898215"><ele>225.0</ele><time>2026-04-03T14:50:30Z</time></trkpt><trkpt lat="43.51685822340698" lon="6.721892351808502"><ele>224.33333333333331</ele><time>2026-04-03T14:50:31Z</time></trkpt><trkpt lat="43.517060837935446" lon="6.721906364080573"><ele>223.66666666666666</ele><time>2026-04-03T14:50:32Z</time></trkpt><trkpt lat="43.517227863678244" lon="6.721931716071713"><ele>223.0</ele><time>2026-04-03T14:50:33Z</time></trkpt><trkpt lat="43.51738796136804" lon="6.721995552146522"><ele>223.0</ele><time>2026-04-03T14:50:34Z</time></trkpt><trkpt lat="43.51754542561793" lon="6.72216919620033"><ele>223.0</ele><time>2026-04-03T14:50:35Z</time></trkpt><trkpt lat="43.51769853224079" lon="6.7224250429843915"><ele>223.0</ele><time>2026-04-03T14:50:36Z</time></trkpt><trkpt lat="43.517876943130624" lon="6.722705296202215"><ele>224.0</ele><time>2026-04-03T14:50:37Z</time></trkpt><trkpt lat="43.51809151516518" lon="6.722987606180239"><ele>225.0</ele><time>2026-04-03T14:50:38Z</time></trkpt><trkpt lat="43.518278959277154" lon="6.7232301616926655"><ele>225.0</ele><time>2026-04-03T14:50:39Z</time></trkpt><trkpt lat="43.518420005044405" lon="6.723420873594707"><ele>225.0</ele><time>2026-04-03T14:50:40Z</time></trkpt><trkpt lat="43.51853919243461" lon="6.72365083910538"><ele>225.0</ele><time>2026-04-03T14:50:41Z</time></trkpt><trkpt lat="43.518607206076446" lon="6.723906403811473"><ele>223.33333333333331</ele><time>2026-04-03T14:50:42Z</time></trkpt><trkpt lat="43.518627838663015" lon="6.7241884762215784"><ele>221.66666666666666</ele><time>2026-04-03T14:50:43Z</time></trkpt><trkpt lat="43.51860323627196" lon="6.724471086281062"><ele>220.0</ele><time>2026-04-03T14:50:44Z</time></trkpt><trkpt lat="43.518556203219305" lon="6.724706827711747"><ele>219.75</ele><time>2026-04-03T14:50:45Z</time></trkpt><trkpt lat="43.51849976489494" lon="6.72490275837291"><ele>219.5</ele><time>2026-04-03T14:50:46Z</time></trkpt><trkpt lat="43.51844355271607" lon="6.725070738985575"><ele>219.25</ele><time>2026-04-03T14:50:47Z</time></trkpt><trkpt lat="43.5184106585945" lon="6.725236887095417"><ele>219.0</ele><time>2026-04-03T14:50:48Z</time></trkpt><trkpt lat="43.518410422196254" lon="6.725430346897065"><ele>217.33333333333331</ele><time>2026-04-03T14:50:49Z</time></trkpt><trkpt lat="43.518451876053916" lon="6.7256539352045115"><ele>215.66666666666666</ele><time>2026-04-03T14:50:50Z</time></trkpt><trkpt lat="43.518567559038445" lon="6.725883638946147"><ele>214.0</ele><time>2026-04-03T14:50:51Z</time></trkpt><trkpt lat="43.518718734516334" lon="6.726146994680887"><ele>219.0</ele><time>2026-04-03T14:50:52Z</time></trkpt><trkpt lat="43.51887756795379" lon="6.7264386092274275"><ele>224.0</ele><time>2026-04-03T14:50:52.999Z</time></trkpt><trkpt lat="43.51902627444633" lon="6.7267271861369755"><ele>220.66666666666669</ele><time>2026-04-03T14:50:53.999Z</time></trkpt><trkpt lat="43.519152248918424" lon="6.726976866801515"><ele>217.33333333333331</ele><time>2026-04-03T14:50:54.999Z</time></trkpt><trkpt lat="43.5192628542162" lon="6.727202360336018"><ele>214.0</ele><time>2026-04-03T14:50:55.999Z</time></trkpt><trkpt lat="43.51938086645563" lon="6.727396512205753"><ele>214.0</ele><time>2026-04-03T14:50:56.999Z</time></trkpt><trkpt lat="43.5195268618669" lon="6.727559587729304"><ele>214.0</ele><time>2026-04-03T14:50:57.999Z</time></trkpt><trkpt lat="43.519706797011715" lon="6.727685385372498"><ele>214.0</ele><time>2026-04-03T14:50:58.999Z</time></trkpt><trkpt lat="43.51993587739144" lon="6.7277288529197685"><ele>210.5</ele><time>2026-04-03T14:50:59.999Z</time></trkpt><trkpt lat="43.52018926729248" lon="6.727737267924383"><ele>207.0</ele><time>2026-04-03T14:51:00.999Z</time></trkpt><trkpt lat="43.520384200461535" lon="6.727769894676218"><ele>205.66666666666669</ele><time>2026-04-03T14:51:01.999Z</time></trkpt><trkpt lat="43.52053396915658" lon="6.727786414842878"><ele>204.33333333333334</ele><time>2026-04-03T14:51:02.999Z</time></trkpt><trkpt lat="43.520688691752035" lon="6.727751667933491"><ele>203.0</ele><time>2026-04-03T14:51:03.999Z</time></trkpt><trkpt lat="43.52084370588863" lon="6.727598104793313"><ele>207.33333333333334</ele><time>2026-04-03T14:51:04.999Z</time></trkpt><trkpt lat="43.521002744402146" lon="6.727415152875384"><ele>211.66666666666669</ele><time>2026-04-03T14:51:05.999Z</time></trkpt><trkpt lat="43.521198597171235" lon="6.727318633895449"><ele>216.0</ele><time>2026-04-03T14:51:06.999Z</time></trkpt><trkpt lat="43.521413026672846" lon="6.727297916315866"><ele>216.0</ele><time>2026-04-03T14:51:07.999Z</time></trkpt><trkpt lat="43.521610475356795" lon="6.727335239095662"><ele>216.0</ele><time>2026-04-03T14:51:08.999Z</time></trkpt><trkpt lat="43.52181008012257" lon="6.727425195616044"><ele>216.0</ele><time>2026-04-03T14:51:09.999Z</time></trkpt><trkpt lat="43.522001764503685" lon="6.7275152854550235"><ele>217.0</ele><time>2026-04-03T14:51:10.999Z</time></trkpt><trkpt lat="43.52223438132174" lon="6.727585001677923"><ele>218.0</ele><time>2026-04-03T14:51:11.999Z</time></trkpt><trkpt lat="43.5224953481262" lon="6.727569021928702"><ele>218.0</ele><time>2026-04-03T14:51:12.999Z</time></trkpt><trkpt lat="43.52274058513578" lon="6.7275415915711"><ele>218.0</ele><time>2026-04-03T14:51:13.999Z</time></trkpt><trkpt lat="43.52300003334031" lon="6.727600992778599"><ele>219.5</ele><time>2026-04-03T14:51:14.999Z</time></trkpt><trkpt lat="43.52324304857054" lon="6.72771244243199"><ele>221.0</ele><time>2026-04-03T14:51:15.999Z</time></trkpt><trkpt lat="43.52346957245698" lon="6.727795896916679"><ele>217.0</ele><time>2026-04-03T14:51:16.999Z</time></trkpt><trkpt lat="43.523691091068684" lon="6.727869400212035"><ele>213.0</ele><time>2026-04-03T14:51:17.999Z</time></trkpt><trkpt lat="43.523887559923324" lon="6.727968246933572"><ele>209.0</ele><time>2026-04-03T14:51:18.999Z</time></trkpt><trkpt lat="43.52404990948034" lon="6.728099006441"><ele>209.0</ele><time>2026-04-03T14:51:19.999Z</time></trkpt><trkpt lat="43.52418241379777" lon="6.728239182164614"><ele>209.0</ele><time>2026-04-03T14:51:20.999Z</time></trkpt><trkpt lat="43.52431633490251" lon="6.728374108186325"><ele>209.0</ele><time>2026-04-03T14:51:21.999Z</time></trkpt><trkpt lat="43.5244685352398" lon="6.728495623351571"><ele>211.0</ele><time>2026-04-03T14:51:22.999Z</time></trkpt><trkpt lat="43.52465389589466" lon="6.7285613342704025"><ele>213.0</ele><time>2026-04-03T14:51:24Z</time></trkpt><trkpt lat="43.52486133745925" lon="6.728565592767493"><ele>215.0</ele><time>2026-04-03T14:51:25Z</time></trkpt><trkpt lat="43.525071728128665" lon="6.728496674644961"><ele>215.0</ele><time>2026-04-03T14:51:26Z</time></trkpt><trkpt lat="43.525256727229966" lon="6.728355888993744"><ele>215.0</ele><time>2026-04-03T14:51:27Z</time></trkpt><trkpt lat="43.525428291799514" lon="6.728178716615577"><ele>215.0</ele><time>2026-04-03T14:51:28Z</time></trkpt><trkpt lat="43.52558355665243" lon="6.72795834636958"><ele>213.5</ele><time>2026-04-03T14:51:29Z</time></trkpt><trkpt lat="43.52571363881217" lon="6.727703520279134"><ele>212.0</ele><time>2026-04-03T14:51:30Z</time></trkpt><trkpt lat="43.52582530342414" lon="6.727430171513361"><ele>212.0</ele><time>2026-04-03T14:51:31Z</time></trkpt><trkpt lat="43.525916818066015" lon="6.727132808218065"><ele>212.0</ele><time>2026-04-03T14:51:32Z</time></trkpt><trkpt lat="43.52597363733619" lon="6.726821793000647"><ele>212.5</ele><time>2026-04-03T14:51:33Z</time></trkpt><trkpt lat="43.52600310409172" lon="6.726516673140612"><ele>213.0</ele><time>2026-04-03T14:51:34Z</time></trkpt><trkpt lat="43.52599108057866" lon="6.7261862233989325"><ele>211.5</ele><time>2026-04-03T14:51:35Z</time></trkpt><trkpt lat="43.52595727284309" lon="6.725855137776695"><ele>210.0</ele><time>2026-04-03T14:51:36Z</time></trkpt><trkpt lat="43.52590783206895" lon="6.72555888658951"><ele>210.0</ele><time>2026-04-03T14:51:37Z</time></trkpt><trkpt lat="43.5258527852095" lon="6.725293957385051"><ele>210.0</ele><time>2026-04-03T14:51:38Z</time></trkpt><trkpt lat="43.52579290587205" lon="6.725041555173118"><ele>210.0</ele><time>2026-04-03T14:51:39Z</time></trkpt><trkpt lat="43.52568316537886" lon="6.724793966222885"><ele>207.5</ele><time>2026-04-03T14:51:40Z</time></trkpt><trkpt lat="43.5254949192197" lon="6.724556074106012"><ele>205.0</ele><time>2026-04-03T14:51:41Z</time></trkpt><trkpt lat="43.52535049728195" lon="6.724304504201558"><ele>205.0</ele><time>2026-04-03T14:51:42Z</time></trkpt><trkpt lat="43.52523610890476" lon="6.724075563759157"><ele>205.0</ele><time>2026-04-03T14:51:43Z</time></trkpt><trkpt lat="43.52517739829964" lon="6.723815403269968"><ele>205.0</ele><time>2026-04-03T14:51:44Z</time></trkpt><trkpt lat="43.52512960739617" lon="6.723507974566735"><ele>203.66666666666666</ele><time>2026-04-03T14:51:45Z</time></trkpt><trkpt lat="43.52507651254387" lon="6.723202120170763"><ele>202.33333333333331</ele><time>2026-04-03T14:51:46Z</time></trkpt><trkpt lat="43.52504566013544" lon="6.722924597970911"><ele>201.0</ele><time>2026-04-03T14:51:47Z</time></trkpt><trkpt lat="43.52502009442664" lon="6.722668756713251"><ele>200.33333333333331</ele><time>2026-04-03T14:51:48Z</time></trkpt><trkpt lat="43.52501084259019" lon="6.722428823263722"><ele>199.66666666666666</ele><time>2026-04-03T14:51:49Z</time></trkpt><trkpt lat="43.52508538995216" lon="6.722199519575922"><ele>199.0</ele><time>2026-04-03T14:51:50Z</time></trkpt><trkpt lat="43.52518218273811" lon="6.72195557608145"><ele>199.0</ele><time>2026-04-03T14:51:51Z</time></trkpt><trkpt lat="43.52527197522583" lon="6.721724742441528"><ele>199.0</ele><time>2026-04-03T14:51:52Z</time></trkpt><trkpt lat="43.525356304523434" lon="6.721514512790149"><ele>199.0</ele><time>2026-04-03T14:51:53Z</time></trkpt><trkpt lat="43.525428997597054" lon="6.721294500552838"><ele>193.66666666666666</ele><time>2026-04-03T14:51:54Z</time></trkpt><trkpt lat="43.525474573790774" lon="6.721037780499881"><ele>188.33333333333331</ele><time>2026-04-03T14:51:55Z</time></trkpt><trkpt lat="43.52549170852769" lon="6.720737195192176"><ele>183.0</ele><time>2026-04-03T14:51:56Z</time></trkpt><trkpt lat="43.52550131511457" lon="6.720433338713989"><ele>181.66666666666666</ele><time>2026-04-03T14:51:57Z</time></trkpt><trkpt lat="43.52548641181867" lon="6.720155996959114"><ele>180.33333333333331</ele><time>2026-04-03T14:51:58Z</time></trkpt><trkpt lat="43.52543360821826" lon="6.719907082655073"><ele>179.0</ele><time>2026-04-03T14:51:59Z</time></trkpt><trkpt lat="43.52536489144732" lon="6.719672332477783"><ele>182.66666666666666</ele><time>2026-04-03T14:52:00Z</time></trkpt><trkpt lat="43.52526253320187" lon="6.719453765438023"><ele>186.33333333333334</ele><time>2026-04-03T14:52:01Z</time></trkpt><trkpt lat="43.525138324521315" lon="6.719257878949662"><ele>190.0</ele><time>2026-04-03T14:52:02Z</time></trkpt><trkpt lat="43.525028906080266" lon="6.719075742187132"><ele>190.0</ele><time>2026-04-03T14:52:03Z</time></trkpt><trkpt lat="43.52495314172385" lon="6.718874233875497"><ele>190.0</ele><time>2026-04-03T14:52:04Z</time></trkpt><trkpt lat="43.52488598689101" lon="6.71869130898065"><ele>190.0</ele><time>2026-04-03T14:52:05Z</time></trkpt><trkpt lat="43.52484139207909" lon="6.718494068245549"><ele>186.66666666666669</ele><time>2026-04-03T14:52:06Z</time></trkpt><trkpt lat="43.52483750926803" lon="6.718261840587651"><ele>183.33333333333334</ele><time>2026-04-03T14:52:07Z</time></trkpt><trkpt lat="43.524856667559796" lon="6.718002869573126"><ele>180.0</ele><time>2026-04-03T14:52:08Z</time></trkpt><trkpt lat="43.52489799804542" lon="6.71771941069461"><ele>179.33333333333334</ele><time>2026-04-03T14:52:09Z</time></trkpt><trkpt lat="43.524936194531996" lon="6.717402675475985"><ele>178.66666666666669</ele><time>2026-04-03T14:52:10Z</time></trkpt><trkpt lat="43.52497567580643" lon="6.717117356850578"><ele>178.0</ele><time>2026-04-03T14:52:11Z</time></trkpt><trkpt lat="43.52500683371001" lon="6.716857157549543"><ele>177.66666666666669</ele><time>2026-04-03T14:52:12Z</time></trkpt><trkpt lat="43.5250555976896" lon="6.716611828983714"><ele>177.33333333333334</ele><time>2026-04-03T14:52:13Z</time></trkpt><trkpt lat="43.52508403559961" lon="6.7163652749019525"><ele>177.0</ele><time>2026-04-03T14:52:14Z</time></trkpt><trkpt lat="43.52511742483469" lon="6.716118208859174"><ele>176.33333333333334</ele><time>2026-04-03T14:52:15Z</time></trkpt><trkpt lat="43.52513017088882" lon="6.715856278095156"><ele>175.66666666666669</ele><time>2026-04-03T14:52:16Z</time></trkpt><trkpt lat="43.525111639007534" lon="6.715605263672463"><ele>175.0</ele><time>2026-04-03T14:52:17Z</time></trkpt><trkpt lat="43.525058789043115" lon="6.7153723540014685"><ele>172.75</ele><time>2026-04-03T14:52:18Z</time></trkpt><trkpt lat="43.525002189691236" lon="6.715158317142233"><ele>170.5</ele><time>2026-04-03T14:52:19Z</time></trkpt><trkpt lat="43.5249707205867" lon="6.714969494473331"><ele>168.25</ele><time>2026-04-03T14:52:20Z</time></trkpt><trkpt lat="43.52495640574557" lon="6.714790883090659"><ele>166.0</ele><time>2026-04-03T14:52:21Z</time></trkpt><trkpt lat="43.524998752542125" lon="6.714598639265224"><ele>166.0</ele><time>2026-04-03T14:52:22Z</time></trkpt><trkpt lat="43.525075272497695" lon="6.714428297288174"><ele>166.0</ele><time>2026-04-03T14:52:23Z</time></trkpt><trkpt lat="43.52519556551691" lon="6.714304579878338"><ele>166.0</ele><time>2026-04-03T14:52:24Z</time></trkpt><trkpt lat="43.52533981140272" lon="6.714202912175809"><ele>161.66666666666669</ele><time>2026-04-03T14:52:25Z</time></trkpt><trkpt lat="43.52547800617045" lon="6.714076720133928"><ele>157.33333333333334</ele><time>2026-04-03T14:52:26Z</time></trkpt><trkpt lat="43.52559727766253" lon="6.713898517064597"><ele>153.0</ele><time>2026-04-03T14:52:27Z</time></trkpt><trkpt lat="43.525681775774494" lon="6.713678727890363"><ele>153.66666666666666</ele><time>2026-04-03T14:52:28Z</time></trkpt><trkpt lat="43.52572607387892" lon="6.713447354286688"><ele>154.33333333333331</ele><time>2026-04-03T14:52:29Z</time></trkpt><trkpt lat="43.525756606135985" lon="6.7132123515149695"><ele>155.0</ele><time>2026-04-03T14:52:30Z</time></trkpt><trkpt lat="43.52579514904402" lon="6.712962969423025"><ele>155.0</ele><time>2026-04-03T14:52:31Z</time></trkpt><trkpt lat="43.525815451436436" lon="6.712630153842928"><ele>155.0</ele><time>2026-04-03T14:52:32Z</time></trkpt><trkpt lat="43.52583201200163" lon="6.712333195013426"><ele>155.0</ele><time>2026-04-03T14:52:33Z</time></trkpt><trkpt lat="43.52585240693299" lon="6.712059195043664"><ele>155.0</ele><time>2026-04-03T14:52:34Z</time></trkpt><trkpt lat="43.52588710415773" lon="6.7118025381594455"><ele>155.0</ele><time>2026-04-03T14:52:35Z</time></trkpt><trkpt lat="43.525988144475285" lon="6.711536441003132"><ele>155.0</ele><time>2026-04-03T14:52:36Z</time></trkpt><trkpt lat="43.52612422318881" lon="6.711287691710196"><ele>155.0</ele><time>2026-04-03T14:52:37Z</time></trkpt><trkpt lat="43.5263067931234" lon="6.711065518714421"><ele>155.0</ele><time>2026-04-03T14:52:38Z</time></trkpt><trkpt lat="43.526494607980894" lon="6.710788110136602"><ele>155.0</ele><time>2026-04-03T14:52:39Z</time></trkpt><trkpt lat="43.526649824482895" lon="6.7105329674006375"><ele>155.0</ele><time>2026-04-03T14:52:40Z</time></trkpt><trkpt lat="43.526791380569136" lon="6.7102953157899305"><ele>155.0</ele><time>2026-04-03T14:52:41Z</time></trkpt><trkpt lat="43.5269131656546" lon="6.710070576004085"><ele>155.0</ele><time>2026-04-03T14:52:42Z</time></trkpt><trkpt lat="43.527014329213415" lon="6.709866184539821"><ele>157.5</ele><time>2026-04-03T14:52:43Z</time></trkpt><trkpt lat="43.52709917910743" lon="6.70968151739858"><ele>160.0</ele><time>2026-04-03T14:52:44Z</time></trkpt><trkpt lat="43.52717378028489" lon="6.709513377173464"><ele>162.5</ele><time>2026-04-03T14:52:45Z</time></trkpt><trkpt lat="43.52725368481683" lon="6.709377113050275"><ele>165.0</ele><time>2026-04-03T14:52:46Z</time></trkpt><trkpt lat="43.52731095224233" lon="6.709231419935149"><ele>165.0</ele><time>2026-04-03T14:52:47Z</time></trkpt><trkpt lat="43.52738703104958" lon="6.709127360060795"><ele>165.0</ele><time>2026-04-03T14:52:48Z</time></trkpt><trkpt lat="43.52750354773486" lon="6.709051087730679"><ele>165.0</ele><time>2026-04-03T14:52:49Z</time></trkpt><trkpt lat="43.527652659318555" lon="6.709022055266854"><ele>165.0</ele><time>2026-04-03T14:52:50Z</time></trkpt><trkpt lat="43.52780056834705" lon="6.708982314560688"><ele>167.0</ele><time>2026-04-03T14:52:51Z</time></trkpt><trkpt lat="43.52792533817649" lon="6.7089203102154515"><ele>169.0</ele><time>2026-04-03T14:52:52Z</time></trkpt><trkpt lat="43.52801560323919" lon="6.708848614698436"><ele>171.0</ele><time>2026-04-03T14:52:53Z</time></trkpt><trkpt lat="43.52808581869424" lon="6.708762366699536"><ele>173.0</ele><time>2026-04-03T14:52:53.999Z</time></trkpt><trkpt lat="43.52814122125352" lon="6.708659235304553"><ele>175.0</ele><time>2026-04-03T14:52:54.999Z</time></trkpt><trkpt lat="43.52818391779158" lon="6.7085848183547565"><ele>175.0</ele><time>2026-04-03T14:52:55.999Z</time></trkpt><trkpt lat="43.528264341332" lon="6.708524602168374"><ele>175.0</ele><time>2026-04-03T14:52:56.999Z</time></trkpt><trkpt lat="43.52836256249454" lon="6.708530817832387"><ele>175.0</ele><time>2026-04-03T14:52:57.999Z</time></trkpt><trkpt lat="43.5284552770352" lon="6.708601759184717"><ele>175.0</ele><time>2026-04-03T14:52:58.999Z</time></trkpt><trkpt lat="43.5285000169011" lon="6.708725184056798"><ele>175.0</ele><time>2026-04-03T14:52:59.999Z</time></trkpt><trkpt lat="43.52848880008148" lon="6.708867816944483"><ele>175.0</ele><time>2026-04-03T14:53:00.999Z</time></trkpt><trkpt lat="43.52844983592795" lon="6.709000569050578"><ele>175.0</ele><time>2026-04-03T14:53:01.999Z</time></trkpt><trkpt lat="43.52840061443398" lon="6.709094688292464"><ele>175.0</ele><time>2026-04-03T14:53:02.999Z</time></trkpt><trkpt lat="43.528310918020054" lon="6.709153342866483"><ele>175.0</ele><time>2026-04-03T14:53:03.999Z</time></trkpt><trkpt lat="43.52824214031988" lon="6.709240686912456"><ele>175.0</ele><time>2026-04-03T14:53:04.999Z</time></trkpt><trkpt lat="43.52819373896633" lon="6.709324402812947"><ele>176.0</ele><time>2026-04-03T14:53:05.999Z</time></trkpt><trkpt lat="43.52819884854324" lon="6.709437091823434"><ele>177.0</ele><time>2026-04-03T14:53:06.999Z</time></trkpt><trkpt lat="43.52825177743537" lon="6.709547650515682"><ele>178.0</ele><time>2026-04-03T14:53:07.999Z</time></trkpt><trkpt lat="43.52834624854438" lon="6.709615603414129"><ele>179.0</ele><time>2026-04-03T14:53:08.999Z</time></trkpt><trkpt lat="43.52845366700912" lon="6.709657653541526"><ele>180.0</ele><time>2026-04-03T14:53:09.999Z</time></trkpt><trkpt lat="43.528573692149074" lon="6.709695380724826"><ele>180.0</ele><time>2026-04-03T14:53:10.999Z</time></trkpt><trkpt lat="43.528705360748326" lon="6.709745078967308"><ele>180.0</ele><time>2026-04-03T14:53:11.999Z</time></trkpt><trkpt lat="43.52881587427513" lon="6.709772734402404"><ele>180.0</ele><time>2026-04-03T14:53:12.999Z</time></trkpt><trkpt lat="43.52892568885019" lon="6.709806651207951"><ele>180.0</ele><time>2026-04-03T14:53:13.999Z</time></trkpt><trkpt lat="43.529031283559995" lon="6.7098416775081065"><ele>181.5</ele><time>2026-04-03T14:53:14.999Z</time></trkpt><trkpt lat="43.529127973871674" lon="6.709878323141742"><ele>183.0</ele><time>2026-04-03T14:53:15.999Z</time></trkpt><trkpt lat="43.529214281274236" lon="6.7099126187207725"><ele>184.5</ele><time>2026-04-03T14:53:16.999Z</time></trkpt><trkpt lat="43.5292859316899" lon="6.709951531279532"><ele>186.0</ele><time>2026-04-03T14:53:17.999Z</time></trkpt><trkpt lat="43.52933823067343" lon="6.710009010130641"><ele>187.5</ele><time>2026-04-03T14:53:18.999Z</time></trkpt><trkpt lat="43.52936522511723" lon="6.710102630061796"><ele>189.0</ele><time>2026-04-03T14:53:19.999Z</time></trkpt><trkpt lat="43.52934383133361" lon="6.710208317346096"><ele>189.0</ele><time>2026-04-03T14:53:20.999Z</time></trkpt><trkpt lat="43.52926008211286" lon="6.710259614407935"><ele>189.0</ele><time>2026-04-03T14:53:21.999Z</time></trkpt><trkpt lat="43.529154609784776" lon="6.710244211160006"><ele>189.0</ele><time>2026-04-03T14:53:22.999Z</time></trkpt><trkpt lat="43.529055633906076" lon="6.71021961781289"><ele>189.0</ele><time>2026-04-03T14:53:23.999Z</time></trkpt><trkpt lat="43.52895723117229" lon="6.710208144740205"><ele>189.0</ele><time>2026-04-03T14:53:24.999Z</time></trkpt><trkpt lat="43.52886027056184" lon="6.7102032770022655"><ele>189.0</ele><time>2026-04-03T14:53:25.999Z</time></trkpt><trkpt lat="43.52877375439406" lon="6.710201598336247"><ele>189.0</ele><time>2026-04-03T14:53:26.999Z</time></trkpt><trkpt lat="43.52868282926395" lon="6.710212217572331"><ele>189.0</ele><time>2026-04-03T14:53:27.999Z</time></trkpt><trkpt lat="43.5285967358863" lon="6.710247801132266"><ele>189.0</ele><time>2026-04-03T14:53:28.999Z</time></trkpt><trkpt lat="43.528524161521425" lon="6.710305999068327"><ele>189.0</ele><time>2026-04-03T14:53:30Z</time></trkpt><trkpt lat="43.52846585585044" lon="6.710402763347651"><ele>189.0</ele><time>2026-04-03T14:53:31Z</time></trkpt><trkpt lat="43.52841905877778" lon="6.710529571734095"><ele>189.39999999999998</ele><time>2026-04-03T14:53:32Z</time></trkpt><trkpt lat="43.52837857037676" lon="6.710656790887731"><ele>189.8</ele><time>2026-04-03T14:53:33Z</time></trkpt><trkpt lat="43.52833012331386" lon="6.710767179308745"><ele>190.2</ele><time>2026-04-03T14:53:34Z</time></trkpt><trkpt lat="43.52827372713521" lon="6.710867329162916"><ele>190.60000000000002</ele><time>2026-04-03T14:53:35Z</time></trkpt><trkpt lat="43.52822428279458" lon="6.710969413532822"><ele>191.0</ele><time>2026-04-03T14:53:36Z</time></trkpt><trkpt lat="43.52818060077749" lon="6.711063790222023"><ele>192.16666666666666</ele><time>2026-04-03T14:53:37Z</time></trkpt><trkpt lat="43.528135434929375" lon="6.7111600870243695"><ele>193.33333333333331</ele><time>2026-04-03T14:53:38Z</time></trkpt><trkpt lat="43.52810187599867" lon="6.711268221965808"><ele>194.5</ele><time>2026-04-03T14:53:39Z</time></trkpt><trkpt lat="43.52809535355982" lon="6.711384336538225"><ele>195.66666666666666</ele><time>2026-04-03T14:53:40Z</time></trkpt><trkpt lat="43.5281324800454" lon="6.711496463443171"><ele>196.83333333333334</ele><time>2026-04-03T14:53:41Z</time></trkpt><trkpt lat="43.528224140432236" lon="6.711551436978763"><ele>198.0</ele><time>2026-04-03T14:53:42Z</time></trkpt><trkpt lat="43.528337262406616" lon="6.711523934535837"><ele>198.0</ele><time>2026-04-03T14:53:43Z</time></trkpt><trkpt lat="43.52843990299642" lon="6.711426094941839"><ele>198.0</ele><time>2026-04-03T14:53:44Z</time></trkpt><trkpt lat="43.52852379750089" lon="6.7113113333647725"><ele>198.0</ele><time>2026-04-03T14:53:45Z</time></trkpt><trkpt lat="43.52860080284591" lon="6.711241148863845"><ele>198.0</ele><time>2026-04-03T14:53:46Z</time></trkpt><trkpt lat="43.52868062448097" lon="6.711187284117436"><ele>198.0</ele><time>2026-04-03T14:53:47Z</time></trkpt><trkpt lat="43.528790692312455" lon="6.711152513007489"><ele>200.60000000000002</ele><time>2026-04-03T14:53:48Z</time></trkpt><trkpt lat="43.528925822148864" lon="6.711149371753676"><ele>203.20000000000002</ele><time>2026-04-03T14:53:49Z</time></trkpt><trkpt lat="43.52904913538448" lon="6.711171834574723"><ele>205.8</ele><time>2026-04-03T14:53:50Z</time></trkpt><trkpt lat="43.52914473919145" lon="6.711174539191637"><ele>208.4</ele><time>2026-04-03T14:53:51Z</time></trkpt><trkpt lat="43.52922858720108" lon="6.711182683258356"><ele>211.0</ele><time>2026-04-03T14:53:52Z</time></trkpt><trkpt lat="43.529321580905965" lon="6.711172896986518"><ele>210.99999999999997</ele><time>2026-04-03T14:53:53Z</time></trkpt><trkpt lat="43.52941395104447" lon="6.711136833469363"><ele>211.0</ele><time>2026-04-03T14:53:54Z</time></trkpt><trkpt lat="43.52948674331272" lon="6.711061769770202"><ele>211.0</ele><time>2026-04-03T14:53:55Z</time></trkpt><trkpt lat="43.52955618941602" lon="6.710994342546672"><ele>211.0</ele><time>2026-04-03T14:53:56Z</time></trkpt><trkpt lat="43.5296293743961" lon="6.7109404065110185"><ele>210.99999999999997</ele><time>2026-04-03T14:53:57Z</time></trkpt><trkpt lat="43.52971997025097" lon="6.710924317272202"><ele>211.0</ele><time>2026-04-03T14:53:58Z</time></trkpt><trkpt lat="43.52980978441687" lon="6.711012219642826"><ele>210.20000000000002</ele><time>2026-04-03T14:53:59Z</time></trkpt><trkpt lat="43.529910227788534" lon="6.71106623801398"><ele>209.4</ele><time>2026-04-03T14:54:00Z</time></trkpt><trkpt lat="43.529992726639286" lon="6.711115148360745"><ele>208.6</ele><time>2026-04-03T14:54:01Z</time></trkpt><trkpt lat="43.53007863495594" lon="6.71112682825452"><ele>207.8</ele><time>2026-04-03T14:54:02Z</time></trkpt><trkpt lat="43.53016947983846" lon="6.711095223608273"><ele>207.0</ele><time>2026-04-03T14:54:03Z</time></trkpt><trkpt lat="43.53025935554145" lon="6.711019992906128"><ele>207.0</ele><time>2026-04-03T14:54:04Z</time></trkpt><trkpt lat="43.53031243871999" lon="6.710908209987278"><ele>207.0</ele><time>2026-04-03T14:54:05Z</time></trkpt><trkpt lat="43.53033377658909" lon="6.710792240588977"><ele>207.0</ele><time>2026-04-03T14:54:06Z</time></trkpt><trkpt lat="43.53034605735551" lon="6.71066821613907"><ele>207.0</ele><time>2026-04-03T14:54:07Z</time></trkpt><trkpt lat="43.530327905751655" lon="6.7105345151315365"><ele>207.0</ele><time>2026-04-03T14:54:08Z</time></trkpt><trkpt lat="43.53028832477097" lon="6.710399293996215"><ele>207.0</ele><time>2026-04-03T14:54:09Z</time></trkpt><trkpt lat="43.53027924750494" lon="6.710269241769664"><ele>207.0</ele><time>2026-04-03T14:54:10Z</time></trkpt><trkpt lat="43.5302809506584" lon="6.710161268037535"><ele>207.0</ele><time>2026-04-03T14:54:11Z</time></trkpt><trkpt lat="43.53032046631897" lon="6.7100601306836545"><ele>207.0</ele><time>2026-04-03T14:54:12Z</time></trkpt><trkpt lat="43.5303584622557" lon="6.70994017296088"><ele>207.0</ele><time>2026-04-03T14:54:13Z</time></trkpt><trkpt lat="43.53039764295175" lon="6.70981481615867"><ele>209.33333333333334</ele><time>2026-04-03T14:54:14Z</time></trkpt><trkpt lat="43.53042184488963" lon="6.7096817290209465"><ele>211.66666666666669</ele><time>2026-04-03T14:54:15Z</time></trkpt><trkpt lat="43.530460579170494" lon="6.709555781390494"><ele>214.0</ele><time>2026-04-03T14:54:16Z</time></trkpt><trkpt lat="43.5305152698701" lon="6.709445307714943"><ele>216.33333333333334</ele><time>2026-04-03T14:54:17Z</time></trkpt><trkpt lat="43.53055214322462" lon="6.709348637846628"><ele>218.66666666666669</ele><time>2026-04-03T14:54:18Z</time></trkpt><trkpt lat="43.53060346542787" lon="6.709276992357721"><ele>221.0</ele><time>2026-04-03T14:54:19Z</time></trkpt><trkpt lat="43.53065375287984" lon="6.709194430552697"><ele>221.00000000000003</ele><time>2026-04-03T14:54:20Z</time></trkpt><trkpt lat="43.530724212460385" lon="6.709163874284431"><ele>221.0</ele><time>2026-04-03T14:54:21Z</time></trkpt><trkpt lat="43.53078628557949" lon="6.709120535235263"><ele>221.0</ele><time>2026-04-03T14:54:22Z</time></trkpt><trkpt lat="43.53085419165957" lon="6.709048564176512"><ele>221.0</ele><time>2026-04-03T14:54:24Z</time></trkpt><trkpt lat="43.53090290597588" lon="6.709135198194402"><ele>221.00000000000003</ele><time>2026-04-03T14:54:27Z</time></trkpt><trkpt lat="43.53089234936219" lon="6.709283920266823"><ele>221.0</ele><time>2026-04-03T14:54:29Z</time></trkpt><trkpt lat="43.530920432386814" lon="6.709425268413215"><ele>221.00000000000003</ele><time>2026-04-03T14:54:31Z</time></trkpt><trkpt lat="43.530938422459194" lon="6.709533414088671"><ele>221.0</ele><time>2026-04-03T14:54:34Z</time></trkpt><trkpt lat="43.530920944741396" lon="6.709412751321617"><ele>221.0</ele><time>2026-04-03T14:55:21.999Z</time></trkpt><trkpt lat="43.53089706666497" lon="6.709318568329643"><ele>221.0</ele><time>2026-04-03T14:55:24.999Z</time></trkpt><trkpt lat="43.530891271308995" lon="6.709209850067777"><ele>221.00000000000003</ele><time>2026-04-03T14:55:27.999Z</time></trkpt><trkpt lat="43.53089157658566" lon="6.709098645494952"><ele>221.0</ele><time>2026-04-03T14:55:30.999Z</time></trkpt><trkpt lat="43.53087953511305" lon="6.708995450163174"><ele>221.0</ele><time>2026-04-03T14:55:33.999Z</time></trkpt><trkpt lat="43.531057310677674" lon="6.708856784918801"><ele>221.0</ele><time>2026-04-03T14:55:36Z</time></trkpt><trkpt lat="43.53111969319939" lon="6.708777091209676"><ele>221.0</ele><time>2026-04-03T14:55:37Z</time></trkpt><trkpt lat="43.53124315070351" lon="6.708692246701031"><ele>221.0</ele><time>2026-04-03T14:55:38Z</time></trkpt><trkpt lat="43.53135262833186" lon="6.708627139699002"><ele>221.4</ele><time>2026-04-03T14:55:39Z</time></trkpt><trkpt lat="43.53145004128826" lon="6.708572498076094"><ele>221.8</ele><time>2026-04-03T14:55:40Z</time></trkpt><trkpt lat="43.53154300246146" lon="6.708526954121698"><ele>222.20000000000002</ele><time>2026-04-03T14:55:41Z</time></trkpt><trkpt lat="43.531621871878386" lon="6.708422099057109"><ele>222.60000000000002</ele><time>2026-04-03T14:55:42Z</time></trkpt><trkpt lat="43.531714938845916" lon="6.708322772743633"><ele>223.0</ele><time>2026-04-03T14:55:43Z</time></trkpt><trkpt lat="43.531818039715056" lon="6.708226568295841"><ele>223.0</ele><time>2026-04-03T14:55:44Z</time></trkpt><trkpt lat="43.53193158075359" lon="6.708137134479245"><ele>223.0</ele><time>2026-04-03T14:55:45Z</time></trkpt><trkpt lat="43.532045524238185" lon="6.708069008575351"><ele>223.0</ele><time>2026-04-03T14:55:46Z</time></trkpt><trkpt lat="43.53212454264574" lon="6.707977309810008"><ele>223.0</ele><time>2026-04-03T14:55:47Z</time></trkpt><trkpt lat="43.53221306500319" lon="6.707911415326912"><ele>223.25</ele><time>2026-04-03T14:55:48Z</time></trkpt><trkpt lat="43.53231050559559" lon="6.7078394239195935"><ele>223.5</ele><time>2026-04-03T14:55:49Z</time></trkpt><trkpt lat="43.53242586288262" lon="6.707782256567484"><ele>223.75</ele><time>2026-04-03T14:55:50Z</time></trkpt><trkpt lat="43.532559172540466" lon="6.7077752658936625"><ele>224.0</ele><time>2026-04-03T14:55:51Z</time></trkpt><trkpt lat="43.53268876446118" lon="6.7077266924439956"><ele>224.0</ele><time>2026-04-03T14:55:52Z</time></trkpt><trkpt lat="43.532800085468416" lon="6.707641369757542"><ele>224.0</ele><time>2026-04-03T14:55:53Z</time></trkpt><trkpt lat="43.53290420754327" lon="6.707537114191579"><ele>224.0</ele><time>2026-04-03T14:55:54Z</time></trkpt><trkpt lat="43.53299640713849" lon="6.707405478218938"><ele>224.0</ele><time>2026-04-03T14:55:55Z</time></trkpt><trkpt lat="43.53309763152" lon="6.70728529720961"><ele>227.5</ele><time>2026-04-03T14:55:56Z</time></trkpt><trkpt lat="43.53317604196652" lon="6.707134153854176"><ele>231.0</ele><time>2026-04-03T14:55:57Z</time></trkpt><trkpt lat="43.53324046428907" lon="6.706969526651147"><ele>234.5</ele><time>2026-04-03T14:55:58Z</time></trkpt><trkpt lat="43.533286024830154" lon="6.7067970960212"><ele>238.0</ele><time>2026-04-03T14:55:59Z</time></trkpt><trkpt lat="43.53331448482265" lon="6.706616917986824"><ele>238.0</ele><time>2026-04-03T14:56:00Z</time></trkpt><trkpt lat="43.53333043826226" lon="6.70644638409346"><ele>238.0</ele><time>2026-04-03T14:56:01Z</time></trkpt><trkpt lat="43.533337954448356" lon="6.706300732437891"><ele>238.0</ele><time>2026-04-03T14:56:02Z</time></trkpt><trkpt lat="43.53333967225339" lon="6.706173316946742"><ele>238.0</ele><time>2026-04-03T14:56:03Z</time></trkpt><trkpt lat="43.53334118195614" lon="6.706051801258541"><ele>238.0</ele><time>2026-04-03T14:56:04Z</time></trkpt><trkpt lat="43.533342700828406" lon="6.70592954736313"><ele>238.0</ele><time>2026-04-03T14:56:05Z</time></trkpt><trkpt lat="43.533344026710765" lon="6.705770129928881"><ele>238.0</ele><time>2026-04-03T14:56:06Z</time></trkpt><trkpt lat="43.53334534986553" lon="6.705592302954054"><ele>238.0</ele><time>2026-04-03T14:56:07Z</time></trkpt><trkpt lat="43.53334672039485" lon="6.705408109205826"><ele>238.0</ele><time>2026-04-03T14:56:08Z</time></trkpt><trkpt lat="43.533348467583416" lon="6.705240982812956"><ele>237.8</ele><time>2026-04-03T14:56:09Z</time></trkpt><trkpt lat="43.53335691495466" lon="6.705098710704629"><ele>237.60000000000002</ele><time>2026-04-03T14:56:10Z</time></trkpt><trkpt lat="43.53336604324942" lon="6.704976823733267"><ele>237.39999999999998</ele><time>2026-04-03T14:56:11Z</time></trkpt><trkpt lat="43.53338317802155" lon="6.704866145414624"><ele>237.2</ele><time>2026-04-03T14:56:12Z</time></trkpt><trkpt lat="43.53341649198024" lon="6.704732669365178"><ele>237.0</ele><time>2026-04-03T14:56:13Z</time></trkpt><trkpt lat="43.53347670533716" lon="6.704575508722537"><ele>236.75</ele><time>2026-04-03T14:56:14Z</time></trkpt><trkpt lat="43.53355101430898" lon="6.704411338107834"><ele>236.5</ele><time>2026-04-03T14:56:15Z</time></trkpt><trkpt lat="43.53359651699965" lon="6.704234062504887"><ele>236.25</ele><time>2026-04-03T14:56:16Z</time></trkpt><trkpt lat="43.53363113448236" lon="6.704058128606374"><ele>236.0</ele><time>2026-04-03T14:56:17Z</time></trkpt><trkpt lat="43.53362463348044" lon="6.703879126396831"><ele>236.0</ele><time>2026-04-03T14:56:18Z</time></trkpt><trkpt lat="43.53361318432106" lon="6.70371107956465"><ele>236.0</ele><time>2026-04-03T14:56:19Z</time></trkpt><trkpt lat="43.53362172860041" lon="6.70356551729621"><ele>236.0</ele><time>2026-04-03T14:56:20Z</time></trkpt><trkpt lat="43.53365847395625" lon="6.703419489631787"><ele>236.0</ele><time>2026-04-03T14:56:21Z</time></trkpt><trkpt lat="43.53371421367216" lon="6.703276337315905"><ele>241.0</ele><time>2026-04-03T14:56:22Z</time></trkpt><trkpt lat="43.53379021912345" lon="6.703159185590766"><ele>246.0</ele><time>2026-04-03T14:56:23Z</time></trkpt><trkpt lat="43.53386984386107" lon="6.703045002761341"><ele>251.0</ele><time>2026-04-03T14:56:24Z</time></trkpt><trkpt lat="43.5339579363838" lon="6.70292837614493"><ele>256.0</ele><time>2026-04-03T14:56:25Z</time></trkpt><trkpt lat="43.5340548139159" lon="6.702803484855503"><ele>254.0</ele><time>2026-04-03T14:56:26Z</time></trkpt><trkpt lat="43.53414513474253" lon="6.702657244602586"><ele>252.0</ele><time>2026-04-03T14:56:27Z</time></trkpt><trkpt lat="43.53423401925819" lon="6.7025374313335115"><ele>250.0</ele><time>2026-04-03T14:56:28Z</time></trkpt><trkpt lat="43.53432778683106" lon="6.702444591050356"><ele>248.0</ele><time>2026-04-03T14:56:29Z</time></trkpt><trkpt lat="43.53441494497257" lon="6.702333051776884"><ele>248.0</ele><time>2026-04-03T14:56:30Z</time></trkpt><trkpt lat="43.53449675526234" lon="6.702214913169886"><ele>248.0</ele><time>2026-04-03T14:56:31Z</time></trkpt><trkpt lat="43.53456198106606" lon="6.7020739615574865"><ele>248.0</ele><time>2026-04-03T14:56:32Z</time></trkpt><trkpt lat="43.53463893461304" lon="6.70193986878995"><ele>248.0</ele><time>2026-04-03T14:56:33Z</time></trkpt><trkpt lat="43.53469700783175" lon="6.701791238795"><ele>250.8</ele><time>2026-04-03T14:56:34Z</time></trkpt><trkpt lat="43.53476204925573" lon="6.701650643208641"><ele>253.60000000000002</ele><time>2026-04-03T14:56:35Z</time></trkpt><trkpt lat="43.53481178622477" lon="6.701509103604082"><ele>256.4</ele><time>2026-04-03T14:56:36Z</time></trkpt><trkpt lat="43.53485986645834" lon="6.70138150935743"><ele>259.2</ele><time>2026-04-03T14:56:37Z</time></trkpt><trkpt lat="43.53491531018931" lon="6.701254218545357"><ele>262.0</ele><time>2026-04-03T14:56:38Z</time></trkpt><trkpt lat="43.534974697826605" lon="6.701127115710056"><ele>259.25</ele><time>2026-04-03T14:56:39Z</time></trkpt><trkpt lat="43.53504399136091" lon="6.701000518544365"><ele>256.5</ele><time>2026-04-03T14:56:40Z</time></trkpt><trkpt lat="43.53512378978837" lon="6.700880862529946"><ele>253.75</ele><time>2026-04-03T14:56:41Z</time></trkpt><trkpt lat="43.5352076043337" lon="6.700770223867931"><ele>251.0</ele><time>2026-04-03T14:56:42Z</time></trkpt><trkpt lat="43.535282683166066" lon="6.700665260768238"><ele>251.0</ele><time>2026-04-03T14:56:43Z</time></trkpt><trkpt lat="43.535353888634276" lon="6.700545370050434"><ele>251.00000000000003</ele><time>2026-04-03T14:56:44Z</time></trkpt><trkpt lat="43.53543208702143" lon="6.700472995496151"><ele>251.00000000000003</ele><time>2026-04-03T14:56:45Z</time></trkpt><trkpt lat="43.53552683119058" lon="6.70039271558531"><ele>251.0</ele><time>2026-04-03T14:56:46Z</time></trkpt><trkpt lat="43.53557700640094" lon="6.700255195736128"><ele>251.0</ele><time>2026-04-03T14:56:47Z</time></trkpt><trkpt lat="43.53563713093544" lon="6.700128779936822"><ele>254.20000000000002</ele><time>2026-04-03T14:56:48Z</time></trkpt><trkpt lat="43.535704257255134" lon="6.700009016370293"><ele>257.40000000000003</ele><time>2026-04-03T14:56:49Z</time></trkpt><trkpt lat="43.53576223736739" lon="6.699880009148636"><ele>260.6</ele><time>2026-04-03T14:56:50Z</time></trkpt><trkpt lat="43.53585173385897" lon="6.69978633849254"><ele>263.8</ele><time>2026-04-03T14:56:51Z</time></trkpt><trkpt lat="43.53593583343403" lon="6.69968955164112"><ele>267.0</ele><time>2026-04-03T14:56:52Z</time></trkpt><trkpt lat="43.53601303262094" lon="6.699584960792206"><ele>267.0</ele><time>2026-04-03T14:56:53Z</time></trkpt><trkpt lat="43.536084493829456" lon="6.699474321872182"><ele>267.0</ele><time>2026-04-03T14:56:54Z</time></trkpt><trkpt lat="43.53615385754102" lon="6.699364366111829"><ele>267.0</ele><time>2026-04-03T14:56:55Z</time></trkpt><trkpt lat="43.53622106816383" lon="6.699259620874872"><ele>267.0</ele><time>2026-04-03T14:56:56Z</time></trkpt><trkpt lat="43.53633151166217" lon="6.699084661129882"><ele>266.4</ele><time>2026-04-03T14:56:57.999Z</time></trkpt><trkpt lat="43.53638351898515" lon="6.6989892252395045"><ele>265.79999999999995</ele><time>2026-04-03T14:56:58.999Z</time></trkpt><trkpt lat="43.536450823302786" lon="6.698889643652227"><ele>265.2</ele><time>2026-04-03T14:56:59.999Z</time></trkpt><trkpt lat="43.53653132574365" lon="6.698790846003501"><ele>264.59999999999997</ele><time>2026-04-03T14:57:00.999Z</time></trkpt><trkpt lat="43.53661233926483" lon="6.698684502972955"><ele>264.0</ele><time>2026-04-03T14:57:01.999Z</time></trkpt><trkpt lat="43.53669204933966" lon="6.698573175155806"><ele>264.0</ele><time>2026-04-03T14:57:02.999Z</time></trkpt><trkpt lat="43.53676322359014" lon="6.698473605941514"><ele>264.0</ele><time>2026-04-03T14:57:03.999Z</time></trkpt><trkpt lat="43.53681947221917" lon="6.698383926295268"><ele>264.0</ele><time>2026-04-03T14:57:04.999Z</time></trkpt><trkpt lat="43.53686616282563" lon="6.698306978453642"><ele>264.0</ele><time>2026-04-03T14:57:05.999Z</time></trkpt><trkpt lat="43.53692874654679" lon="6.698221729731126"><ele>264.0</ele><time>2026-04-03T14:57:07.999Z</time></trkpt><trkpt lat="43.53701258155506" lon="6.69810730842675"><ele>266.0</ele><time>2026-04-03T14:57:09.999Z</time></trkpt><trkpt lat="43.53705441687452" lon="6.698012178970259"><ele>268.0</ele><time>2026-04-03T14:57:10.999Z</time></trkpt><trkpt lat="43.53710931106985" lon="6.697939959786749"><ele>270.0</ele><time>2026-04-03T14:57:11.999Z</time></trkpt><trkpt lat="43.537153722658445" lon="6.69786509551172"><ele>272.0</ele><time>2026-04-03T14:57:12.999Z</time></trkpt><trkpt lat="43.53719775258324" lon="6.697791001525622"><ele>274.0</ele><time>2026-04-03T14:57:13.999Z</time></trkpt><trkpt lat="43.537242379440066" lon="6.697722249111916"><ele>276.0</ele><time>2026-04-03T14:57:14.999Z</time></trkpt><trkpt lat="43.53732393688123" lon="6.697577814920974"><ele>276.0</ele><time>2026-04-03T14:57:16.999Z</time></trkpt><trkpt lat="43.53736348066804" lon="6.697503173422848"><ele>276.0</ele><time>2026-04-03T14:57:17.999Z</time></trkpt><trkpt lat="43.537428018903775" lon="6.697387044086684"><ele>276.0</ele><time>2026-04-03T14:57:19.999Z</time></trkpt><trkpt lat="43.53748430778012" lon="6.697296665275034"><ele>276.0</ele><time>2026-04-03T14:57:21.999Z</time></trkpt><trkpt lat="43.53752473875323" lon="6.697215557918857"><ele>276.0</ele><time>2026-04-03T14:57:24.999Z</time></trkpt><trkpt lat="43.537471514177696" lon="6.69730403688544"><ele>276.0</ele><time>2026-04-03T14:57:41Z</time></trkpt><trkpt lat="43.53740309494224" lon="6.697431944142141"><ele>276.0</ele><time>2026-04-03T14:57:43Z</time></trkpt><trkpt lat="43.53733520007224" lon="6.697558870109452"><ele>276.0</ele><time>2026-04-03T14:57:45Z</time></trkpt><trkpt lat="43.53726918658809" lon="6.697684341594416"><ele>276.0</ele><time>2026-04-03T14:57:47Z</time></trkpt><trkpt lat="43.537208644590706" lon="6.697799144088479"><ele>276.0</ele><time>2026-04-03T14:57:49Z</time></trkpt><trkpt lat="43.53713740927178" lon="6.697907108600963"><ele>276.0</ele><time>2026-04-03T14:57:51Z</time></trkpt><trkpt lat="43.536994778387175" lon="6.697843676084299"><ele>270.25</ele><time>2026-04-03T14:57:52Z</time></trkpt><trkpt lat="43.53680978082188" lon="6.697691011435827"><ele>264.5</ele><time>2026-04-03T14:57:53Z</time></trkpt><trkpt lat="43.536875401947555" lon="6.697574976118896"><ele>258.75</ele><time>2026-04-03T14:58:00Z</time></trkpt><trkpt lat="43.53691176774715" lon="6.697472612761508"><ele>253.0</ele><time>2026-04-03T14:58:01Z</time></trkpt><trkpt lat="43.53695774161527" lon="6.697376756869598"><ele>264.5</ele><time>2026-04-03T14:58:02Z</time></trkpt><trkpt lat="43.537068849829076" lon="6.697707719804546"><ele>276.0</ele><time>2026-04-03T14:58:03Z</time></trkpt><trkpt lat="43.53717682340242" lon="6.697212279926654"><ele>276.0</ele><time>2026-04-03T14:58:04Z</time></trkpt><trkpt lat="43.53726417448466" lon="6.6971034662696844"><ele>276.0</ele><time>2026-04-03T14:58:05Z</time></trkpt><trkpt lat="43.53733592154093" lon="6.697022463124618"><ele>276.0</ele><time>2026-04-03T14:58:06Z</time></trkpt><trkpt lat="43.537405811755185" lon="6.696952537957501"><ele>276.0</ele><time>2026-04-03T14:58:07Z</time></trkpt><trkpt lat="43.537484765835494" lon="6.696886361246767"><ele>276.0</ele><time>2026-04-03T14:58:08Z</time></trkpt><trkpt lat="43.537568655449235" lon="6.696830550003547"><ele>275.5</ele><time>2026-04-03T14:58:09Z</time></trkpt><trkpt lat="43.53766047764808" lon="6.696803641516005"><ele>275.0</ele><time>2026-04-03T14:58:10Z</time></trkpt><trkpt lat="43.53774678177212" lon="6.696755436850916"><ele>274.5</ele><time>2026-04-03T14:58:11Z</time></trkpt><trkpt lat="43.53781804207721" lon="6.696691876413587"><ele>274.0</ele><time>2026-04-03T14:58:12Z</time></trkpt><trkpt lat="43.537886433269115" lon="6.6966780383098365"><ele>273.5</ele><time>2026-04-03T14:58:13Z</time></trkpt><trkpt lat="43.53794703865278" lon="6.696621371146715"><ele>273.0</ele><time>2026-04-03T14:58:14Z</time></trkpt><trkpt lat="43.53803177785211" lon="6.69657475466987"><ele>273.0</ele><time>2026-04-03T14:58:15Z</time></trkpt><trkpt lat="43.5381162694951" lon="6.696524839753666"><ele>273.0</ele><time>2026-04-03T14:58:16Z</time></trkpt><trkpt lat="43.5382150703466" lon="6.696484688267881"><ele>273.0</ele><time>2026-04-03T14:58:17Z</time></trkpt><trkpt lat="43.53828793773042" lon="6.696415985086976"><ele>273.0</ele><time>2026-04-03T14:58:18Z</time></trkpt><trkpt lat="43.53835643853874" lon="6.696394101655"><ele>273.0</ele><time>2026-04-03T14:58:19Z</time></trkpt><trkpt lat="43.53845037870888" lon="6.696334562162367"><ele>273.0</ele><time>2026-04-03T14:58:21Z</time></trkpt><trkpt lat="43.5385381635344" lon="6.69627908496092"><ele>273.0</ele><time>2026-04-03T14:58:44Z</time></trkpt><trkpt lat="43.5386409815891" lon="6.696213982122873"><ele>273.0</ele><time>2026-04-03T14:58:46Z</time></trkpt><trkpt lat="43.538720938366666" lon="6.696162975071005"><ele>273.0</ele><time>2026-04-03T14:58:48Z</time></trkpt><trkpt lat="43.53879470174975" lon="6.696116226438923"><ele>273.0</ele><time>2026-04-03T14:58:50Z</time></trkpt><trkpt lat="43.53888754390352" lon="6.696063021673512"><ele>272.5</ele><time>2026-04-03T14:58:52Z</time></trkpt><trkpt lat="43.53896997958578" lon="6.696067864322929"><ele>272.0</ele><time>2026-04-03T14:58:54Z</time></trkpt><trkpt lat="43.53900643621649" lon="6.696174993468042"><ele>271.5</ele><time>2026-04-03T14:58:56Z</time></trkpt><trkpt lat="43.53899107493076" lon="6.696288905434603"><ele>271.0</ele><time>2026-04-03T14:58:58Z</time></trkpt><trkpt lat="43.53892693231402" lon="6.696363723837919"><ele>270.5</ele><time>2026-04-03T14:59:00Z</time></trkpt><trkpt lat="43.53886275459674" lon="6.696336277258915"><ele>270.0</ele><time>2026-04-03T14:59:01Z</time></trkpt><trkpt lat="43.538788617370585" lon="6.696351244937831"><ele>270.6</ele><time>2026-04-03T14:59:02Z</time></trkpt><trkpt lat="43.53871642482133" lon="6.6963658198601586"><ele>271.2</ele><time>2026-04-03T14:59:03Z</time></trkpt><trkpt lat="43.5386172497588" lon="6.69642267730915"><ele>271.8</ele><time>2026-04-03T14:59:05Z</time></trkpt><trkpt lat="43.5385088455346" lon="6.696491593887383"><ele>272.4</ele><time>2026-04-03T14:59:07Z</time></trkpt><trkpt lat="43.53840143741513" lon="6.696590573774418"><ele>273.0</ele><time>2026-04-03T14:59:09Z</time></trkpt><trkpt lat="43.538350794162056" lon="6.6966501618715295"><ele>273.0</ele><time>2026-04-03T14:59:10Z</time></trkpt><trkpt lat="43.53830038146314" lon="6.696708659240836"><ele>273.0</ele><time>2026-04-03T14:59:11Z</time></trkpt><trkpt lat="43.53821327854738" lon="6.696814646602321"><ele>273.0</ele><time>2026-04-03T14:59:13Z</time></trkpt><trkpt lat="43.53812865952123" lon="6.69691280041668"><ele>273.0</ele><time>2026-04-03T14:59:15Z</time></trkpt><trkpt lat="43.53803858415336" lon="6.697023901720255"><ele>273.0</ele><time>2026-04-03T14:59:17Z</time></trkpt><trkpt lat="43.53797945288885" lon="6.6970865106842705"><ele>273.42857142857144</ele><time>2026-04-03T14:59:18Z</time></trkpt><trkpt lat="43.53791953065059" lon="6.697155121937912"><ele>273.8571428571429</ele><time>2026-04-03T14:59:19Z</time></trkpt><trkpt lat="43.53785954618997" lon="6.6972143124835615"><ele>274.2857142857143</ele><time>2026-04-03T14:59:20Z</time></trkpt><trkpt lat="43.53779468788773" lon="6.697255408922918"><ele>274.7142857142857</ele><time>2026-04-03T14:59:20.999Z</time></trkpt><trkpt lat="43.53773490334002" lon="6.697296506160958"><ele>275.14285714285717</ele><time>2026-04-03T14:59:21.999Z</time></trkpt><trkpt lat="43.53767013244145" lon="6.697343097599279"><ele>275.57142857142856</ele><time>2026-04-03T14:59:22.999Z</time></trkpt><trkpt lat="43.537609208605204" lon="6.697406573843345"><ele>276.0</ele><time>2026-04-03T14:59:23.999Z</time></trkpt><trkpt lat="43.53753170492539" lon="6.697545945530447"><ele>276.0</ele><time>2026-04-03T14:59:25.999Z</time></trkpt><trkpt lat="43.53749240831174" lon="6.697627252475461"><ele>276.0</ele><time>2026-04-03T14:59:26.999Z</time></trkpt><trkpt lat="43.537461373696395" lon="6.697707587456159"><ele>276.0</ele><time>2026-04-03T14:59:27.999Z</time></trkpt><trkpt lat="43.53742967021029" lon="6.697784564300144"><ele>276.0</ele><time>2026-04-03T14:59:28.999Z</time></trkpt><trkpt lat="43.53738887737394" lon="6.69786411710252"><ele>276.0</ele><time>2026-04-03T14:59:29.999Z</time></trkpt><trkpt lat="43.53735867931193" lon="6.6979513114327345"><ele>276.0</ele><time>2026-04-03T14:59:30.999Z</time></trkpt><trkpt lat="43.53731951015522" lon="6.698052057193342"><ele>276.0</ele><time>2026-04-03T14:59:32.999Z</time></trkpt><trkpt lat="43.537269551495115" lon="6.698155970015185"><ele>278.0</ele><time>2026-04-03T14:59:38.999Z</time></trkpt><trkpt lat="43.53725290025136" lon="6.698247642132696"><ele>280.0</ele><time>2026-04-03T14:59:39.999Z</time></trkpt><trkpt lat="43.53721789088959" lon="6.6983451181409315"><ele>282.0</ele><time>2026-04-03T14:59:40.999Z</time></trkpt><trkpt lat="43.53718000857688" lon="6.69843132230677"><ele>284.0</ele><time>2026-04-03T14:59:41.999Z</time></trkpt><trkpt lat="43.53712754336698" lon="6.698598663688658"><ele>286.0</ele><time>2026-04-03T14:59:43.999Z</time></trkpt><trkpt lat="43.53708100922016" lon="6.698722946764419"><ele>284.3333333333333</ele><time>2026-04-03T14:59:45.999Z</time></trkpt><trkpt lat="43.53703300114541" lon="6.698858515888932"><ele>282.66666666666663</ele><time>2026-04-03T14:59:48Z</time></trkpt><trkpt lat="43.53700852741557" lon="6.698945573811367"><ele>281.0</ele><time>2026-04-03T14:59:49Z</time></trkpt><trkpt lat="43.53698158825326" lon="6.699025126361067"><ele>279.3333333333333</ele><time>2026-04-03T14:59:50Z</time></trkpt><trkpt lat="43.5369471040192" lon="6.699139858157822"><ele>277.6666666666667</ele><time>2026-04-03T14:59:52Z</time></trkpt><trkpt lat="43.5369352355643" lon="6.699232835316346"><ele>276.0</ele><time>2026-04-03T14:59:54Z</time></trkpt><trkpt lat="43.53690807691832" lon="6.69936859846588"><ele>279.0</ele><time>2026-04-03T14:59:56Z</time></trkpt><trkpt lat="43.536848122347614" lon="6.699510315019265"><ele>282.0</ele><time>2026-04-03T14:59:58Z</time></trkpt><trkpt lat="43.536764306718524" lon="6.699626996625583"><ele>285.0</ele><time>2026-04-03T15:00:00Z</time></trkpt><trkpt lat="43.53674974741641" lon="6.699780049137597"><ele>288.0</ele><time>2026-04-03T15:00:02Z</time></trkpt><trkpt lat="43.53669331475185" lon="6.699910364843808"><ele>288.0</ele><time>2026-04-03T15:00:04Z</time></trkpt><trkpt lat="43.5366087198785" lon="6.700034674292534"><ele>288.0</ele><time>2026-04-03T15:00:06Z</time></trkpt><trkpt lat="43.536566363014025" lon="6.700104044886798"><ele>288.0</ele><time>2026-04-03T15:00:07Z</time></trkpt><trkpt lat="43.53652335723572" lon="6.70017573926332"><ele>288.0</ele><time>2026-04-03T15:00:08Z</time></trkpt><trkpt lat="43.5364785932526" lon="6.70024311540403"><ele>288.0</ele><time>2026-04-03T15:00:09Z</time></trkpt><trkpt lat="43.536410380893244" lon="6.70033757390148"><ele>288.0</ele><time>2026-04-03T15:00:11Z</time></trkpt><trkpt lat="43.5363580296104" lon="6.700406097393129"><ele>286.5</ele><time>2026-04-03T15:00:13Z</time></trkpt><trkpt lat="43.53626956813111" lon="6.70050061155898"><ele>285.0</ele><time>2026-04-03T15:00:15Z</time></trkpt><trkpt lat="43.53622080445959" lon="6.700602854298674"><ele>283.5</ele><time>2026-04-03T15:00:16Z</time></trkpt><trkpt lat="43.53619660036079" lon="6.700709005260656"><ele>282.0</ele><time>2026-04-03T15:00:17Z</time></trkpt><trkpt lat="43.53616765533766" lon="6.70078741273571"><ele>280.5</ele><time>2026-04-03T15:00:18Z</time></trkpt><trkpt lat="43.53613246294266" lon="6.700869504428564"><ele>279.0</ele><time>2026-04-03T15:00:19Z</time></trkpt><trkpt lat="43.53610254784107" lon="6.70096414960235"><ele>279.0</ele><time>2026-04-03T15:00:20Z</time></trkpt><trkpt lat="43.536073344331" lon="6.701056494220436"><ele>279.0</ele><time>2026-04-03T15:00:21Z</time></trkpt><trkpt lat="43.53602852880309" lon="6.7011961273777185"><ele>279.0</ele><time>2026-04-03T15:00:23Z</time></trkpt><trkpt lat="43.53598126280541" lon="6.701331365633847"><ele>279.0</ele><time>2026-04-03T15:00:25Z</time></trkpt><trkpt lat="43.53592798643019" lon="6.701486636617028"><ele>279.0</ele><time>2026-04-03T15:00:27Z</time></trkpt><trkpt lat="43.53590177209429" lon="6.701566406726389"><ele>280.71428571428567</ele><time>2026-04-03T15:00:28Z</time></trkpt><trkpt lat="43.53587881084712" lon="6.701649025097338"><ele>282.42857142857144</ele><time>2026-04-03T15:00:29Z</time></trkpt><trkpt lat="43.53585124191008" lon="6.701731474555809"><ele>284.1428571428571</ele><time>2026-04-03T15:00:30Z</time></trkpt><trkpt lat="43.53582274197297" lon="6.701816293856796"><ele>285.85714285714283</ele><time>2026-04-03T15:00:31Z</time></trkpt><trkpt lat="43.53579356191295" lon="6.701906647815725"><ele>287.57142857142856</ele><time>2026-04-03T15:00:32Z</time></trkpt><trkpt lat="43.53574794827811" lon="6.70198960484216"><ele>289.2857142857143</ele><time>2026-04-03T15:00:33Z</time></trkpt><trkpt lat="43.53571619113801" lon="6.702090983563696"><ele>291.0</ele><time>2026-04-03T15:00:34Z</time></trkpt><trkpt lat="43.53568508950179" lon="6.702207521344601"><ele>292.8</ele><time>2026-04-03T15:00:35Z</time></trkpt><trkpt lat="43.535672019553324" lon="6.7023340310423825"><ele>294.6</ele><time>2026-04-03T15:00:36Z</time></trkpt><trkpt lat="43.535646983023035" lon="6.702460267937157"><ele>296.4</ele><time>2026-04-03T15:00:37Z</time></trkpt><trkpt lat="43.53563279515344" lon="6.702585739701619"><ele>298.2</ele><time>2026-04-03T15:00:38Z</time></trkpt><trkpt lat="43.535626118055234" lon="6.702710510801822"><ele>300.0</ele><time>2026-04-03T15:00:39Z</time></trkpt><trkpt lat="43.535616288684345" lon="6.702832519241649"><ele>301.0</ele><time>2026-04-03T15:00:40Z</time></trkpt><trkpt lat="43.535611751126574" lon="6.702976397984267"><ele>302.0</ele><time>2026-04-03T15:00:41Z</time></trkpt><trkpt lat="43.53559848204756" lon="6.703175922147202"><ele>303.0</ele><time>2026-04-03T15:00:42Z</time></trkpt><trkpt lat="43.53559050620003" lon="6.703351312866038"><ele>304.0</ele><time>2026-04-03T15:00:43Z</time></trkpt><trkpt lat="43.535624635497584" lon="6.703483562979184"><ele>303.59999999999997</ele><time>2026-04-03T15:00:44Z</time></trkpt><trkpt lat="43.53564658737961" lon="6.703624156201902"><ele>303.2</ele><time>2026-04-03T15:00:45Z</time></trkpt><trkpt lat="43.535668277120706" lon="6.703774859222743"><ele>302.79999999999995</ele><time>2026-04-03T15:00:46Z</time></trkpt><trkpt lat="43.53569819252118" lon="6.7039233556313915"><ele>302.4</ele><time>2026-04-03T15:00:47Z</time></trkpt><trkpt lat="43.53572758065945" lon="6.704041435089622"><ele>302.0</ele><time>2026-04-03T15:00:48Z</time></trkpt><trkpt lat="43.53576167083212" lon="6.704151487225959"><ele>302.0</ele><time>2026-04-03T15:00:49Z</time></trkpt><trkpt lat="43.53579725430142" lon="6.704266806505183"><ele>302.0</ele><time>2026-04-03T15:00:50Z</time></trkpt><trkpt lat="43.53584373698511" lon="6.704382444806875"><ele>302.0</ele><time>2026-04-03T15:00:51Z</time></trkpt><trkpt lat="43.53589171418443" lon="6.70448645978752"><ele>302.0</ele><time>2026-04-03T15:00:52Z</time></trkpt><trkpt lat="43.535943157593685" lon="6.704582775741518"><ele>302.0</ele><time>2026-04-03T15:00:53Z</time></trkpt><trkpt lat="43.536014446320394" lon="6.704682619043008"><ele>302.0</ele><time>2026-04-03T15:00:54Z</time></trkpt><trkpt lat="43.53609458065726" lon="6.704772834776612"><ele>302.0</ele><time>2026-04-03T15:00:55Z</time></trkpt><trkpt lat="43.53616842359758" lon="6.704858530194568"><ele>302.0</ele><time>2026-04-03T15:00:56Z</time></trkpt><trkpt lat="43.536228912755206" lon="6.704937914516763"><ele>302.0</ele><time>2026-04-03T15:00:57Z</time></trkpt><trkpt lat="43.53628882041367" lon="6.705008429026593"><ele>302.0</ele><time>2026-04-03T15:00:58Z</time></trkpt><trkpt lat="43.536358445755354" lon="6.705095794299937"><ele>302.0</ele><time>2026-04-03T15:00:59Z</time></trkpt><trkpt lat="43.536455000096524" lon="6.705220187184798"><ele>302.0</ele><time>2026-04-03T15:01:00Z</time></trkpt><trkpt lat="43.53653652022149" lon="6.7053323108302285"><ele>302.0</ele><time>2026-04-03T15:01:01Z</time></trkpt><trkpt lat="43.53662324135573" lon="6.7054439131374926"><ele>302.0</ele><time>2026-04-03T15:01:02Z</time></trkpt><trkpt lat="43.53671720274109" lon="6.705567674743013"><ele>302.4</ele><time>2026-04-03T15:01:03Z</time></trkpt><trkpt lat="43.536803984325715" lon="6.705667188137293"><ele>302.79999999999995</ele><time>2026-04-03T15:01:04Z</time></trkpt><trkpt lat="43.53689134378623" lon="6.705744779513335"><ele>303.2</ele><time>2026-04-03T15:01:05Z</time></trkpt><trkpt lat="43.53698965491261" lon="6.705818165705382"><ele>303.59999999999997</ele><time>2026-04-03T15:01:06Z</time></trkpt><trkpt lat="43.537095008777925" lon="6.705883995955805"><ele>304.0</ele><time>2026-04-03T15:01:07Z</time></trkpt><trkpt lat="43.53720277087055" lon="6.7059355465657475"><ele>303.2</ele><time>2026-04-03T15:01:08Z</time></trkpt><trkpt lat="43.53729733825662" lon="6.705961050352037"><ele>302.4</ele><time>2026-04-03T15:01:09Z</time></trkpt><trkpt lat="43.53739007092531" lon="6.705983790103381"><ele>301.6</ele><time>2026-04-03T15:01:10Z</time></trkpt><trkpt lat="43.53748712168686" lon="6.706028214065172"><ele>300.8</ele><time>2026-04-03T15:01:11Z</time></trkpt><trkpt lat="43.53757761402064" lon="6.706082885030769"><ele>300.0</ele><time>2026-04-03T15:01:12Z</time></trkpt><trkpt lat="43.53766560432217" lon="6.706154136695062"><ele>300.25</ele><time>2026-04-03T15:01:13Z</time></trkpt><trkpt lat="43.53775977419593" lon="6.7062622165874615"><ele>300.5</ele><time>2026-04-03T15:01:14Z</time></trkpt><trkpt lat="43.53785271747968" lon="6.706406174277999"><ele>300.75</ele><time>2026-04-03T15:01:15Z</time></trkpt><trkpt lat="43.537937860691734" lon="6.706523085901416"><ele>301.0</ele><time>2026-04-03T15:01:16Z</time></trkpt><trkpt lat="43.53800638413048" lon="6.706626201470927"><ele>301.0</ele><time>2026-04-03T15:01:17Z</time></trkpt><trkpt lat="43.53806773994988" lon="6.706745571239435"><ele>301.0</ele><time>2026-04-03T15:01:18Z</time></trkpt><trkpt lat="43.538123960395374" lon="6.7068918301318465"><ele>301.0</ele><time>2026-04-03T15:01:19Z</time></trkpt><trkpt lat="43.53816569584626" lon="6.7070454669662"><ele>301.0</ele><time>2026-04-03T15:01:20Z</time></trkpt><trkpt lat="43.53819963226531" lon="6.707191729590632"><ele>301.6</ele><time>2026-04-03T15:01:20.999Z</time></trkpt><trkpt lat="43.538226694939475" lon="6.7073336683781095"><ele>302.20000000000005</ele><time>2026-04-03T15:01:21.999Z</time></trkpt><trkpt lat="43.538239161568924" lon="6.707474430821872"><ele>302.79999999999995</ele><time>2026-04-03T15:01:22.999Z</time></trkpt><trkpt lat="43.538242417247076" lon="6.707614079249562"><ele>303.4</ele><time>2026-04-03T15:01:23.999Z</time></trkpt><trkpt lat="43.53823360530481" lon="6.707715949968759"><ele>304.0</ele><time>2026-04-03T15:01:24.999Z</time></trkpt><trkpt lat="43.53824155304913" lon="6.7078146360460185"><ele>304.0</ele><time>2026-04-03T15:01:25.999Z</time></trkpt><trkpt lat="43.538234092366075" lon="6.707964677767269"><ele>304.0</ele><time>2026-04-03T15:01:27.999Z</time></trkpt><trkpt lat="43.5382288439198" lon="6.708101136967121"><ele>304.0</ele><time>2026-04-03T15:01:29.999Z</time></trkpt><trkpt lat="43.538221769549345" lon="6.708248471936895"><ele>304.0</ele><time>2026-04-03T15:01:31.999Z</time></trkpt><trkpt lat="43.53821213838982" lon="6.708430384603473"><ele>304.0</ele><time>2026-04-03T15:01:33.999Z</time></trkpt><trkpt lat="43.53820077086116" lon="6.708525053288244"><ele>303.8</ele><time>2026-04-03T15:01:34.999Z</time></trkpt><trkpt lat="43.53820035738523" lon="6.708647632261097"><ele>303.59999999999997</ele><time>2026-04-03T15:01:35.999Z</time></trkpt><trkpt lat="43.53821628658754" lon="6.708777477841146"><ele>303.4</ele><time>2026-04-03T15:01:36.999Z</time></trkpt><trkpt lat="43.53825475116069" lon="6.708887820960629"><ele>303.2</ele><time>2026-04-03T15:01:37.999Z</time></trkpt><trkpt lat="43.53831045427391" lon="6.708983117093223"><ele>303.0</ele><time>2026-04-03T15:01:38.999Z</time></trkpt><trkpt lat="43.53838526392918" lon="6.709066821600489"><ele>303.0</ele><time>2026-04-03T15:01:39.999Z</time></trkpt><trkpt lat="43.53846144469671" lon="6.709133998316528"><ele>303.0</ele><time>2026-04-03T15:01:40.999Z</time></trkpt><trkpt lat="43.53852715472706" lon="6.709194770300543"><ele>303.0</ele><time>2026-04-03T15:01:41.999Z</time></trkpt><trkpt lat="43.53859482057198" lon="6.709253428519905"><ele>303.0</ele><time>2026-04-03T15:01:42.999Z</time></trkpt><trkpt lat="43.53866215228948" lon="6.709313769348808"><ele>303.0</ele><time>2026-04-03T15:01:43.999Z</time></trkpt><trkpt lat="43.53872993827001" lon="6.709377215113253"><ele>303.0</ele><time>2026-04-03T15:01:44.999Z</time></trkpt><trkpt lat="43.53879106133728" lon="6.70943926993545"><ele>304.0</ele><time>2026-04-03T15:01:45.999Z</time></trkpt><trkpt lat="43.53884665204731" lon="6.7094932830419705"><ele>305.0</ele><time>2026-04-03T15:01:46.999Z</time></trkpt><trkpt lat="43.538909419546904" lon="6.709548014037371"><ele>306.0</ele><time>2026-04-03T15:01:47.999Z</time></trkpt><trkpt lat="43.53897550956486" lon="6.709608632265316"><ele>307.0</ele><time>2026-04-03T15:01:48.999Z</time></trkpt><trkpt lat="43.53904118189104" lon="6.7096790085167495"><ele>308.0</ele><time>2026-04-03T15:01:49.999Z</time></trkpt><trkpt lat="43.53910800514345" lon="6.709750925890757"><ele>309.0</ele><time>2026-04-03T15:01:50.999Z</time></trkpt><trkpt lat="43.53919327003629" lon="6.709830639057569"><ele>309.0</ele><time>2026-04-03T15:01:51.999Z</time></trkpt><trkpt lat="43.53927767261498" lon="6.709907947753249"><ele>309.0</ele><time>2026-04-03T15:01:53Z</time></trkpt><trkpt lat="43.539364627928535" lon="6.709997430021216"><ele>309.0</ele><time>2026-04-03T15:01:54Z</time></trkpt><trkpt lat="43.53945626724415" lon="6.71008698446094"><ele>309.0</ele><time>2026-04-03T15:01:55Z</time></trkpt><trkpt lat="43.539554035207885" lon="6.710183406641671"><ele>309.0</ele><time>2026-04-03T15:01:56Z</time></trkpt><trkpt lat="43.539661606248266" lon="6.710284882542361"><ele>309.25</ele><time>2026-04-03T15:01:57Z</time></trkpt><trkpt lat="43.53977984164067" lon="6.710392635285906"><ele>309.5</ele><time>2026-04-03T15:01:58Z</time></trkpt><trkpt lat="43.53989544977811" lon="6.710504792138384"><ele>309.75</ele><time>2026-04-03T15:01:59Z</time></trkpt><trkpt lat="43.54000190584326" lon="6.710608289277774"><ele>310.0</ele><time>2026-04-03T15:02:00Z</time></trkpt><trkpt lat="43.540097970240865" lon="6.710694764762927"><ele>310.0</ele><time>2026-04-03T15:02:01Z</time></trkpt><trkpt lat="43.54017092936959" lon="6.710844634784078"><ele>310.0</ele><time>2026-04-03T15:02:02Z</time></trkpt><trkpt lat="43.54023538793448" lon="6.71102907439785"><ele>310.0</ele><time>2026-04-03T15:02:03Z</time></trkpt><trkpt lat="43.540280652513" lon="6.711233156482431"><ele>310.0</ele><time>2026-04-03T15:02:04Z</time></trkpt><trkpt lat="43.54029990051747" lon="6.711450864293336"><ele>310.66666666666663</ele><time>2026-04-03T15:02:05Z</time></trkpt><trkpt lat="43.540297538803856" lon="6.711736473269589"><ele>311.3333333333333</ele><time>2026-04-03T15:02:06Z</time></trkpt><trkpt lat="43.5403087194866" lon="6.712013168871691"><ele>312.0</ele><time>2026-04-03T15:02:07Z</time></trkpt><trkpt lat="43.54030857368781" lon="6.7122722583809455"><ele>312.0</ele><time>2026-04-03T15:02:08Z</time></trkpt><trkpt lat="43.54030727549336" lon="6.712451550449998"><ele>312.0</ele><time>2026-04-03T15:02:09Z</time></trkpt><trkpt lat="43.540306518731185" lon="6.712644862810378"><ele>312.0</ele><time>2026-04-03T15:02:10Z</time></trkpt><trkpt lat="43.54030575327276" lon="6.7128178640601215"><ele>312.0</ele><time>2026-04-03T15:02:11Z</time></trkpt><trkpt lat="43.54031286421066" lon="6.712981969769198"><ele>311.8333333333333</ele><time>2026-04-03T15:02:12Z</time></trkpt><trkpt lat="43.54033057116004" lon="6.713104100438169"><ele>311.6666666666667</ele><time>2026-04-03T15:02:13Z</time></trkpt><trkpt lat="43.540355339452105" lon="6.713188895292672"><ele>311.5</ele><time>2026-04-03T15:02:14Z</time></trkpt><trkpt lat="43.54039320552404" lon="6.713266630158254"><ele>311.33333333333337</ele><time>2026-04-03T15:02:15Z</time></trkpt><trkpt lat="43.54045832698872" lon="6.713356025987354"><ele>311.1666666666667</ele><time>2026-04-03T15:02:16Z</time></trkpt><trkpt lat="43.5405758151791" lon="6.713347279861009"><ele>311.0</ele><time>2026-04-03T15:02:17Z</time></trkpt><trkpt lat="43.54069485154605" lon="6.713298405116204"><ele>307.33333333333337</ele><time>2026-04-03T15:02:18Z</time></trkpt><trkpt lat="43.54079682366274" lon="6.713198123544098"><ele>303.6666666666667</ele><time>2026-04-03T15:02:19Z</time></trkpt><trkpt lat="43.54082578856963" lon="6.712937554534382"><ele>300.0</ele><time>2026-04-03T15:02:20Z</time></trkpt><trkpt lat="43.54089034777527" lon="6.712649422175226"><ele>299.6666666666667</ele><time>2026-04-03T15:02:21Z</time></trkpt><trkpt lat="43.54095026710873" lon="6.712375561320829"><ele>299.33333333333337</ele><time>2026-04-03T15:02:22Z</time></trkpt><trkpt lat="43.54099372813929" lon="6.712176922717025"><ele>299.0</ele><time>2026-04-03T15:02:23Z</time></trkpt><trkpt lat="43.54102043751918" lon="6.71200124631865"><ele>298.25</ele><time>2026-04-03T15:02:24Z</time></trkpt><trkpt lat="43.5410558773692" lon="6.711818638050994"><ele>297.5</ele><time>2026-04-03T15:02:25Z</time></trkpt><trkpt lat="43.541109457525636" lon="6.711657684855519"><ele>296.75</ele><time>2026-04-03T15:02:26Z</time></trkpt><trkpt lat="43.54114930494204" lon="6.711453677667561"><ele>296.0</ele><time>2026-04-03T15:02:27Z</time></trkpt><trkpt lat="43.54122989320664" lon="6.7112864942214285"><ele>297.25</ele><time>2026-04-03T15:02:28Z</time></trkpt><trkpt lat="43.54127111235305" lon="6.711112355013514"><ele>298.5</ele><time>2026-04-03T15:02:29Z</time></trkpt><trkpt lat="43.54131381625747" lon="6.710949675311115"><ele>299.75</ele><time>2026-04-03T15:02:30Z</time></trkpt><trkpt lat="43.541302802252794" lon="6.710760405968036"><ele>301.0</ele><time>2026-04-03T15:02:31Z</time></trkpt><trkpt lat="43.541273895076046" lon="6.710557299195806"><ele>301.0</ele><time>2026-04-03T15:02:32Z</time></trkpt><trkpt lat="43.54123979618674" lon="6.710391410210327"><ele>301.0</ele><time>2026-04-03T15:02:33Z</time></trkpt><trkpt lat="43.54122262987605" lon="6.710232093109879"><ele>301.0</ele><time>2026-04-03T15:02:34Z</time></trkpt><trkpt lat="43.541240588538805" lon="6.710062041675019"><ele>301.0</ele><time>2026-04-03T15:02:35Z</time></trkpt><trkpt lat="43.54128281453656" lon="6.709887429470318"><ele>301.25</ele><time>2026-04-03T15:02:36Z</time></trkpt><trkpt lat="43.54133137118784" lon="6.709706837496304"><ele>301.5</ele><time>2026-04-03T15:02:37Z</time></trkpt><trkpt lat="43.541396471474194" lon="6.709530840117469"><ele>301.75</ele><time>2026-04-03T15:02:38Z</time></trkpt><trkpt lat="43.541476818326394" lon="6.7093608585453"><ele>302.0</ele><time>2026-04-03T15:02:39Z</time></trkpt><trkpt lat="43.541542807015475" lon="6.7091818571810515"><ele>302.0</ele><time>2026-04-03T15:02:40Z</time></trkpt><trkpt lat="43.54160501415985" lon="6.709012282356852"><ele>302.0</ele><time>2026-04-03T15:02:41Z</time></trkpt><trkpt lat="43.54166718801715" lon="6.708850281253112"><ele>302.0</ele><time>2026-04-03T15:02:42Z</time></trkpt><trkpt lat="43.54173562811156" lon="6.708700067447891"><ele>302.0</ele><time>2026-04-03T15:02:43Z</time></trkpt><trkpt lat="43.54180005874877" lon="6.708559891443235"><ele>302.0</ele><time>2026-04-03T15:02:44Z</time></trkpt><trkpt lat="43.541899770395766" lon="6.708477051913264"><ele>302.0</ele><time>2026-04-03T15:02:45Z</time></trkpt><trkpt lat="43.54203376754003" lon="6.708434127166331"><ele>302.0</ele><time>2026-04-03T15:02:46Z</time></trkpt><trkpt lat="43.54218641037129" lon="6.708432606200118"><ele>302.0</ele><time>2026-04-03T15:02:47Z</time></trkpt><trkpt lat="43.54233970549593" lon="6.708424126060785"><ele>302.0</ele><time>2026-04-03T15:02:48Z</time></trkpt><trkpt lat="43.54247592471662" lon="6.708372236276885"><ele>302.0</ele><time>2026-04-03T15:02:49Z</time></trkpt><trkpt lat="43.54260318645063" lon="6.708339760755325"><ele>302.0</ele><time>2026-04-03T15:02:50Z</time></trkpt><trkpt lat="43.54271716874019" lon="6.7083407085899545"><ele>302.0</ele><time>2026-04-03T15:02:51Z</time></trkpt><trkpt lat="43.542825344210684" lon="6.70834437737211"><ele>302.0</ele><time>2026-04-03T15:02:52Z</time></trkpt><trkpt lat="43.54292059446175" lon="6.708358400870016"><ele>302.0</ele><time>2026-04-03T15:02:53Z</time></trkpt><trkpt lat="43.54302538053262" lon="6.708357614481385"><ele>302.0</ele><time>2026-04-03T15:02:54Z</time></trkpt><trkpt lat="43.54316685995537" lon="6.708396843349928"><ele>302.0</ele><time>2026-04-03T15:02:55Z</time></trkpt><trkpt lat="43.543350163663014" lon="6.708442095943494"><ele>302.0</ele><time>2026-04-03T15:02:56Z</time></trkpt><trkpt lat="43.543528678925" lon="6.708476469620878"><ele>302.0</ele><time>2026-04-03T15:02:57Z</time></trkpt><trkpt lat="43.54368544733043" lon="6.708506560098992"><ele>302.0</ele><time>2026-04-03T15:02:58Z</time></trkpt><trkpt lat="43.54382786397576" lon="6.708537141247255"><ele>304.25</ele><time>2026-04-03T15:02:59Z</time></trkpt><trkpt lat="43.543947427259134" lon="6.7086158259787965"><ele>306.5</ele><time>2026-04-03T15:03:00Z</time></trkpt><trkpt lat="43.54405458499015" lon="6.708722172535343"><ele>308.75</ele><time>2026-04-03T15:03:01Z</time></trkpt><trkpt lat="43.544167231199424" lon="6.7088626192889125"><ele>311.0</ele><time>2026-04-03T15:03:02Z</time></trkpt><trkpt lat="43.544279675860075" lon="6.708993118903946"><ele>311.0</ele><time>2026-04-03T15:03:03Z</time></trkpt><trkpt lat="43.54437948289519" lon="6.709114926070012"><ele>311.0</ele><time>2026-04-03T15:03:04Z</time></trkpt><trkpt lat="43.544499833632685" lon="6.709190356647004"><ele>311.0</ele><time>2026-04-03T15:03:05Z</time></trkpt><trkpt lat="43.54464821448355" lon="6.709175051838927"><ele>311.0</ele><time>2026-04-03T15:03:06Z</time></trkpt><trkpt lat="43.54480962190347" lon="6.709081974589144"><ele>312.0</ele><time>2026-04-03T15:03:07Z</time></trkpt><trkpt lat="43.54496665686494" lon="6.709003948381194"><ele>313.0</ele><time>2026-04-03T15:03:08Z</time></trkpt><trkpt lat="43.545093408929574" lon="6.708952907842952"><ele>314.0</ele><time>2026-04-03T15:03:09Z</time></trkpt><trkpt lat="43.5452065603777" lon="6.708911736724044"><ele>315.0</ele><time>2026-04-03T15:03:10Z</time></trkpt><trkpt lat="43.545292974448536" lon="6.708865881806464"><ele>315.0</ele><time>2026-04-03T15:03:11Z</time></trkpt><trkpt lat="43.54534574603808" lon="6.708788628188545"><ele>315.0</ele><time>2026-04-03T15:03:12Z</time></trkpt><trkpt lat="43.54537789042195" lon="6.70863495543771"><ele>315.0</ele><time>2026-04-03T15:03:13Z</time></trkpt><trkpt lat="43.54535816842457" lon="6.708452538352399"><ele>315.0</ele><time>2026-04-03T15:03:14Z</time></trkpt><trkpt lat="43.54528142518846" lon="6.708299477370329"><ele>316.0</ele><time>2026-04-03T15:03:15Z</time></trkpt><trkpt lat="43.545283750370714" lon="6.708127954889792"><ele>317.0</ele><time>2026-04-03T15:03:16Z</time></trkpt><trkpt lat="43.54532107019782" lon="6.708005046272744"><ele>318.0</ele><time>2026-04-03T15:03:17Z</time></trkpt><trkpt lat="43.54539470126878" lon="6.7079163998390285"><ele>319.0</ele><time>2026-04-03T15:03:18Z</time></trkpt><trkpt lat="43.54551024688531" lon="6.707885042355204"><ele>320.0</ele><time>2026-04-03T15:03:19Z</time></trkpt><trkpt lat="43.545629993137155" lon="6.707821674802872"><ele>320.0</ele><time>2026-04-03T15:03:20Z</time></trkpt><trkpt lat="43.54576658096115" lon="6.7077729634649"><ele>320.0</ele><time>2026-04-03T15:03:21Z</time></trkpt><trkpt lat="43.545893079973524" lon="6.707723817193186"><ele>320.0</ele><time>2026-04-03T15:03:22Z</time></trkpt><trkpt lat="43.54600400867931" lon="6.707654755123127"><ele>320.0</ele><time>2026-04-03T15:03:23Z</time></trkpt><trkpt lat="43.54610620246499" lon="6.707568129778764"><ele>319.4</ele><time>2026-04-03T15:03:24Z</time></trkpt><trkpt lat="43.54620344764001" lon="6.707466449863183"><ele>318.8</ele><time>2026-04-03T15:03:25Z</time></trkpt><trkpt lat="43.5462854115826" lon="6.707352035264129"><ele>318.2</ele><time>2026-04-03T15:03:26Z</time></trkpt><trkpt lat="43.54632701013972" lon="6.707219316034915"><ele>317.6</ele><time>2026-04-03T15:03:26.999Z</time></trkpt><trkpt lat="43.546299987569824" lon="6.707087692693915"><ele>317.0</ele><time>2026-04-03T15:03:27.999Z</time></trkpt><trkpt lat="43.54625374657333" lon="6.706963148482662"><ele>318.0</ele><time>2026-04-03T15:03:28.999Z</time></trkpt><trkpt lat="43.54613383964909" lon="6.706878524950272"><ele>319.0</ele><time>2026-04-03T15:03:29.999Z</time></trkpt><trkpt lat="43.5460268623245" lon="6.706782821346478"><ele>320.0</ele><time>2026-04-03T15:03:30.999Z</time></trkpt><trkpt lat="43.54593961723537" lon="6.706688836117741"><ele>321.0</ele><time>2026-04-03T15:03:31.999Z</time></trkpt><trkpt lat="43.54587372913115" lon="6.706570017544709"><ele>321.0</ele><time>2026-04-03T15:03:32.999Z</time></trkpt><trkpt lat="43.54584815459325" lon="6.706426917285073"><ele>321.0</ele><time>2026-04-03T15:03:33.999Z</time></trkpt><trkpt lat="43.54584271199201" lon="6.706300455679262"><ele>321.0</ele><time>2026-04-03T15:03:34.999Z</time></trkpt><trkpt lat="43.54583551319804" lon="6.706145004554142"><ele>321.0</ele><time>2026-04-03T15:03:35.999Z</time></trkpt><trkpt lat="43.545832019703994" lon="6.7060071157695"><ele>321.0</ele><time>2026-04-03T15:03:36.999Z</time></trkpt><trkpt lat="43.54583972246444" lon="6.705866964902496"><ele>322.75</ele><time>2026-04-03T15:03:37.999Z</time></trkpt><trkpt lat="43.545859785309446" lon="6.70570677306057"><ele>324.5</ele><time>2026-04-03T15:03:38.999Z</time></trkpt><trkpt lat="43.545906229938716" lon="6.705564915987034"><ele>326.25</ele><time>2026-04-03T15:03:39.999Z</time></trkpt><trkpt lat="43.545971728266785" lon="6.705421239877689"><ele>328.0</ele><time>2026-04-03T15:03:40.999Z</time></trkpt><trkpt lat="43.54606003671648" lon="6.705273566914758"><ele>327.3333333333333</ele><time>2026-04-03T15:03:41.999Z</time></trkpt><trkpt lat="43.5461785065609" lon="6.70516824715761"><ele>326.6666666666667</ele><time>2026-04-03T15:03:42.999Z</time></trkpt><trkpt lat="43.54632147841449" lon="6.705064006377936"><ele>326.0</ele><time>2026-04-03T15:03:43.999Z</time></trkpt><trkpt lat="43.546464161122124" lon="6.704973631360524"><ele>328.6666666666667</ele><time>2026-04-03T15:03:44.999Z</time></trkpt><trkpt lat="43.546598414226736" lon="6.70486681732373"><ele>331.3333333333333</ele><time>2026-04-03T15:03:45.999Z</time></trkpt><trkpt lat="43.5467394802172" lon="6.70478679955921"><ele>334.0</ele><time>2026-04-03T15:03:46.999Z</time></trkpt><trkpt lat="43.54687972514035" lon="6.704727516534633"><ele>334.0</ele><time>2026-04-03T15:03:47.999Z</time></trkpt><trkpt lat="43.54701217076571" lon="6.70465220121536"><ele>334.0</ele><time>2026-04-03T15:03:48.999Z</time></trkpt><trkpt lat="43.547144777386286" lon="6.704576794175131"><ele>334.0</ele><time>2026-04-03T15:03:49.999Z</time></trkpt><trkpt lat="43.54726810922587" lon="6.704482253799162"><ele>334.0</ele><time>2026-04-03T15:03:50.999Z</time></trkpt><trkpt lat="43.547398231146474" lon="6.704413624326866"><ele>334.5</ele><time>2026-04-03T15:03:51.999Z</time></trkpt><trkpt lat="43.54752990429405" lon="6.704341500833341"><ele>335.0</ele><time>2026-04-03T15:03:52.999Z</time></trkpt><trkpt lat="43.54766165099311" lon="6.704292602370714"><ele>335.5</ele><time>2026-04-03T15:03:53.999Z</time></trkpt><trkpt lat="43.54779584321874" lon="6.7042550948249655"><ele>336.0</ele><time>2026-04-03T15:03:54.999Z</time></trkpt><trkpt lat="43.54796199425997" lon="6.704250191201516"><ele>337.0</ele><time>2026-04-03T15:03:55.999Z</time></trkpt><trkpt lat="43.548127775061175" lon="6.704255078180873"><ele>338.0</ele><time>2026-04-03T15:03:56.999Z</time></trkpt><trkpt lat="43.5482805784908" lon="6.704240153471797"><ele>339.0</ele><time>2026-04-03T15:03:57.999Z</time></trkpt><trkpt lat="43.548409548931076" lon="6.704247114657755"><ele>340.0</ele><time>2026-04-03T15:03:59Z</time></trkpt><trkpt lat="43.54852665478185" lon="6.704249257170213"><ele>340.0</ele><time>2026-04-03T15:04:00Z</time></trkpt><trkpt lat="43.548646184523825" lon="6.704204427458319"><ele>340.0</ele><time>2026-04-03T15:04:01Z</time></trkpt><trkpt lat="43.54875749096268" lon="6.704101185182963"><ele>340.0</ele><time>2026-04-03T15:04:02Z</time></trkpt><trkpt lat="43.54885532992591" lon="6.703928817829573"><ele>340.0</ele><time>2026-04-03T15:04:03Z</time></trkpt><trkpt lat="43.548950962306265" lon="6.703725123381172"><ele>336.0</ele><time>2026-04-03T15:04:04Z</time></trkpt><trkpt lat="43.54903443861312" lon="6.7035143026141855"><ele>332.0</ele><time>2026-04-03T15:04:05Z</time></trkpt><trkpt lat="43.5490961997355" lon="6.703274527549097"><ele>328.0</ele><time>2026-04-03T15:04:06Z</time></trkpt><trkpt lat="43.54913579632725" lon="6.703030981736166"><ele>328.0</ele><time>2026-04-03T15:04:07Z</time></trkpt><trkpt lat="43.54917213015317" lon="6.702805283885632"><ele>328.0</ele><time>2026-04-03T15:04:08Z</time></trkpt><trkpt lat="43.5491900273393" lon="6.702594596191563"><ele>328.0</ele><time>2026-04-03T15:04:09Z</time></trkpt><trkpt lat="43.54923757401822" lon="6.702394808058503"><ele>330.66666666666663</ele><time>2026-04-03T15:04:10Z</time></trkpt><trkpt lat="43.54932138773775" lon="6.702204450465919"><ele>333.3333333333333</ele><time>2026-04-03T15:04:11Z</time></trkpt><trkpt lat="43.54942029431286" lon="6.702030840590502"><ele>336.0</ele><time>2026-04-03T15:04:12Z</time></trkpt><trkpt lat="43.54952542044531" lon="6.7018544240266404"><ele>329.0</ele><time>2026-04-03T15:04:13Z</time></trkpt><trkpt lat="43.54963180751753" lon="6.701676890332672"><ele>322.0</ele><time>2026-04-03T15:04:14Z</time></trkpt><trkpt lat="43.54969491591003" lon="6.701440137183769"><ele>315.0</ele><time>2026-04-03T15:04:15Z</time></trkpt><trkpt lat="43.549723001313964" lon="6.701222838898264"><ele>315.0</ele><time>2026-04-03T15:04:16Z</time></trkpt><trkpt lat="43.54973370501936" lon="6.70098232018614"><ele>315.0</ele><time>2026-04-03T15:04:17Z</time></trkpt><trkpt lat="43.54973732985184" lon="6.700746969397388"><ele>315.0</ele><time>2026-04-03T15:04:18Z</time></trkpt><trkpt lat="43.54973621758632" lon="6.700522111182921"><ele>315.0</ele><time>2026-04-03T15:04:19Z</time></trkpt><trkpt lat="43.549780852512484" lon="6.70032829014859"><ele>315.0</ele><time>2026-04-03T15:04:20Z</time></trkpt><trkpt lat="43.54984181900736" lon="6.700122591856205"><ele>315.0</ele><time>2026-04-03T15:04:20.999Z</time></trkpt><trkpt lat="43.5499019637542" lon="6.699904910851805"><ele>314.0</ele><time>2026-04-03T15:04:21.999Z</time></trkpt><trkpt lat="43.54995354916374" lon="6.69969281899353"><ele>313.0</ele><time>2026-04-03T15:04:22.999Z</time></trkpt><trkpt lat="43.55000205825055" lon="6.699495135135224"><ele>312.0</ele><time>2026-04-03T15:04:23.999Z</time></trkpt><trkpt lat="43.550048816067495" lon="6.699307029693518"><ele>311.75</ele><time>2026-04-03T15:04:24.999Z</time></trkpt><trkpt lat="43.5500856900551" lon="6.699124606372226"><ele>311.5</ele><time>2026-04-03T15:04:25.999Z</time></trkpt><trkpt lat="43.550139008429326" lon="6.698975329676048"><ele>311.25</ele><time>2026-04-03T15:04:26.999Z</time></trkpt><trkpt lat="43.55022548216835" lon="6.698848816306309"><ele>311.0</ele><time>2026-04-03T15:04:27.999Z</time></trkpt><trkpt lat="43.55033641641524" lon="6.698726076796335"><ele>307.33333333333337</ele><time>2026-04-03T15:04:28.999Z</time></trkpt><trkpt lat="43.550478166685686" lon="6.698609483533481"><ele>303.6666666666667</ele><time>2026-04-03T15:04:29.999Z</time></trkpt><trkpt lat="43.5506743097971" lon="6.698601523321354"><ele>300.0</ele><time>2026-04-03T15:04:30.999Z</time></trkpt><trkpt lat="43.550877419712236" lon="6.698643900761102"><ele>300.0</ele><time>2026-04-03T15:04:31.999Z</time></trkpt><trkpt lat="43.551049667777264" lon="6.698789826718512"><ele>300.0</ele><time>2026-04-03T15:04:32.999Z</time></trkpt><trkpt lat="43.55121693165881" lon="6.6989451186024445"><ele>300.0</ele><time>2026-04-03T15:04:33.999Z</time></trkpt><trkpt lat="43.55135150302369" lon="6.699126199405579"><ele>301.0</ele><time>2026-04-03T15:04:34.999Z</time></trkpt><trkpt lat="43.551498668181644" lon="6.6992501249727905"><ele>302.0</ele><time>2026-04-03T15:04:35.999Z</time></trkpt><trkpt lat="43.55163095129509" lon="6.699392793643452"><ele>303.0</ele><time>2026-04-03T15:04:36.999Z</time></trkpt><trkpt lat="43.55174608019376" lon="6.699553598828199"><ele>303.0</ele><time>2026-04-03T15:04:37.999Z</time></trkpt><trkpt lat="43.5518275543944" lon="6.699792758303123"><ele>303.0</ele><time>2026-04-03T15:04:38.999Z</time></trkpt><trkpt lat="43.551883915606574" lon="6.70002643351457"><ele>303.0</ele><time>2026-04-03T15:04:39.999Z</time></trkpt><trkpt lat="43.55190231630127" lon="6.7002345275918005"><ele>301.5</ele><time>2026-04-03T15:04:40.999Z</time></trkpt><trkpt lat="43.551912368394476" lon="6.700416267551525"><ele>300.0</ele><time>2026-04-03T15:04:41.999Z</time></trkpt><trkpt lat="43.55193445013311" lon="6.700600551197217"><ele>298.5</ele><time>2026-04-03T15:04:42.999Z</time></trkpt><trkpt lat="43.55198026127101" lon="6.700798204627356"><ele>297.0</ele><time>2026-04-03T15:04:43.999Z</time></trkpt><trkpt lat="43.55205918113958" lon="6.700993444616513"><ele>301.0</ele><time>2026-04-03T15:04:44.999Z</time></trkpt><trkpt lat="43.552171734061375" lon="6.701157926533587"><ele>305.0</ele><time>2026-04-03T15:04:45.999Z</time></trkpt><trkpt lat="43.55231421891246" lon="6.701289901453752"><ele>309.0</ele><time>2026-04-03T15:04:46.999Z</time></trkpt><trkpt lat="43.55246412772621" lon="6.701389181566144"><ele>309.0</ele><time>2026-04-03T15:04:47.999Z</time></trkpt><trkpt lat="43.55263801667473" lon="6.701463287527003"><ele>309.0</ele><time>2026-04-03T15:04:48.998Z</time></trkpt><trkpt lat="43.552810304024696" lon="6.701529273028856"><ele>309.0</ele><time>2026-04-03T15:04:49.998Z</time></trkpt><trkpt lat="43.552971650464144" lon="6.701577753406586"><ele>312.3333333333333</ele><time>2026-04-03T15:04:50.998Z</time></trkpt><trkpt lat="43.55312839224613" lon="6.701571270519008"><ele>315.66666666666663</ele><time>2026-04-03T15:04:51.998Z</time></trkpt><trkpt lat="43.55328225034161" lon="6.701568390315449"><ele>319.0</ele><time>2026-04-03T15:04:52.998Z</time></trkpt><trkpt lat="43.55344514353077" lon="6.701616789282686"><ele>319.0</ele><time>2026-04-03T15:04:53.998Z</time></trkpt><trkpt lat="43.553616002187184" lon="6.701731956379429"><ele>319.0</ele><time>2026-04-03T15:04:54.998Z</time></trkpt><trkpt lat="43.553753261244246" lon="6.7018922910275025"><ele>319.0</ele><time>2026-04-03T15:04:55.998Z</time></trkpt><trkpt lat="43.553867587127264" lon="6.702053540433314"><ele>320.75</ele><time>2026-04-03T15:04:56.998Z</time></trkpt><trkpt lat="43.55396818024289" lon="6.702157597219873"><ele>322.5</ele><time>2026-04-03T15:04:57.998Z</time></trkpt><trkpt lat="43.55405361740867" lon="6.702276157561722"><ele>324.25</ele><time>2026-04-03T15:04:58.998Z</time></trkpt><trkpt lat="43.55413382807037" lon="6.702431237741816"><ele>326.0</ele><time>2026-04-03T15:04:59.998Z</time></trkpt><trkpt lat="43.55424181664055" lon="6.702572247720717"><ele>326.0</ele><time>2026-04-03T15:05:00.998Z</time></trkpt><trkpt lat="43.554380127800776" lon="6.702682389766901"><ele>326.0</ele><time>2026-04-03T15:05:01.998Z</time></trkpt><trkpt lat="43.55453997352731" lon="6.702757109477697"><ele>326.0</ele><time>2026-04-03T15:05:02.998Z</time></trkpt><trkpt lat="43.5547183040776" lon="6.702772696990521"><ele>327.6666666666667</ele><time>2026-04-03T15:05:03.998Z</time></trkpt><trkpt lat="43.554908532944644" lon="6.702720024612453"><ele>329.3333333333333</ele><time>2026-04-03T15:05:04.998Z</time></trkpt><trkpt lat="43.55508891964076" lon="6.7026149984182375"><ele>331.0</ele><time>2026-04-03T15:05:05.998Z</time></trkpt><trkpt lat="43.5552388597618" lon="6.702508114934916"><ele>332.0</ele><time>2026-04-03T15:05:06.998Z</time></trkpt><trkpt lat="43.55537662492344" lon="6.702410013922721"><ele>333.0</ele><time>2026-04-03T15:05:07.998Z</time></trkpt><trkpt lat="43.555523443145574" lon="6.702318648621678"><ele>334.0</ele><time>2026-04-03T15:05:08.998Z</time></trkpt><trkpt lat="43.55567346877691" lon="6.702233380320074"><ele>334.0</ele><time>2026-04-03T15:05:09.998Z</time></trkpt><trkpt lat="43.55581868287206" lon="6.702144569991392"><ele>334.0</ele><time>2026-04-03T15:05:10.998Z</time></trkpt><trkpt lat="43.55595912424714" lon="6.702053271001963"><ele>334.0</ele><time>2026-04-03T15:05:11.998Z</time></trkpt><trkpt lat="43.55609497552292" lon="6.701971127965516"><ele>334.5</ele><time>2026-04-03T15:05:12.998Z</time></trkpt><trkpt lat="43.55623091644047" lon="6.701890159048929"><ele>335.0</ele><time>2026-04-03T15:05:13.998Z</time></trkpt><trkpt lat="43.55636541873888" lon="6.701817161038043"><ele>335.5</ele><time>2026-04-03T15:05:14.998Z</time></trkpt><trkpt lat="43.55650187827125" lon="6.701751368265326"><ele>336.0</ele><time>2026-04-03T15:05:15.998Z</time></trkpt><trkpt lat="43.55663547596742" lon="6.701698750977763"><ele>336.0</ele><time>2026-04-03T15:05:16.998Z</time></trkpt><trkpt lat="43.556765134111544" lon="6.701636186196428"><ele>336.0</ele><time>2026-04-03T15:05:17.998Z</time></trkpt><trkpt lat="43.556894377864914" lon="6.701574223941799"><ele>336.0</ele><time>2026-04-03T15:05:18.998Z</time></trkpt><trkpt lat="43.55702335016992" lon="6.701502095143548"><ele>336.0</ele><time>2026-04-03T15:05:19.998Z</time></trkpt><trkpt lat="43.55714851992602" lon="6.701424217316671"><ele>335.75</ele><time>2026-04-03T15:05:20.998Z</time></trkpt><trkpt lat="43.55726756492695" lon="6.701339930129863"><ele>335.5</ele><time>2026-04-03T15:05:21.998Z</time></trkpt><trkpt lat="43.557384528964434" lon="6.701247737223593"><ele>335.25</ele><time>2026-04-03T15:05:22.998Z</time></trkpt><trkpt lat="43.55750904385061" lon="6.701148858347549"><ele>335.0</ele><time>2026-04-03T15:05:23.998Z</time></trkpt><trkpt lat="43.557639391532724" lon="6.701048795817594"><ele>335.0</ele><time>2026-04-03T15:05:24.998Z</time></trkpt><trkpt lat="43.557779967367054" lon="6.700955986628279"><ele>335.0</ele><time>2026-04-03T15:05:25.998Z</time></trkpt><trkpt lat="43.55792442240158" lon="6.700874156446927"><ele>335.0</ele><time>2026-04-03T15:05:26.998Z</time></trkpt><trkpt lat="43.558072643454366" lon="6.700793656357261"><ele>334.0</ele><time>2026-04-03T15:05:27.998Z</time></trkpt><trkpt lat="43.558244228906375" lon="6.700696215354781"><ele>333.0</ele><time>2026-04-03T15:05:28.998Z</time></trkpt><trkpt lat="43.55846118646634" lon="6.70056779260061"><ele>332.0</ele><time>2026-04-03T15:05:29.998Z</time></trkpt><trkpt lat="43.55871858608179" lon="6.7004214435190566"><ele>329.5</ele><time>2026-04-03T15:05:30.998Z</time></trkpt><trkpt lat="43.558968425799655" lon="6.700285383194689"><ele>327.0</ele><time>2026-04-03T15:05:31.998Z</time></trkpt><trkpt lat="43.55918657474044" lon="6.700159302531226"><ele>327.0</ele><time>2026-04-03T15:05:32.998Z</time></trkpt><trkpt lat="43.55938739116881" lon="6.700045359552122"><ele>327.0</ele><time>2026-04-03T15:05:33.998Z</time></trkpt><trkpt lat="43.559578726474854" lon="6.6999350324957945"><ele>327.0</ele><time>2026-04-03T15:05:34.998Z</time></trkpt><trkpt lat="43.55975909218947" lon="6.6998366105267735"><ele>325.3333333333333</ele><time>2026-04-03T15:05:35.998Z</time></trkpt><trkpt lat="43.55993194324475" lon="6.699747837009375"><ele>323.66666666666663</ele><time>2026-04-03T15:05:36.998Z</time></trkpt><trkpt lat="43.56009133782823" lon="6.699659377351112"><ele>322.0</ele><time>2026-04-03T15:05:37.998Z</time></trkpt><trkpt lat="43.560238893365096" lon="6.699568889495682"><ele>321.0</ele><time>2026-04-03T15:05:38.998Z</time></trkpt><trkpt lat="43.56039161413598" lon="6.699479206649061"><ele>320.0</ele><time>2026-04-03T15:05:39.998Z</time></trkpt><trkpt lat="43.560554700292364" lon="6.699386672418563"><ele>319.0</ele><time>2026-04-03T15:05:40.998Z</time></trkpt><trkpt lat="43.56072577739225" lon="6.699295424756158"><ele>319.0</ele><time>2026-04-03T15:05:41.998Z</time></trkpt><trkpt lat="43.560890258613966" lon="6.699205440771512"><ele>319.0</ele><time>2026-04-03T15:05:42.998Z</time></trkpt><trkpt lat="43.5610442706644" lon="6.699119939236192"><ele>319.0</ele><time>2026-04-03T15:05:43.998Z</time></trkpt><trkpt lat="43.561191462467455" lon="6.6990378331398395"><ele>319.0</ele><time>2026-04-03T15:05:44.998Z</time></trkpt><trkpt lat="43.561336768126544" lon="6.698954497439791"><ele>319.0</ele><time>2026-04-03T15:05:45.998Z</time></trkpt><trkpt lat="43.56147415202486" lon="6.6988672234265145"><ele>319.0</ele><time>2026-04-03T15:05:46.998Z</time></trkpt><trkpt lat="43.56160710992394" lon="6.698768445442868"><ele>319.0</ele><time>2026-04-03T15:05:47.998Z</time></trkpt><trkpt lat="43.561724568314474" lon="6.698652739406579"><ele>319.0</ele><time>2026-04-03T15:05:48.998Z</time></trkpt><trkpt lat="43.56181999530173" lon="6.698521927161823"><ele>319.0</ele><time>2026-04-03T15:05:49.998Z</time></trkpt><trkpt lat="43.561898663067524" lon="6.69836320225583"><ele>319.0</ele><time>2026-04-03T15:05:50.998Z</time></trkpt><trkpt lat="43.561972679584926" lon="6.6981863844420975"><ele>320.0</ele><time>2026-04-03T15:05:51.998Z</time></trkpt><trkpt lat="43.56204257836505" lon="6.697988068185082"><ele>321.0</ele><time>2026-04-03T15:05:52.998Z</time></trkpt><trkpt lat="43.56210386514748" lon="6.697777914765827"><ele>322.0</ele><time>2026-04-03T15:05:53.998Z</time></trkpt><trkpt lat="43.562175637218246" lon="6.697559491872394"><ele>322.3333333333333</ele><time>2026-04-03T15:05:54.998Z</time></trkpt><trkpt lat="43.56225225811186" lon="6.6973395727049025"><ele>322.6666666666667</ele><time>2026-04-03T15:05:55.998Z</time></trkpt><trkpt lat="43.56233298888385" lon="6.697116363003567"><ele>323.0</ele><time>2026-04-03T15:05:56.998Z</time></trkpt><trkpt lat="43.56241478382011" lon="6.696885427432761"><ele>323.33333333333337</ele><time>2026-04-03T15:05:57.998Z</time></trkpt><trkpt lat="43.562494817566936" lon="6.696648604617543"><ele>323.6666666666667</ele><time>2026-04-03T15:05:58.998Z</time></trkpt><trkpt lat="43.562565250858846" lon="6.696419980615212"><ele>324.0</ele><time>2026-04-03T15:05:59.998Z</time></trkpt><trkpt lat="43.56262062437202" lon="6.696203309993289"><ele>323.3333333333333</ele><time>2026-04-03T15:06:00.998Z</time></trkpt><trkpt lat="43.5626616040659" lon="6.6959941469879265"><ele>322.66666666666663</ele><time>2026-04-03T15:06:01.998Z</time></trkpt><trkpt lat="43.56269129557731" lon="6.695775461803121"><ele>322.0</ele><time>2026-04-03T15:06:02.998Z</time></trkpt><trkpt lat="43.56271639775092" lon="6.695560112686948"><ele>322.0</ele><time>2026-04-03T15:06:03.998Z</time></trkpt><trkpt lat="43.56275796250602" lon="6.695351091006956"><ele>322.0</ele><time>2026-04-03T15:06:04.999Z</time></trkpt><trkpt lat="43.56277292259114" lon="6.695150883608345"><ele>322.0</ele><time>2026-04-03T15:06:05.999Z</time></trkpt><trkpt lat="43.562814300929666" lon="6.694964571826513"><ele>322.0</ele><time>2026-04-03T15:06:06.999Z</time></trkpt><trkpt lat="43.56285408541987" lon="6.694792064398578"><ele>323.5</ele><time>2026-04-03T15:06:07.999Z</time></trkpt><trkpt lat="43.56290118016402" lon="6.694621202711318"><ele>325.0</ele><time>2026-04-03T15:06:08.999Z</time></trkpt><trkpt lat="43.56295632821095" lon="6.694460070711937"><ele>326.5</ele><time>2026-04-03T15:06:09.999Z</time></trkpt><trkpt lat="43.563003736513934" lon="6.694311725759865"><ele>328.0</ele><time>2026-04-03T15:06:10.999Z</time></trkpt><trkpt lat="43.56303955087089" lon="6.694197150491577"><ele>328.0</ele><time>2026-04-03T15:06:11.999Z</time></trkpt><trkpt lat="43.56307233336727" lon="6.694093171168845"><ele>328.0</ele><time>2026-04-03T15:06:12.999Z</time></trkpt><trkpt lat="43.563114210961224" lon="6.693954057762356"><ele>328.0</ele><time>2026-04-03T15:06:13.999Z</time></trkpt><trkpt lat="43.56316702749217" lon="6.693774284689757"><ele>328.0</ele><time>2026-04-03T15:06:14.999Z</time></trkpt><trkpt lat="43.56320373373667" lon="6.693656561461283"><ele>328.0</ele><time>2026-04-03T15:06:15.999Z</time></trkpt><trkpt lat="43.56323672769387" lon="6.693548028089745"><ele>325.25</ele><time>2026-04-03T15:06:16.999Z</time></trkpt><trkpt lat="43.56330318068174" lon="6.693398672497942"><ele>322.5</ele><time>2026-04-03T15:06:18Z</time></trkpt><trkpt lat="43.56336056583227" lon="6.693242322281855"><ele>319.75</ele><time>2026-04-03T15:06:19Z</time></trkpt><trkpt lat="43.56346156784316" lon="6.693136193438876"><ele>317.0</ele><time>2026-04-03T15:06:20Z</time></trkpt><trkpt lat="43.56356227655129" lon="6.693010626106805"><ele>317.0</ele><time>2026-04-03T15:06:21Z</time></trkpt><trkpt lat="43.56368940904425" lon="6.692926000661528"><ele>317.0</ele><time>2026-04-03T15:06:22Z</time></trkpt><trkpt lat="43.56382749080381" lon="6.692918947884915"><ele>317.0</ele><time>2026-04-03T15:06:23Z</time></trkpt><trkpt lat="43.56396224367765" lon="6.692879014790071"><ele>317.0</ele><time>2026-04-03T15:06:24Z</time></trkpt><trkpt lat="43.564098597510394" lon="6.692849834778089"><ele>318.0</ele><time>2026-04-03T15:06:25Z</time></trkpt><trkpt lat="43.56423328113529" lon="6.6927985862327315"><ele>319.0</ele><time>2026-04-03T15:06:26Z</time></trkpt><trkpt lat="43.5643611637677" lon="6.6927101730699885"><ele>320.0</ele><time>2026-04-03T15:06:27Z</time></trkpt><trkpt lat="43.56448368464532" lon="6.692580864206984"><ele>321.0</ele><time>2026-04-03T15:06:28Z</time></trkpt><trkpt lat="43.56460915598575" lon="6.6924723295015935"><ele>321.0</ele><time>2026-04-03T15:06:29Z</time></trkpt><trkpt lat="43.56471497158143" lon="6.692333667617587"><ele>321.0</ele><time>2026-04-03T15:06:30Z</time></trkpt><trkpt lat="43.56480846430506" lon="6.692224760628176"><ele>321.0</ele><time>2026-04-03T15:06:31Z</time></trkpt><trkpt lat="43.564895129615465" lon="6.692131842792877"><ele>321.0</ele><time>2026-04-03T15:06:32Z</time></trkpt><trkpt lat="43.56498228604524" lon="6.69205936213383"><ele>321.0</ele><time>2026-04-03T15:06:33Z</time></trkpt><trkpt lat="43.565067342473554" lon="6.692001236087729"><ele>321.0</ele><time>2026-04-03T15:06:34Z</time></trkpt><trkpt lat="43.56518200197717" lon="6.691973206243903"><ele>321.0</ele><time>2026-04-03T15:06:35Z</time></trkpt><trkpt lat="43.56533304930406" lon="6.691982577170879"><ele>321.0</ele><time>2026-04-03T15:06:36Z</time></trkpt><trkpt lat="43.56550815916656" lon="6.692000289773474"><ele>322.5</ele><time>2026-04-03T15:06:37Z</time></trkpt><trkpt lat="43.56565936422955" lon="6.692004671235045"><ele>324.0</ele><time>2026-04-03T15:06:38Z</time></trkpt><trkpt lat="43.56578284607812" lon="6.692012502331694"><ele>325.5</ele><time>2026-04-03T15:06:39Z</time></trkpt><trkpt lat="43.5659026935815" lon="6.692037387061899"><ele>327.0</ele><time>2026-04-03T15:06:40Z</time></trkpt><trkpt lat="43.566012134349535" lon="6.692106253166981"><ele>327.0</ele><time>2026-04-03T15:06:41Z</time></trkpt><trkpt lat="43.56609602863069" lon="6.692199019828778"><ele>327.0</ele><time>2026-04-03T15:06:42Z</time></trkpt><trkpt lat="43.566166558182154" lon="6.692302719047012"><ele>327.0</ele><time>2026-04-03T15:06:43Z</time></trkpt><trkpt lat="43.566234183631245" lon="6.692382932707208"><ele>327.0</ele><time>2026-04-03T15:06:44Z</time></trkpt><trkpt lat="43.56631417277291" lon="6.692426574202738"><ele>327.0</ele><time>2026-04-03T15:06:45Z</time></trkpt><trkpt lat="43.56639226234573" lon="6.692435471174905"><ele>326.6666666666667</ele><time>2026-04-03T15:06:46Z</time></trkpt><trkpt lat="43.566456909153004" lon="6.692426445289495"><ele>326.3333333333333</ele><time>2026-04-03T15:06:47Z</time></trkpt><trkpt lat="43.56654830111362" lon="6.692380249770949"><ele>326.0</ele><time>2026-04-03T15:06:49Z</time></trkpt><trkpt lat="43.566620079545224" lon="6.692318474364147"><ele>325.66666666666663</ele><time>2026-04-03T15:06:51Z</time></trkpt><trkpt lat="43.56671333206953" lon="6.692246409714336"><ele>325.3333333333333</ele><time>2026-04-03T15:06:53Z</time></trkpt><trkpt lat="43.566765788764634" lon="6.6921970154244095"><ele>325.0</ele><time>2026-04-03T15:06:55Z</time></trkpt><trkpt lat="43.566820334529545" lon="6.692136252162849"><ele>325.0</ele><time>2026-04-03T15:07:04Z</time></trkpt><trkpt lat="43.566887850214634" lon="6.692087242850941"><ele>325.0</ele><time>2026-04-03T15:07:06Z</time></trkpt><trkpt lat="43.566966830692564" lon="6.692056374277314"><ele>325.0</ele><time>2026-04-03T15:07:08Z</time></trkpt><trkpt lat="43.56704301990586" lon="6.692019769933949"><ele>325.0</ele><time>2026-04-03T15:07:10Z</time></trkpt><trkpt lat="43.56710797775951" lon="6.691966554026314"><ele>325.0</ele><time>2026-04-03T15:07:12Z</time></trkpt><trkpt lat="43.56716709366772" lon="6.691932884245836"><ele>325.0</ele><time>2026-04-03T15:07:15Z</time></trkpt><trkpt lat="43.56726179167618" lon="6.691977896431182"><ele>324.2</ele><time>2026-04-03T15:07:20Z</time></trkpt><trkpt lat="43.567281439549916" lon="6.6921280908207414"><ele>323.4</ele><time>2026-04-03T15:07:22Z</time></trkpt><trkpt lat="43.567303057467775" lon="6.692213672021375"><ele>322.6</ele><time>2026-04-03T15:07:23Z</time></trkpt><trkpt lat="43.56734310757163" lon="6.6923498412603895"><ele>321.8</ele><time>2026-04-03T15:07:25Z</time></trkpt><trkpt lat="43.56738930811952" lon="6.692495534372344"><ele>321.0</ele><time>2026-04-03T15:07:27Z</time></trkpt><trkpt lat="43.567446390728165" lon="6.692623569866257"><ele>321.8333333333333</ele><time>2026-04-03T15:07:29Z</time></trkpt><trkpt lat="43.5675060745175" lon="6.692770205720002"><ele>322.6666666666667</ele><time>2026-04-03T15:07:31Z</time></trkpt><trkpt lat="43.56754788768287" lon="6.692863601289551"><ele>323.5</ele><time>2026-04-03T15:07:32Z</time></trkpt><trkpt lat="43.56758485523513" lon="6.692942533646486"><ele>324.33333333333337</ele><time>2026-04-03T15:07:33Z</time></trkpt><trkpt lat="43.56761972982817" lon="6.693056972252587"><ele>325.1666666666667</ele><time>2026-04-03T15:07:35Z</time></trkpt><trkpt lat="43.56765158483083" lon="6.693138961569096"><ele>326.0</ele><time>2026-04-03T15:07:36Z</time></trkpt><trkpt lat="43.567681080704105" lon="6.69323284706071"><ele>326.0</ele><time>2026-04-03T15:07:37Z</time></trkpt><trkpt lat="43.567702992569146" lon="6.693336557030701"><ele>326.0</ele><time>2026-04-03T15:07:38Z</time></trkpt><trkpt lat="43.56771846677667" lon="6.693423653547301"><ele>326.0</ele><time>2026-04-03T15:07:39Z</time></trkpt><trkpt lat="43.56774146295416" lon="6.693564198150938"><ele>326.0</ele><time>2026-04-03T15:07:41Z</time></trkpt><trkpt lat="43.567773686243484" lon="6.693747003885211"><ele>326.0</ele><time>2026-04-03T15:07:43Z</time></trkpt><trkpt lat="43.567817769147986" lon="6.6938452332849945"><ele>326.5</ele><time>2026-04-03T15:07:44Z</time></trkpt><trkpt lat="43.567840503406394" lon="6.693941373717011"><ele>327.0</ele><time>2026-04-03T15:07:45Z</time></trkpt><trkpt lat="43.567860528941495" lon="6.694057832567614"><ele>327.5</ele><time>2026-04-03T15:07:46Z</time></trkpt><trkpt lat="43.567886884543775" lon="6.694156025505725"><ele>328.0</ele><time>2026-04-03T15:07:47Z</time></trkpt><trkpt lat="43.56792803646779" lon="6.694245313244432"><ele>328.5</ele><time>2026-04-03T15:07:48Z</time></trkpt><trkpt lat="43.56794969604798" lon="6.694334356616774"><ele>329.0</ele><time>2026-04-03T15:07:49Z</time></trkpt><trkpt lat="43.56798157024237" lon="6.694423160621767"><ele>327.5</ele><time>2026-04-03T15:07:50Z</time></trkpt><trkpt lat="43.56801344095044" lon="6.694533646830048"><ele>326.0</ele><time>2026-04-03T15:07:51Z</time></trkpt><trkpt lat="43.568058704555426" lon="6.694600079259477"><ele>324.5</ele><time>2026-04-03T15:07:52Z</time></trkpt><trkpt lat="43.56814714599907" lon="6.694724646063298"><ele>323.0</ele><time>2026-04-03T15:07:54Z</time></trkpt><trkpt lat="43.568215570957264" lon="6.694775360604159"><ele>321.5</ele><time>2026-04-03T15:07:55Z</time></trkpt><trkpt lat="43.56830172416566" lon="6.694804269555625"><ele>320.0</ele><time>2026-04-03T15:07:56Z</time></trkpt><trkpt lat="43.56837637328863" lon="6.694824828208339"><ele>320.0</ele><time>2026-04-03T15:07:56.999Z</time></trkpt><trkpt lat="43.568456603229734" lon="6.694900064290213"><ele>320.0</ele><time>2026-04-03T15:07:58.999Z</time></trkpt><trkpt lat="43.56836167215172" lon="6.694843701228484"><ele>320.0</ele><time>2026-04-03T15:08:44Z</time></trkpt><trkpt lat="43.568297996394264" lon="6.694795824893509"><ele>320.0</ele><time>2026-04-03T15:08:45Z</time></trkpt><trkpt lat="43.56822265535027" lon="6.694773563629741"><ele>320.0</ele><time>2026-04-03T15:08:46Z</time></trkpt><trkpt lat="43.568149858330116" lon="6.694735804612684"><ele>320.0</ele><time>2026-04-03T15:08:47Z</time></trkpt><trkpt lat="43.56808532401333" lon="6.694658868605067"><ele>320.0</ele><time>2026-04-03T15:08:48Z</time></trkpt><trkpt lat="43.56802906514552" lon="6.6945479884516175"><ele>320.0</ele><time>2026-04-03T15:08:49Z</time></trkpt><trkpt lat="43.567977580294595" lon="6.6944351546741085"><ele>320.0</ele><time>2026-04-03T15:08:50Z</time></trkpt><trkpt lat="43.56793609001956" lon="6.694302939873514"><ele>320.0</ele><time>2026-04-03T15:08:51Z</time></trkpt><trkpt lat="43.567889062964845" lon="6.6941386125022975"><ele>320.0</ele><time>2026-04-03T15:08:52Z</time></trkpt><trkpt lat="43.56784432404944" lon="6.693957518708416"><ele>321.2</ele><time>2026-04-03T15:08:53Z</time></trkpt><trkpt lat="43.56779905189973" lon="6.693790013968048"><ele>322.4</ele><time>2026-04-03T15:08:54Z</time></trkpt><trkpt lat="43.567769159738425" lon="6.693663330727704"><ele>323.6</ele><time>2026-04-03T15:08:55Z</time></trkpt><trkpt lat="43.5677485620033" lon="6.693535349013033"><ele>324.8</ele><time>2026-04-03T15:08:56Z</time></trkpt><trkpt lat="43.5677307337073" lon="6.69340232845993"><ele>326.0</ele><time>2026-04-03T15:08:57Z</time></trkpt><trkpt lat="43.56770689564173" lon="6.693281744501744"><ele>326.0</ele><time>2026-04-03T15:08:58Z</time></trkpt><trkpt lat="43.567679720932844" lon="6.693170289896232"><ele>326.0</ele><time>2026-04-03T15:08:59Z</time></trkpt><trkpt lat="43.56763966457724" lon="6.693060343462551"><ele>326.0</ele><time>2026-04-03T15:09:00Z</time></trkpt><trkpt lat="43.567595326486234" lon="6.692964871003697"><ele>326.0</ele><time>2026-04-03T15:09:01Z</time></trkpt><trkpt lat="43.567570753881164" lon="6.692854165130653"><ele>326.0</ele><time>2026-04-03T15:09:02Z</time></trkpt><trkpt lat="43.56753283067583" lon="6.69276559353709"><ele>326.0</ele><time>2026-04-03T15:09:03Z</time></trkpt><trkpt lat="43.567499505587875" lon="6.692687263569522"><ele>325.0</ele><time>2026-04-03T15:09:04Z</time></trkpt><trkpt lat="43.56746929613676" lon="6.69261030585563"><ele>324.0</ele><time>2026-04-03T15:09:05Z</time></trkpt><trkpt lat="43.56741777849873" lon="6.692473726774711"><ele>323.0</ele><time>2026-04-03T15:09:07Z</time></trkpt><trkpt lat="43.56738226341746" lon="6.692359508947324"><ele>322.0</ele><time>2026-04-03T15:09:09Z</time></trkpt><trkpt lat="43.567343383226785" lon="6.692229745119731"><ele>321.0</ele><time>2026-04-03T15:09:11Z</time></trkpt><trkpt lat="43.56731250260181" lon="6.692106943464757"><ele>321.0</ele><time>2026-04-03T15:09:13Z</time></trkpt><trkpt lat="43.56729099679773" lon="6.692000557586247"><ele>321.0</ele><time>2026-04-03T15:09:15Z</time></trkpt><trkpt lat="43.56741207226673" lon="6.692000159610678"><ele>321.0</ele><time>2026-04-03T15:09:21Z</time></trkpt><trkpt lat="43.56749921405063" lon="6.692077018964231"><ele>321.0</ele><time>2026-04-03T15:09:22Z</time></trkpt><trkpt lat="43.56755596251191" lon="6.692188370234499"><ele>321.0</ele><time>2026-04-03T15:09:23Z</time></trkpt><trkpt lat="43.56761715184199" lon="6.692281041294089"><ele>321.0</ele><time>2026-04-03T15:09:24Z</time></trkpt><trkpt lat="43.567683161458476" lon="6.692395046168787"><ele>321.0</ele><time>2026-04-03T15:09:25Z</time></trkpt><trkpt lat="43.5677835157106" lon="6.692535568202114"><ele>321.0</ele><time>2026-04-03T15:09:26Z</time></trkpt><trkpt lat="43.5678768744049" lon="6.692660873425764"><ele>321.0</ele><time>2026-04-03T15:09:27Z</time></trkpt><trkpt lat="43.56796235229432" lon="6.692756442841203"><ele>319.0</ele><time>2026-04-03T15:09:28Z</time></trkpt><trkpt lat="43.5680242007899" lon="6.692849464697808"><ele>317.0</ele><time>2026-04-03T15:09:29Z</time></trkpt><trkpt lat="43.56807450062571" lon="6.692954332528729"><ele>315.0</ele><time>2026-04-03T15:09:30Z</time></trkpt><trkpt lat="43.568107186771975" lon="6.693093992805299"><ele>313.0</ele><time>2026-04-03T15:09:31Z</time></trkpt><trkpt lat="43.568122237019736" lon="6.6932674212086685"><ele>311.0</ele><time>2026-04-03T15:09:32Z</time></trkpt><trkpt lat="43.5681425219062" lon="6.69343981281052"><ele>311.8</ele><time>2026-04-03T15:09:33Z</time></trkpt><trkpt lat="43.56818014781563" lon="6.693590322884302"><ele>312.6</ele><time>2026-04-03T15:09:34Z</time></trkpt><trkpt lat="43.568237569453395" lon="6.693705557854362"><ele>313.4</ele><time>2026-04-03T15:09:35Z</time></trkpt><trkpt lat="43.568313585981144" lon="6.693791047617323"><ele>314.2</ele><time>2026-04-03T15:09:36Z</time></trkpt><trkpt lat="43.56840611505866" lon="6.693823027935249"><ele>315.0</ele><time>2026-04-03T15:09:37Z</time></trkpt><trkpt lat="43.568515348206645" lon="6.693793754336321"><ele>315.0</ele><time>2026-04-03T15:09:38Z</time></trkpt><trkpt lat="43.56861459106787" lon="6.693700110181335"><ele>315.0</ele><time>2026-04-03T15:09:39Z</time></trkpt><trkpt lat="43.56868360109906" lon="6.693542836818493"><ele>315.0</ele><time>2026-04-03T15:09:40Z</time></trkpt><trkpt lat="43.5687296464212" lon="6.693339350952033"><ele>315.0</ele><time>2026-04-03T15:09:41Z</time></trkpt><trkpt lat="43.56877564957783" lon="6.693150904705835"><ele>314.5</ele><time>2026-04-03T15:09:42Z</time></trkpt><trkpt lat="43.568830783373514" lon="6.69298323265686"><ele>314.0</ele><time>2026-04-03T15:09:43Z</time></trkpt><trkpt lat="43.56889298079511" lon="6.692816061108291"><ele>313.5</ele><time>2026-04-03T15:09:44Z</time></trkpt><trkpt lat="43.56898063628019" lon="6.692674913438551"><ele>313.0</ele><time>2026-04-03T15:09:45Z</time></trkpt><trkpt lat="43.56908119985626" lon="6.692536565813635"><ele>310.3333333333333</ele><time>2026-04-03T15:09:46Z</time></trkpt><trkpt lat="43.56922495856018" lon="6.692337002384453"><ele>307.6666666666667</ele><time>2026-04-03T15:09:47Z</time></trkpt><trkpt lat="43.569351326120106" lon="6.692176007039037"><ele>305.0</ele><time>2026-04-03T15:09:48Z</time></trkpt><trkpt lat="43.56946552108505" lon="6.692029850535993"><ele>305.25</ele><time>2026-04-03T15:09:49Z</time></trkpt><trkpt lat="43.569571957283095" lon="6.691908600945348"><ele>305.5</ele><time>2026-04-03T15:09:50Z</time></trkpt><trkpt lat="43.56966613068559" lon="6.691812554662474"><ele>305.75</ele><time>2026-04-03T15:09:51Z</time></trkpt><trkpt lat="43.5697673276461" lon="6.691723483502457"><ele>306.0</ele><time>2026-04-03T15:09:52Z</time></trkpt><trkpt lat="43.569863111109214" lon="6.691603096418123"><ele>306.0</ele><time>2026-04-03T15:09:53Z</time></trkpt><trkpt lat="43.56993381808879" lon="6.691426201152235"><ele>306.0</ele><time>2026-04-03T15:09:54Z</time></trkpt><trkpt lat="43.56996904988684" lon="6.691216058911556"><ele>306.0</ele><time>2026-04-03T15:09:55Z</time></trkpt><trkpt lat="43.56999071477342" lon="6.6910153930727025"><ele>305.0</ele><time>2026-04-03T15:09:55.999Z</time></trkpt><trkpt lat="43.57003703433157" lon="6.6908637918636"><ele>304.0</ele><time>2026-04-03T15:09:56.999Z</time></trkpt><trkpt lat="43.57006020820056" lon="6.690750798733382"><ele>303.0</ele><time>2026-04-03T15:09:57.999Z</time></trkpt><trkpt lat="43.5700646237777" lon="6.690644372143621"><ele>302.0</ele><time>2026-04-03T15:09:58.999Z</time></trkpt><trkpt lat="43.570086837233426" lon="6.690528518818043"><ele>301.0</ele><time>2026-04-03T15:09:59.999Z</time></trkpt><trkpt lat="43.57011400134454" lon="6.690393488826814"><ele>299.75</ele><time>2026-04-03T15:10:00.999Z</time></trkpt><trkpt lat="43.5701583610227" lon="6.69024532257072"><ele>298.5</ele><time>2026-04-03T15:10:01.999Z</time></trkpt><trkpt lat="43.57018836360726" lon="6.690088578817472"><ele>297.25</ele><time>2026-04-03T15:10:02.999Z</time></trkpt><trkpt lat="43.570219498300645" lon="6.689926155389292"><ele>296.0</ele><time>2026-04-03T15:10:03.999Z</time></trkpt><trkpt lat="43.57023581383148" lon="6.689771728079725"><ele>296.0</ele><time>2026-04-03T15:10:04.999Z</time></trkpt><trkpt lat="43.57030038897082" lon="6.689621610385709"><ele>296.0</ele><time>2026-04-03T15:10:05.999Z</time></trkpt><trkpt lat="43.57036968383352" lon="6.689475502478103"><ele>296.0</ele><time>2026-04-03T15:10:06.999Z</time></trkpt><trkpt lat="43.57044834203035" lon="6.689346599430445"><ele>296.0</ele><time>2026-04-03T15:10:07.999Z</time></trkpt><trkpt lat="43.57051836117211" lon="6.689205404007214"><ele>297.0</ele><time>2026-04-03T15:10:08.999Z</time></trkpt><trkpt lat="43.570606442431085" lon="6.689077187215923"><ele>298.0</ele><time>2026-04-03T15:10:09.999Z</time></trkpt><trkpt lat="43.57069194459979" lon="6.688935089276686"><ele>299.0</ele><time>2026-04-03T15:10:10.999Z</time></trkpt><trkpt lat="43.57079419644737" lon="6.688812030966402"><ele>300.0</ele><time>2026-04-03T15:10:11.999Z</time></trkpt><trkpt lat="43.5708799508389" lon="6.68866513231529"><ele>299.25</ele><time>2026-04-03T15:10:12.999Z</time></trkpt><trkpt lat="43.57097992527002" lon="6.688550565334604"><ele>298.5</ele><time>2026-04-03T15:10:13.999Z</time></trkpt><trkpt lat="43.571080904296544" lon="6.688435585189018"><ele>297.75</ele><time>2026-04-03T15:10:15Z</time></trkpt><trkpt lat="43.57117848149923" lon="6.688330087500938"><ele>297.0</ele><time>2026-04-03T15:10:16Z</time></trkpt><trkpt lat="43.57127615250177" lon="6.688208849765278"><ele>297.0</ele><time>2026-04-03T15:10:17Z</time></trkpt><trkpt lat="43.57136641652084" lon="6.688072765474079"><ele>297.0</ele><time>2026-04-03T15:10:18.001Z</time></trkpt><trkpt lat="43.57145410992013" lon="6.687933061572801"><ele>297.0</ele><time>2026-04-03T15:10:19.001Z</time></trkpt><trkpt lat="43.57153118819613" lon="6.687810444318136"><ele>297.0</ele><time>2026-04-03T15:10:20.001Z</time></trkpt><trkpt lat="43.57159382694372" lon="6.687713843039937"><ele>296.0</ele><time>2026-04-03T15:10:21.001Z</time></trkpt><trkpt lat="43.57166208393037" lon="6.687620905844817"><ele>295.0</ele><time>2026-04-03T15:10:22.001Z</time></trkpt><trkpt lat="43.57172818943626" lon="6.687511503900172"><ele>294.0</ele><time>2026-04-03T15:10:23.001Z</time></trkpt><trkpt lat="43.57181929381279" lon="6.687387924095677"><ele>293.0</ele><time>2026-04-03T15:10:24.001Z</time></trkpt><trkpt lat="43.571928390727386" lon="6.68726689420482"><ele>292.25</ele><time>2026-04-03T15:10:25.001Z</time></trkpt><trkpt lat="43.572039464357005" lon="6.687168602036381"><ele>291.5</ele><time>2026-04-03T15:10:26Z</time></trkpt><trkpt lat="43.57214134764836" lon="6.687069172358429"><ele>290.75</ele><time>2026-04-03T15:10:27Z</time></trkpt><trkpt lat="43.57225019039468" lon="6.686954649198993"><ele>290.0</ele><time>2026-04-03T15:10:28Z</time></trkpt><trkpt lat="43.572361585346485" lon="6.686831653606938"><ele>290.0</ele><time>2026-04-03T15:10:29Z</time></trkpt><trkpt lat="43.572467297312755" lon="6.686695223025876"><ele>290.0</ele><time>2026-04-03T15:10:30Z</time></trkpt><trkpt lat="43.57256798664402" lon="6.686559469314392"><ele>290.0</ele><time>2026-04-03T15:10:31Z</time></trkpt><trkpt lat="43.57266583663505" lon="6.686426617106206"><ele>290.0</ele><time>2026-04-03T15:10:32Z</time></trkpt><trkpt lat="43.57275555916857" lon="6.686285933166538"><ele>290.0</ele><time>2026-04-03T15:10:33Z</time></trkpt><trkpt lat="43.572839093743525" lon="6.686145953528524"><ele>290.0</ele><time>2026-04-03T15:10:34Z</time></trkpt><trkpt lat="43.572923483834806" lon="6.68600313163333"><ele>290.0</ele><time>2026-04-03T15:10:35Z</time></trkpt><trkpt lat="43.57301049341012" lon="6.685860494161515"><ele>290.0</ele><time>2026-04-03T15:10:36Z</time></trkpt><trkpt lat="43.57312763726796" lon="6.685758811479694"><ele>286.33333333333337</ele><time>2026-04-03T15:10:37Z</time></trkpt><trkpt lat="43.57326081016133" lon="6.685661458308658"><ele>282.6666666666667</ele><time>2026-04-03T15:10:38Z</time></trkpt><trkpt lat="43.5734023812042" lon="6.685608459153164"><ele>279.0</ele><time>2026-04-03T15:10:39Z</time></trkpt><trkpt lat="43.573574832122915" lon="6.685603045680655"><ele>276.3333333333333</ele><time>2026-04-03T15:10:40Z</time></trkpt><trkpt lat="43.57378007548794" lon="6.685605708012214"><ele>273.66666666666663</ele><time>2026-04-03T15:10:41Z</time></trkpt><trkpt lat="43.57396670658031" lon="6.685636346773135"><ele>271.0</ele><time>2026-04-03T15:10:42Z</time></trkpt><trkpt lat="43.574139105275286" lon="6.6856488054416285"><ele>271.0</ele><time>2026-04-03T15:10:43Z</time></trkpt><trkpt lat="43.574318098235906" lon="6.6856350172999415"><ele>271.0</ele><time>2026-04-03T15:10:44Z</time></trkpt><trkpt lat="43.574486613466725" lon="6.685601599355696"><ele>271.0</ele><time>2026-04-03T15:10:45Z</time></trkpt><trkpt lat="43.57464053597591" lon="6.685553146639904"><ele>269.5</ele><time>2026-04-03T15:10:46Z</time></trkpt><trkpt lat="43.574787173422976" lon="6.685499255859053"><ele>268.0</ele><time>2026-04-03T15:10:47Z</time></trkpt><trkpt lat="43.57492372289554" lon="6.685441838299135"><ele>266.5</ele><time>2026-04-03T15:10:48Z</time></trkpt><trkpt lat="43.57506452782896" lon="6.685374031581786"><ele>265.0</ele><time>2026-04-03T15:10:49Z</time></trkpt><trkpt lat="43.57520997521486" lon="6.685276996653224"><ele>263.0</ele><time>2026-04-03T15:10:50Z</time></trkpt><trkpt lat="43.575361139181524" lon="6.685142488618496"><ele>261.0</ele><time>2026-04-03T15:10:51Z</time></trkpt><trkpt lat="43.57550358321604" lon="6.684988082817125"><ele>259.0</ele><time>2026-04-03T15:10:52Z</time></trkpt><trkpt lat="43.575630582456476" lon="6.684836271538829"><ele>259.0</ele><time>2026-04-03T15:10:53Z</time></trkpt><trkpt lat="43.575735633818454" lon="6.684688049775396"><ele>259.0</ele><time>2026-04-03T15:10:54Z</time></trkpt><trkpt lat="43.57582876344083" lon="6.684536919333874"><ele>259.0</ele><time>2026-04-03T15:10:55Z</time></trkpt><trkpt lat="43.57589464701703" lon="6.6843322641347385"><ele>260.0</ele><time>2026-04-03T15:10:56Z</time></trkpt><trkpt lat="43.57592045917781" lon="6.684080460169305"><ele>261.0</ele><time>2026-04-03T15:10:57Z</time></trkpt><trkpt lat="43.57594210821863" lon="6.683839789922949"><ele>262.0</ele><time>2026-04-03T15:10:58Z</time></trkpt><trkpt lat="43.57599802660836" lon="6.683634623925693"><ele>263.0</ele><time>2026-04-03T15:10:59Z</time></trkpt><trkpt lat="43.57607250740085" lon="6.683424256638103"><ele>264.0</ele><time>2026-04-03T15:11:00Z</time></trkpt><trkpt lat="43.576173184268306" lon="6.683238349789807"><ele>265.0</ele><time>2026-04-03T15:11:01Z</time></trkpt><trkpt lat="43.576306175967325" lon="6.683071271674006"><ele>260.0</ele><time>2026-04-03T15:11:02Z</time></trkpt><trkpt lat="43.57645384947873" lon="6.68289947957121"><ele>255.0</ele><time>2026-04-03T15:11:03Z</time></trkpt><trkpt lat="43.576595915954684" lon="6.682741394036638"><ele>250.0</ele><time>2026-04-03T15:11:04Z</time></trkpt><trkpt lat="43.57670805206032" lon="6.682554610678419"><ele>250.0</ele><time>2026-04-03T15:11:05Z</time></trkpt><trkpt lat="43.57681544845696" lon="6.682391142983735"><ele>250.0</ele><time>2026-04-03T15:11:06Z</time></trkpt><trkpt lat="43.57691908798593" lon="6.68220439919338"><ele>250.0</ele><time>2026-04-03T15:11:07Z</time></trkpt><trkpt lat="43.57703933969223" lon="6.68205124927836"><ele>248.0</ele><time>2026-04-03T15:11:08Z</time></trkpt><trkpt lat="43.57717473922965" lon="6.68192231937035"><ele>246.0</ele><time>2026-04-03T15:11:09Z</time></trkpt><trkpt lat="43.57731050290655" lon="6.681809042577786"><ele>244.0</ele><time>2026-04-03T15:11:10Z</time></trkpt><trkpt lat="43.57743614742434" lon="6.681703231729306"><ele>244.0</ele><time>2026-04-03T15:11:11Z</time></trkpt><trkpt lat="43.577544052732215" lon="6.68159161976129"><ele>244.0</ele><time>2026-04-03T15:11:12Z</time></trkpt><trkpt lat="43.5776509355372" lon="6.681508379158066"><ele>244.0</ele><time>2026-04-03T15:11:13Z</time></trkpt><trkpt lat="43.577748524691955" lon="6.681429804879941"><ele>244.0</ele><time>2026-04-03T15:11:14Z</time></trkpt><trkpt lat="43.577844959160196" lon="6.681366946270901"><ele>246.0</ele><time>2026-04-03T15:11:15Z</time></trkpt><trkpt lat="43.57794655518008" lon="6.681330019228567"><ele>248.0</ele><time>2026-04-03T15:11:16Z</time></trkpt><trkpt lat="43.57807769981192" lon="6.681350622512468"><ele>250.0</ele><time>2026-04-03T15:11:17Z</time></trkpt><trkpt lat="43.578235565429125" lon="6.681418468698508"><ele>252.0</ele><time>2026-04-03T15:11:18Z</time></trkpt><trkpt lat="43.57841192082674" lon="6.681490362686253"><ele>252.0</ele><time>2026-04-03T15:11:19Z</time></trkpt><trkpt lat="43.578618235262724" lon="6.681514498834768"><ele>252.0</ele><time>2026-04-03T15:11:20Z</time></trkpt><trkpt lat="43.57881514214133" lon="6.681497929167761"><ele>252.0</ele><time>2026-04-03T15:11:21Z</time></trkpt><trkpt lat="43.57898100628908" lon="6.681497678548887"><ele>253.33333333333331</ele><time>2026-04-03T15:11:22Z</time></trkpt><trkpt lat="43.57915090727023" lon="6.681506934005961"><ele>254.66666666666666</ele><time>2026-04-03T15:11:23Z</time></trkpt><trkpt lat="43.57932130357491" lon="6.68152025859069"><ele>256.0</ele><time>2026-04-03T15:11:24Z</time></trkpt><trkpt lat="43.579481133726595" lon="6.681545086698947"><ele>255.66666666666666</ele><time>2026-04-03T15:11:25Z</time></trkpt><trkpt lat="43.579652808497826" lon="6.681592394679475"><ele>255.33333333333331</ele><time>2026-04-03T15:11:26Z</time></trkpt><trkpt lat="43.57983806794645" lon="6.681651282055366"><ele>255.0</ele><time>2026-04-03T15:11:27Z</time></trkpt><trkpt lat="43.58004944097475" lon="6.6817186605005245"><ele>255.0</ele><time>2026-04-03T15:11:28Z</time></trkpt><trkpt lat="43.5802514939219" lon="6.681784679979237"><ele>255.0</ele><time>2026-04-03T15:11:29Z</time></trkpt><trkpt lat="43.58042169747256" lon="6.681840171712541"><ele>255.0</ele><time>2026-04-03T15:11:30Z</time></trkpt><trkpt lat="43.58057523575859" lon="6.681892875926955"><ele>258.25</ele><time>2026-04-03T15:11:31Z</time></trkpt><trkpt lat="43.58071416150889" lon="6.681941523551762"><ele>261.5</ele><time>2026-04-03T15:11:32Z</time></trkpt><trkpt lat="43.58084150656187" lon="6.681988094832635"><ele>264.75</ele><time>2026-04-03T15:11:33Z</time></trkpt><trkpt lat="43.58095408879485" lon="6.6820279379579"><ele>268.0</ele><time>2026-04-03T15:11:34Z</time></trkpt><trkpt lat="43.5810542010746" lon="6.6820653081783705"><ele>268.0</ele><time>2026-04-03T15:11:35Z</time></trkpt><trkpt lat="43.58115968700447" lon="6.682104294697359"><ele>268.0</ele><time>2026-04-03T15:11:36Z</time></trkpt><trkpt lat="43.581293498698145" lon="6.682174630986082"><ele>268.0</ele><time>2026-04-03T15:11:37Z</time></trkpt><trkpt lat="43.58144503935593" lon="6.682272432500923"><ele>268.0</ele><time>2026-04-03T15:11:38Z</time></trkpt><trkpt lat="43.5816208372841" lon="6.682405487803927"><ele>267.66666666666663</ele><time>2026-04-03T15:11:39Z</time></trkpt><trkpt lat="43.58180926207966" lon="6.682584949070277"><ele>267.3333333333333</ele><time>2026-04-03T15:11:40Z</time></trkpt><trkpt lat="43.58196651254389" lon="6.682770988495407"><ele>267.0</ele><time>2026-04-03T15:11:41Z</time></trkpt><trkpt lat="43.58209047176859" lon="6.682952842185588"><ele>267.0</ele><time>2026-04-03T15:11:42Z</time></trkpt><trkpt lat="43.58221624716497" lon="6.683162617683739"><ele>267.0</ele><time>2026-04-03T15:11:43Z</time></trkpt><trkpt lat="43.58234770309532" lon="6.683442854620891"><ele>267.0</ele><time>2026-04-03T15:11:44Z</time></trkpt><trkpt lat="43.5825146135815" lon="6.683736221994156"><ele>271.5</ele><time>2026-04-03T15:11:45Z</time></trkpt><trkpt lat="43.58265446776947" lon="6.684034323536216"><ele>276.0</ele><time>2026-04-03T15:11:46Z</time></trkpt><trkpt lat="43.58277954908956" lon="6.684285242851156"><ele>274.3333333333333</ele><time>2026-04-03T15:11:47Z</time></trkpt><trkpt lat="43.582891467970704" lon="6.6845058026471245"><ele>272.66666666666663</ele><time>2026-04-03T15:11:48Z</time></trkpt><trkpt lat="43.583005580488695" lon="6.684733911390103"><ele>271.0</ele><time>2026-04-03T15:11:49Z</time></trkpt><trkpt lat="43.583137732341726" lon="6.684975405055208"><ele>271.0</ele><time>2026-04-03T15:11:50Z</time></trkpt><trkpt lat="43.583307125220124" lon="6.685212094945307"><ele>271.0</ele><time>2026-04-03T15:11:51Z</time></trkpt><trkpt lat="43.583533023726794" lon="6.685406939722823"><ele>273.5</ele><time>2026-04-03T15:11:52Z</time></trkpt><trkpt lat="43.58380291413949" lon="6.6855472393932605"><ele>276.0</ele><time>2026-04-03T15:11:53Z</time></trkpt><trkpt lat="43.58404799406049" lon="6.685692151618068"><ele>276.0</ele><time>2026-04-03T15:11:54Z</time></trkpt><trkpt lat="43.58427799850302" lon="6.685842085891599"><ele>276.0</ele><time>2026-04-03T15:11:55Z</time></trkpt><trkpt lat="43.584530691654884" lon="6.686009529430466"><ele>278.5</ele><time>2026-04-03T15:11:56Z</time></trkpt><trkpt lat="43.58476441137268" lon="6.686167578520399"><ele>281.0</ele><time>2026-04-03T15:11:57Z</time></trkpt><trkpt lat="43.58496515333133" lon="6.68631473912322"><ele>281.0</ele><time>2026-04-03T15:11:58Z</time></trkpt><trkpt lat="43.58514700856548" lon="6.686448716714561"><ele>281.0</ele><time>2026-04-03T15:11:59Z</time></trkpt><trkpt lat="43.58531914825603" lon="6.686565594424959"><ele>281.0</ele><time>2026-04-03T15:12:00Z</time></trkpt><trkpt lat="43.585479179289926" lon="6.6866637703869145"><ele>281.0</ele><time>2026-04-03T15:12:01Z</time></trkpt><trkpt lat="43.58564158427146" lon="6.686731542156499"><ele>281.0</ele><time>2026-04-03T15:12:02Z</time></trkpt><trkpt lat="43.58580816218817" lon="6.68675386949051"><ele>281.0</ele><time>2026-04-03T15:12:03Z</time></trkpt><trkpt lat="43.58596951201911" lon="6.686744952337688"><ele>281.0</ele><time>2026-04-03T15:12:04Z</time></trkpt><trkpt lat="43.58613493325571" lon="6.686707057172877"><ele>281.0</ele><time>2026-04-03T15:12:05Z</time></trkpt><trkpt lat="43.58628113998445" lon="6.686642233914431"><ele>281.0</ele><time>2026-04-03T15:12:06Z</time></trkpt><trkpt lat="43.58640770819789" lon="6.68658857483734"><ele>281.5</ele><time>2026-04-03T15:12:07Z</time></trkpt><trkpt lat="43.58652582374056" lon="6.686548881952904"><ele>282.0</ele><time>2026-04-03T15:12:08Z</time></trkpt><trkpt lat="43.58663374591121" lon="6.686512667597668"><ele>282.5</ele><time>2026-04-03T15:12:09Z</time></trkpt><trkpt lat="43.586745146833046" lon="6.686477222013481"><ele>283.0</ele><time>2026-04-03T15:12:10Z</time></trkpt><trkpt lat="43.58686038561824" lon="6.686441711192947"><ele>283.0</ele><time>2026-04-03T15:12:11Z</time></trkpt><trkpt lat="43.5869774495199" lon="6.686406567268324"><ele>283.0</ele><time>2026-04-03T15:12:11.999Z</time></trkpt><trkpt lat="43.587093269420095" lon="6.686380698279919"><ele>283.0</ele><time>2026-04-03T15:12:12.999Z</time></trkpt><trkpt lat="43.58721138063823" lon="6.686369021447468"><ele>283.0</ele><time>2026-04-03T15:12:13.999Z</time></trkpt><trkpt lat="43.58732481031834" lon="6.68638735474219"><ele>283.25</ele><time>2026-04-03T15:12:14.999Z</time></trkpt><trkpt lat="43.58743543182689" lon="6.686446792477462"><ele>283.5</ele><time>2026-04-03T15:12:15.999Z</time></trkpt><trkpt lat="43.58751758919679" lon="6.686570299774704"><ele>283.75</ele><time>2026-04-03T15:12:16.999Z</time></trkpt><trkpt lat="43.58758930378394" lon="6.686713323446741"><ele>284.0</ele><time>2026-04-03T15:12:17.999Z</time></trkpt><trkpt lat="43.587657329196084" lon="6.686883179298471"><ele>283.0</ele><time>2026-04-03T15:12:18.999Z</time></trkpt><trkpt lat="43.58769456701396" lon="6.687093874213975"><ele>282.0</ele><time>2026-04-03T15:12:19.999Z</time></trkpt><trkpt lat="43.58773620054028" lon="6.68733827878964"><ele>281.0</ele><time>2026-04-03T15:12:21.001Z</time></trkpt><trkpt lat="43.58777343942038" lon="6.687568458546061"><ele>280.25</ele><time>2026-04-03T15:12:22.001Z</time></trkpt><trkpt lat="43.58780707803936" lon="6.687777480390932"><ele>279.5</ele><time>2026-04-03T15:12:23.001Z</time></trkpt><trkpt lat="43.58784062676221" lon="6.687973819969399"><ele>278.75</ele><time>2026-04-03T15:12:24.001Z</time></trkpt><trkpt lat="43.58787436783209" lon="6.6881569554889"><ele>278.0</ele><time>2026-04-03T15:12:25.001Z</time></trkpt><trkpt lat="43.58790691832956" lon="6.688331596594633"><ele>277.25</ele><time>2026-04-03T15:12:26.001Z</time></trkpt><trkpt lat="43.587939366765504" lon="6.688496697295011"><ele>276.5</ele><time>2026-04-03T15:12:27.001Z</time></trkpt><trkpt lat="43.58797396798299" lon="6.68865183852728"><ele>275.75</ele><time>2026-04-03T15:12:28.001Z</time></trkpt><trkpt lat="43.58801965927882" lon="6.688789706697032"><ele>275.0</ele><time>2026-04-03T15:12:29Z</time></trkpt><trkpt lat="43.58807303806257" lon="6.68893306477166"><ele>274.5</ele><time>2026-04-03T15:12:30.001Z</time></trkpt><trkpt lat="43.588135893364736" lon="6.68905789291287"><ele>274.0</ele><time>2026-04-03T15:12:31.001Z</time></trkpt><trkpt lat="43.58820974039735" lon="6.6891767460083384"><ele>273.5</ele><time>2026-04-03T15:12:32Z</time></trkpt><trkpt lat="43.588296049318814" lon="6.6892936586589755"><ele>273.0</ele><time>2026-04-03T15:12:33Z</time></trkpt><trkpt lat="43.588393643768235" lon="6.689394949590014"><ele>271.0</ele><time>2026-04-03T15:12:34.001Z</time></trkpt><trkpt lat="43.588498171838346" lon="6.689480693605408"><ele>269.0</ele><time>2026-04-03T15:12:35Z</time></trkpt><trkpt lat="43.58860372401417" lon="6.689543686303811"><ele>267.0</ele><time>2026-04-03T15:12:36Z</time></trkpt><trkpt lat="43.58871918194267" lon="6.689594372103982"><ele>265.0</ele><time>2026-04-03T15:12:37Z</time></trkpt><trkpt lat="43.58883685225276" lon="6.689638408698024"><ele>264.6</ele><time>2026-04-03T15:12:38Z</time></trkpt><trkpt lat="43.58895147383013" lon="6.689670492863806"><ele>264.2</ele><time>2026-04-03T15:12:39Z</time></trkpt><trkpt lat="43.58906102795428" lon="6.689709547005344"><ele>263.8</ele><time>2026-04-03T15:12:40Z</time></trkpt><trkpt lat="43.58916720760702" lon="6.689747036391779"><ele>263.4</ele><time>2026-04-03T15:12:41Z</time></trkpt><trkpt lat="43.5892707299031" lon="6.689787076913645"><ele>263.0</ele><time>2026-04-03T15:12:42Z</time></trkpt><trkpt lat="43.58937014069706" lon="6.689825681539704"><ele>263.0</ele><time>2026-04-03T15:12:43Z</time></trkpt><trkpt lat="43.589490305887765" lon="6.689745080683293"><ele>263.0</ele><time>2026-04-03T15:12:44Z</time></trkpt><trkpt lat="43.58959878425534" lon="6.689736757046667"><ele>263.0</ele><time>2026-04-03T15:12:45Z</time></trkpt><trkpt lat="43.589729111469175" lon="6.689703886325603"><ele>263.0</ele><time>2026-04-03T15:12:46Z</time></trkpt><trkpt lat="43.589902008144435" lon="6.689630604709416"><ele>262.25</ele><time>2026-04-03T15:12:47Z</time></trkpt><trkpt lat="43.59005243320895" lon="6.68956883234712"><ele>261.5</ele><time>2026-04-03T15:12:48Z</time></trkpt><trkpt lat="43.590190506912336" lon="6.689512271244138"><ele>260.75</ele><time>2026-04-03T15:12:49Z</time></trkpt><trkpt lat="43.590321633642105" lon="6.689459461662195"><ele>260.0</ele><time>2026-04-03T15:12:50Z</time></trkpt><trkpt lat="43.59044465006606" lon="6.689411694371647"><ele>258.5</ele><time>2026-04-03T15:12:51Z</time></trkpt><trkpt lat="43.59056533316184" lon="6.68937478122323"><ele>257.0</ele><time>2026-04-03T15:12:52Z</time></trkpt><trkpt lat="43.59070993389947" lon="6.689327784266592"><ele>255.5</ele><time>2026-04-03T15:12:53Z</time></trkpt><trkpt lat="43.59086961831465" lon="6.689327029019923"><ele>254.0</ele><time>2026-04-03T15:12:54Z</time></trkpt><trkpt lat="43.591032477295464" lon="6.6892976910654705"><ele>253.5</ele><time>2026-04-03T15:12:55Z</time></trkpt><trkpt lat="43.591183149158546" lon="6.689302673430625"><ele>253.0</ele><time>2026-04-03T15:12:56Z</time></trkpt><trkpt lat="43.59131991506534" lon="6.689309621262396"><ele>252.5</ele><time>2026-04-03T15:12:57Z</time></trkpt><trkpt lat="43.59144785722011" lon="6.689317208469992"><ele>252.0</ele><time>2026-04-03T15:12:58Z</time></trkpt><trkpt lat="43.59157430370303" lon="6.689333175144789"><ele>252.0</ele><time>2026-04-03T15:12:59Z</time></trkpt><trkpt lat="43.591707534124495" lon="6.689344598010477"><ele>252.0</ele><time>2026-04-03T15:13:00Z</time></trkpt><trkpt lat="43.59184000900152" lon="6.689361858398199"><ele>252.0</ele><time>2026-04-03T15:13:01Z</time></trkpt><trkpt lat="43.59197438907638" lon="6.689396196624086"><ele>252.0</ele><time>2026-04-03T15:13:02Z</time></trkpt><trkpt lat="43.592111994799815" lon="6.6894304850537525"><ele>252.75</ele><time>2026-04-03T15:13:03Z</time></trkpt><trkpt lat="43.5922480076721" lon="6.6894737248767795"><ele>253.5</ele><time>2026-04-03T15:13:04Z</time></trkpt><trkpt lat="43.59238593540392" lon="6.6895273572232306"><ele>254.25</ele><time>2026-04-03T15:13:05Z</time></trkpt><trkpt lat="43.592525226290945" lon="6.6895873600504565"><ele>255.0</ele><time>2026-04-03T15:13:06Z</time></trkpt><trkpt lat="43.59266394825773" lon="6.689659280599004"><ele>255.0</ele><time>2026-04-03T15:13:07Z</time></trkpt><trkpt lat="43.59278492524087" lon="6.689736008313294"><ele>255.0</ele><time>2026-04-03T15:13:08Z</time></trkpt><trkpt lat="43.59289517142088" lon="6.6898085529143785"><ele>255.0</ele><time>2026-04-03T15:13:09Z</time></trkpt><trkpt lat="43.59299679393732" lon="6.6898762040459605"><ele>255.0</ele><time>2026-04-03T15:13:10Z</time></trkpt><trkpt lat="43.59309064562494" lon="6.689947394497271"><ele>254.5</ele><time>2026-04-03T15:13:11Z</time></trkpt><trkpt lat="43.59317623472437" lon="6.69002559803282"><ele>254.0</ele><time>2026-04-03T15:13:12Z</time></trkpt><trkpt lat="43.59327488982156" lon="6.690099507289884"><ele>253.5</ele><time>2026-04-03T15:13:13Z</time></trkpt><trkpt lat="43.59340305133722" lon="6.6902063097140365"><ele>253.0</ele><time>2026-04-03T15:13:14Z</time></trkpt><trkpt lat="43.59355391486469" lon="6.690314227720899"><ele>251.66666666666666</ele><time>2026-04-03T15:13:15Z</time></trkpt><trkpt lat="43.59369494009959" lon="6.690435673031591"><ele>250.33333333333331</ele><time>2026-04-03T15:13:16Z</time></trkpt><trkpt lat="43.59382099952526" lon="6.690546900545579"><ele>249.0</ele><time>2026-04-03T15:13:17Z</time></trkpt><trkpt lat="43.59395635511372" lon="6.690656868253203"><ele>249.0</ele><time>2026-04-03T15:13:18Z</time></trkpt><trkpt lat="43.59409975680968" lon="6.690767794158958"><ele>249.0</ele><time>2026-04-03T15:13:19Z</time></trkpt><trkpt lat="43.59424413587401" lon="6.690863556392657"><ele>249.0</ele><time>2026-04-03T15:13:20Z</time></trkpt><trkpt lat="43.59438618263864" lon="6.690948110466897"><ele>249.0</ele><time>2026-04-03T15:13:21Z</time></trkpt><trkpt lat="43.59452594618948" lon="6.691025194329528"><ele>249.0</ele><time>2026-04-03T15:13:22Z</time></trkpt><trkpt lat="43.59466563548657" lon="6.691095061012856"><ele>249.0</ele><time>2026-04-03T15:13:23Z</time></trkpt><trkpt lat="43.59480597067261" lon="6.691157064522627"><ele>249.0</ele><time>2026-04-03T15:13:24Z</time></trkpt><trkpt lat="43.59494395934765" lon="6.691218265933089"><ele>249.0</ele><time>2026-04-03T15:13:25Z</time></trkpt><trkpt lat="43.595080836793834" lon="6.69128423303846"><ele>249.0</ele><time>2026-04-03T15:13:26Z</time></trkpt><trkpt lat="43.59521500537916" lon="6.69135013444015"><ele>249.0</ele><time>2026-04-03T15:13:27Z</time></trkpt><trkpt lat="43.595346105943904" lon="6.691406692458097"><ele>249.0</ele><time>2026-04-03T15:13:28Z</time></trkpt><trkpt lat="43.59547080067983" lon="6.691449447346769"><ele>248.0</ele><time>2026-04-03T15:13:29Z</time></trkpt><trkpt lat="43.595604842055" lon="6.691487841225973"><ele>247.0</ele><time>2026-04-03T15:13:30Z</time></trkpt><trkpt lat="43.595747320173075" lon="6.691504112931878"><ele>246.0</ele><time>2026-04-03T15:13:31Z</time></trkpt><trkpt lat="43.59590045831313" lon="6.691482851911539"><ele>245.0</ele><time>2026-04-03T15:13:32Z</time></trkpt><trkpt lat="43.59605684753004" lon="6.691407463656319"><ele>244.8</ele><time>2026-04-03T15:13:33Z</time></trkpt><trkpt lat="43.59618150140658" lon="6.691329421834451"><ele>244.6</ele><time>2026-04-03T15:13:34Z</time></trkpt><trkpt lat="43.596281538869334" lon="6.691257866700459"><ele>244.39999999999998</ele><time>2026-04-03T15:13:35Z</time></trkpt><trkpt lat="43.59635846271343" lon="6.6911905256616775"><ele>244.2</ele><time>2026-04-03T15:13:36Z</time></trkpt><trkpt lat="43.59642049970715" lon="6.691136987083668"><ele>244.0</ele><time>2026-04-03T15:13:37Z</time></trkpt><trkpt lat="43.59651251390969" lon="6.69106702585705"><ele>244.0</ele><time>2026-04-03T15:13:39Z</time></trkpt><trkpt lat="43.596587483306706" lon="6.691008977401673"><ele>243.99999999999997</ele><time>2026-04-03T15:13:41Z</time></trkpt><trkpt lat="43.59666658014077" lon="6.6909457509159544"><ele>243.99999999999997</ele><time>2026-04-03T15:13:44Z</time></trkpt><trkpt lat="43.59673909609012" lon="6.6908846659060925"><ele>244.0</ele><time>2026-04-03T15:13:46Z</time></trkpt><trkpt lat="43.596836562024656" lon="6.69081068595849"><ele>244.0</ele><time>2026-04-03T15:13:48Z</time></trkpt><trkpt lat="43.59694655352647" lon="6.690746534401616"><ele>244.1428571428571</ele><time>2026-04-03T15:13:50Z</time></trkpt><trkpt lat="43.59701349327252" lon="6.690743428583088"><ele>244.28571428571428</ele><time>2026-04-03T15:13:51Z</time></trkpt><trkpt lat="43.597092481880665" lon="6.690747880290497"><ele>244.42857142857142</ele><time>2026-04-03T15:13:52Z</time></trkpt><trkpt lat="43.59715519928295" lon="6.69072963520222"><ele>244.57142857142856</ele><time>2026-04-03T15:13:53Z</time></trkpt><trkpt lat="43.59720278302108" lon="6.69067013998781"><ele>244.71428571428572</ele><time>2026-04-03T15:13:54Z</time></trkpt><trkpt lat="43.59724387360242" lon="6.690576594060952"><ele>244.85714285714286</ele><time>2026-04-03T15:13:55Z</time></trkpt><trkpt lat="43.59726217449506" lon="6.690461148281507"><ele>245.0</ele><time>2026-04-03T15:13:56Z</time></trkpt><trkpt lat="43.59739582090899" lon="6.690338697192617"><ele>245.0</ele><time>2026-04-03T15:13:58Z</time></trkpt><trkpt lat="43.59747828540268" lon="6.690300732202361"><ele>245.0</ele><time>2026-04-03T15:13:59Z</time></trkpt><trkpt lat="43.59758301161468" lon="6.690253390030844"><ele>245.0</ele><time>2026-04-03T15:14:00Z</time></trkpt><trkpt lat="43.59768478713725" lon="6.690201660899192"><ele>245.0</ele><time>2026-04-03T15:14:01Z</time></trkpt><trkpt lat="43.59778208883539" lon="6.6901599593296694"><ele>245.0</ele><time>2026-04-03T15:14:02Z</time></trkpt><trkpt lat="43.59789752426083" lon="6.69010820120473"><ele>245.5</ele><time>2026-04-03T15:14:03Z</time></trkpt><trkpt lat="43.59801796517806" lon="6.690054941834418"><ele>246.0</ele><time>2026-04-03T15:14:04Z</time></trkpt><trkpt lat="43.59812863547344" lon="6.6900087155888865"><ele>246.5</ele><time>2026-04-03T15:14:05Z</time></trkpt><trkpt lat="43.59824065240754" lon="6.689964221186141"><ele>247.0</ele><time>2026-04-03T15:14:06Z</time></trkpt><trkpt lat="43.598359071367945" lon="6.689926090453494"><ele>247.0</ele><time>2026-04-03T15:14:07Z</time></trkpt><trkpt lat="43.59847141941184" lon="6.689898433391687"><ele>247.0</ele><time>2026-04-03T15:14:08Z</time></trkpt><trkpt lat="43.59859796874541" lon="6.689867766730916"><ele>247.0</ele><time>2026-04-03T15:14:09Z</time></trkpt><trkpt lat="43.59873252432024" lon="6.689827139570608"><ele>247.0</ele><time>2026-04-03T15:14:10Z</time></trkpt><trkpt lat="43.59885475183165" lon="6.689782643195251"><ele>247.75</ele><time>2026-04-03T15:14:11Z</time></trkpt><trkpt lat="43.59896960986879" lon="6.689733730096787"><ele>248.5</ele><time>2026-04-03T15:14:12Z</time></trkpt><trkpt lat="43.59908518965131" lon="6.689681851049595"><ele>249.25</ele><time>2026-04-03T15:14:13Z</time></trkpt><trkpt lat="43.599197054763806" lon="6.689632915210229"><ele>250.0</ele><time>2026-04-03T15:14:14Z</time></trkpt><trkpt lat="43.59930317598009" lon="6.689579085548904"><ele>250.0</ele><time>2026-04-03T15:14:15Z</time></trkpt><trkpt lat="43.59940561007045" lon="6.6895247816509"><ele>250.0</ele><time>2026-04-03T15:14:16Z</time></trkpt><trkpt lat="43.599516318742936" lon="6.689456897902475"><ele>250.0</ele><time>2026-04-03T15:14:16.999Z</time></trkpt><trkpt lat="43.59965885554588" lon="6.689351457132675"><ele>250.0</ele><time>2026-04-03T15:14:17.999Z</time></trkpt><trkpt lat="43.59984721037329" lon="6.6892348390096315"><ele>250.0</ele><time>2026-04-03T15:14:18.999Z</time></trkpt><trkpt lat="43.600003363046675" lon="6.689101750029599"><ele>250.0</ele><time>2026-04-03T15:14:19.999Z</time></trkpt><trkpt lat="43.60014737166848" lon="6.689015346959896"><ele>250.0</ele><time>2026-04-03T15:14:20.999Z</time></trkpt><trkpt lat="43.60027586643665" lon="6.688931099877844"><ele>249.75</ele><time>2026-04-03T15:14:21.999Z</time></trkpt><trkpt lat="43.6004006325597" lon="6.688852570773299"><ele>249.5</ele><time>2026-04-03T15:14:22.999Z</time></trkpt><trkpt lat="43.60052723924726" lon="6.688784099300352"><ele>249.25</ele><time>2026-04-03T15:14:23.999Z</time></trkpt><trkpt lat="43.60066654755203" lon="6.688724256009721"><ele>249.0</ele><time>2026-04-03T15:14:24.999Z</time></trkpt><trkpt lat="43.60079663990855" lon="6.688675202344833"><ele>249.0</ele><time>2026-04-03T15:14:26.001Z</time></trkpt><trkpt lat="43.600929794926685" lon="6.688631315550908"><ele>249.0</ele><time>2026-04-03T15:14:27.001Z</time></trkpt><trkpt lat="43.60107322704108" lon="6.688589817314263"><ele>249.0</ele><time>2026-04-03T15:14:28.001Z</time></trkpt><trkpt lat="43.601214567555814" lon="6.688552415000547"><ele>249.0</ele><time>2026-04-03T15:14:29.001Z</time></trkpt><trkpt lat="43.60134489764687" lon="6.68852077926321"><ele>246.75</ele><time>2026-04-03T15:14:30.001Z</time></trkpt><trkpt lat="43.60147156614325" lon="6.688493517891709"><ele>244.5</ele><time>2026-04-03T15:14:31Z</time></trkpt><trkpt lat="43.601596150148666" lon="6.688472318229929"><ele>242.25</ele><time>2026-04-03T15:14:32Z</time></trkpt><trkpt lat="43.601734984068415" lon="6.688446940318814"><ele>240.0</ele><time>2026-04-03T15:14:33Z</time></trkpt><trkpt lat="43.60188271785006" lon="6.688419328438603"><ele>238.33333333333331</ele><time>2026-04-03T15:14:34Z</time></trkpt><trkpt lat="43.60203415743237" lon="6.688394673326572"><ele>236.66666666666666</ele><time>2026-04-03T15:14:35Z</time></trkpt><trkpt lat="43.6021870400094" lon="6.688371461744933"><ele>235.0</ele><time>2026-04-03T15:14:36Z</time></trkpt><trkpt lat="43.602341988208316" lon="6.688346377068909"><ele>235.0</ele><time>2026-04-03T15:14:37Z</time></trkpt><trkpt lat="43.60249724364206" lon="6.688320297011811"><ele>235.0</ele><time>2026-04-03T15:14:38Z</time></trkpt><trkpt lat="43.60263976582135" lon="6.6882988527691865"><ele>235.0</ele><time>2026-04-03T15:14:39Z</time></trkpt><trkpt lat="43.602771925348485" lon="6.688279305261322"><ele>235.0</ele><time>2026-04-03T15:14:40Z</time></trkpt><trkpt lat="43.60289591849418" lon="6.688257418517077"><ele>234.25</ele><time>2026-04-03T15:14:41Z</time></trkpt><trkpt lat="43.6030097615559" lon="6.688241582767904"><ele>233.5</ele><time>2026-04-03T15:14:42Z</time></trkpt><trkpt lat="43.60312759832854" lon="6.688227506192245"><ele>232.75</ele><time>2026-04-03T15:14:43Z</time></trkpt><trkpt lat="43.603270284042914" lon="6.6882034615674"><ele>232.0</ele><time>2026-04-03T15:14:44Z</time></trkpt><trkpt lat="43.60342530997242" lon="6.688178383786245"><ele>232.0</ele><time>2026-04-03T15:14:45Z</time></trkpt><trkpt lat="43.60356996782863" lon="6.688149856906826"><ele>232.0</ele><time>2026-04-03T15:14:46Z</time></trkpt><trkpt lat="43.60369455130084" lon="6.688131859850782"><ele>232.0</ele><time>2026-04-03T15:14:47Z</time></trkpt><trkpt lat="43.603810566821046" lon="6.688112252426344"><ele>232.0</ele><time>2026-04-03T15:14:48Z</time></trkpt><trkpt lat="43.6039293531974" lon="6.688086800397169"><ele>231.0</ele><time>2026-04-03T15:14:49Z</time></trkpt><trkpt lat="43.60406631023469" lon="6.688045952795492"><ele>230.0</ele><time>2026-04-03T15:14:50Z</time></trkpt><trkpt lat="43.604214879478306" lon="6.6879834422198225"><ele>229.0</ele><time>2026-04-03T15:14:51Z</time></trkpt><trkpt lat="43.6043703400274" lon="6.687870526433785"><ele>229.5</ele><time>2026-04-03T15:14:52Z</time></trkpt><trkpt lat="43.60451358713868" lon="6.68775666342607"><ele>230.0</ele><time>2026-04-03T15:14:53Z</time></trkpt><trkpt lat="43.60463676368238" lon="6.687662865536393"><ele>230.5</ele><time>2026-04-03T15:14:54Z</time></trkpt><trkpt lat="43.60475094722308" lon="6.687581481090977"><ele>231.0</ele><time>2026-04-03T15:14:55Z</time></trkpt><trkpt lat="43.60485713318301" lon="6.6875089633991225"><ele>231.0</ele><time>2026-04-03T15:14:56Z</time></trkpt><trkpt lat="43.604955467408" lon="6.687450900310564"><ele>231.00000000000003</ele><time>2026-04-03T15:14:57Z</time></trkpt><trkpt lat="43.605048917443554" lon="6.68740272562201"><ele>231.00000000000003</ele><time>2026-04-03T15:14:58Z</time></trkpt><trkpt lat="43.6051353634737" lon="6.687358754534832"><ele>231.0</ele><time>2026-04-03T15:14:59Z</time></trkpt><trkpt lat="43.60523881192948" lon="6.6873078628531255"><ele>231.0</ele><time>2026-04-03T15:15:00Z</time></trkpt><trkpt lat="43.6053632405717" lon="6.687260774162135"><ele>230.33333333333331</ele><time>2026-04-03T15:15:01Z</time></trkpt><trkpt lat="43.60550461993074" lon="6.687225003262551"><ele>229.66666666666666</ele><time>2026-04-03T15:15:02Z</time></trkpt><trkpt lat="43.60565449196747" lon="6.687186650224088"><ele>229.0</ele><time>2026-04-03T15:15:03Z</time></trkpt><trkpt lat="43.605808290397945" lon="6.687134810607535"><ele>229.0</ele><time>2026-04-03T15:15:04Z</time></trkpt><trkpt lat="43.605962795177554" lon="6.687081787034443"><ele>229.0</ele><time>2026-04-03T15:15:05Z</time></trkpt><trkpt lat="43.6061160042023" lon="6.687031802441197"><ele>229.0</ele><time>2026-04-03T15:15:06Z</time></trkpt><trkpt lat="43.60627007415173" lon="6.686980480314253"><ele>229.75</ele><time>2026-04-03T15:15:07Z</time></trkpt><trkpt lat="43.60642431415934" lon="6.686926882917533"><ele>230.5</ele><time>2026-04-03T15:15:08Z</time></trkpt><trkpt lat="43.60656913669814" lon="6.686870734145894"><ele>231.25</ele><time>2026-04-03T15:15:09Z</time></trkpt><trkpt lat="43.60669702725312" lon="6.686830018912957"><ele>232.0</ele><time>2026-04-03T15:15:10Z</time></trkpt><trkpt lat="43.60681107994761" lon="6.686794100670796"><ele>232.0</ele><time>2026-04-03T15:15:11Z</time></trkpt><trkpt lat="43.60691924515647" lon="6.686758981038754"><ele>232.0</ele><time>2026-04-03T15:15:12Z</time></trkpt><trkpt lat="43.607037096374036" lon="6.686735576098217"><ele>232.0</ele><time>2026-04-03T15:15:13Z</time></trkpt><trkpt lat="43.607176928467375" lon="6.686712365312323"><ele>232.0</ele><time>2026-04-03T15:15:14Z</time></trkpt><trkpt lat="43.60732945271807" lon="6.68668322166284"><ele>231.33333333333331</ele><time>2026-04-03T15:15:15Z</time></trkpt><trkpt lat="43.60748594514906" lon="6.686647898638941"><ele>230.66666666666669</ele><time>2026-04-03T15:15:16Z</time></trkpt><trkpt lat="43.60764035030765" lon="6.686599811178049"><ele>230.0</ele><time>2026-04-03T15:15:17Z</time></trkpt><trkpt lat="43.607791517578576" lon="6.686534257441449"><ele>229.66666666666669</ele><time>2026-04-03T15:15:18Z</time></trkpt><trkpt lat="43.60794594688761" lon="6.686461354727847"><ele>229.33333333333331</ele><time>2026-04-03T15:15:19Z</time></trkpt><trkpt lat="43.608102752234984" lon="6.686389938263778"><ele>229.0</ele><time>2026-04-03T15:15:20Z</time></trkpt><trkpt lat="43.60825825331126" lon="6.686315191614703"><ele>229.0</ele><time>2026-04-03T15:15:21Z</time></trkpt><trkpt lat="43.60842684114887" lon="6.686254472566647"><ele>229.0</ele><time>2026-04-03T15:15:22Z</time></trkpt><trkpt lat="43.60863627301767" lon="6.6862285142055455"><ele>229.0</ele><time>2026-04-03T15:15:23Z</time></trkpt><trkpt lat="43.60885203101099" lon="6.68623740182525"><ele>229.66666666666666</ele><time>2026-04-03T15:15:24Z</time></trkpt><trkpt lat="43.60904478543871" lon="6.686258410223974"><ele>230.33333333333331</ele><time>2026-04-03T15:15:25Z</time></trkpt><trkpt lat="43.60922931036896" lon="6.686284074780747"><ele>231.0</ele><time>2026-04-03T15:15:26Z</time></trkpt><trkpt lat="43.60940812421181" lon="6.686312762705879"><ele>230.33333333333331</ele><time>2026-04-03T15:15:27Z</time></trkpt><trkpt lat="43.60958339598574" lon="6.686345551717022"><ele>229.66666666666666</ele><time>2026-04-03T15:15:28Z</time></trkpt><trkpt lat="43.60975657878203" lon="6.68638534888815"><ele>229.0</ele><time>2026-04-03T15:15:29Z</time></trkpt><trkpt lat="43.60993575649404" lon="6.686439348725273"><ele>229.0</ele><time>2026-04-03T15:15:30Z</time></trkpt><trkpt lat="43.61012023209309" lon="6.686494168622583"><ele>229.0</ele><time>2026-04-03T15:15:31Z</time></trkpt><trkpt lat="43.61029448155192" lon="6.686560048781363"><ele>229.0</ele><time>2026-04-03T15:15:32Z</time></trkpt><trkpt lat="43.61045706891498" lon="6.686623651541176"><ele>229.33333333333331</ele><time>2026-04-03T15:15:33Z</time></trkpt><trkpt lat="43.61061782036456" lon="6.68668107946634"><ele>229.66666666666669</ele><time>2026-04-03T15:15:34Z</time></trkpt><trkpt lat="43.61077893202141" lon="6.68673217317311"><ele>230.0</ele><time>2026-04-03T15:15:35Z</time></trkpt><trkpt lat="43.61092823168831" lon="6.686770853349181"><ele>230.0</ele><time>2026-04-03T15:15:36Z</time></trkpt><trkpt lat="43.61106148226113" lon="6.686799130738395"><ele>230.0</ele><time>2026-04-03T15:15:37Z</time></trkpt><trkpt lat="43.61118166748714" lon="6.686828925885302"><ele>230.0</ele><time>2026-04-03T15:15:38Z</time></trkpt><trkpt lat="43.61128832939969" lon="6.686856927599278"><ele>230.0</ele><time>2026-04-03T15:15:39Z</time></trkpt><trkpt lat="43.61138764826582" lon="6.686876805832732"><ele>230.0</ele><time>2026-04-03T15:15:40Z</time></trkpt><trkpt lat="43.61149730173009" lon="6.686900536000715"><ele>230.0</ele><time>2026-04-03T15:15:41Z</time></trkpt><trkpt lat="43.611615828245924" lon="6.686930134129868"><ele>230.0</ele><time>2026-04-03T15:15:42Z</time></trkpt><trkpt lat="43.61173893009005" lon="6.686961074023233"><ele>230.0</ele><time>2026-04-03T15:15:43Z</time></trkpt><trkpt lat="43.6119925159211" lon="6.6870180935862775"><ele>230.5</ele><time>2026-04-03T15:15:45Z</time></trkpt><trkpt lat="43.612126426260666" lon="6.687048323967985"><ele>231.0</ele><time>2026-04-03T15:15:46Z</time></trkpt><trkpt lat="43.612279344544554" lon="6.687081144100658"><ele>231.5</ele><time>2026-04-03T15:15:47Z</time></trkpt><trkpt lat="43.61243268200775" lon="6.68711688291898"><ele>232.0</ele><time>2026-04-03T15:15:48Z</time></trkpt><trkpt lat="43.612565379995125" lon="6.687144482076943"><ele>232.0</ele><time>2026-04-03T15:15:49Z</time></trkpt><trkpt lat="43.612689093069505" lon="6.687167767830555"><ele>232.0</ele><time>2026-04-03T15:15:50Z</time></trkpt><trkpt lat="43.61281750197403" lon="6.687195355465751"><ele>232.0</ele><time>2026-04-03T15:15:51Z</time></trkpt><trkpt lat="43.612967633642896" lon="6.687227002325647"><ele>232.0</ele><time>2026-04-03T15:15:52Z</time></trkpt><trkpt lat="43.61311451562315" lon="6.687251656130082"><ele>232.75</ele><time>2026-04-03T15:15:53Z</time></trkpt><trkpt lat="43.61325350712279" lon="6.687265231331074"><ele>233.5</ele><time>2026-04-03T15:15:54Z</time></trkpt><trkpt lat="43.61337418366572" lon="6.687271450744598"><ele>234.25</ele><time>2026-04-03T15:15:55Z</time></trkpt><trkpt lat="43.61348702886737" lon="6.68727598993291"><ele>235.0</ele><time>2026-04-03T15:15:56Z</time></trkpt><trkpt lat="43.61360026979412" lon="6.6872842134948325"><ele>235.25</ele><time>2026-04-03T15:15:57Z</time></trkpt><trkpt lat="43.61371386583714" lon="6.687300589990878"><ele>235.5</ele><time>2026-04-03T15:15:58Z</time></trkpt><trkpt lat="43.61382457090307" lon="6.687321006407289"><ele>235.75</ele><time>2026-04-03T15:15:59Z</time></trkpt><trkpt lat="43.61393498674281" lon="6.687352943053557"><ele>236.0</ele><time>2026-04-03T15:16:00Z</time></trkpt><trkpt lat="43.61405041750549" lon="6.687400356170251"><ele>236.0</ele><time>2026-04-03T15:16:01Z</time></trkpt><trkpt lat="43.61416806324393" lon="6.687450007806571"><ele>236.00000000000003</ele><time>2026-04-03T15:16:02Z</time></trkpt><trkpt lat="43.61426985517459" lon="6.6874983518943285"><ele>236.00000000000003</ele><time>2026-04-03T15:16:03Z</time></trkpt><trkpt lat="43.61436524706008" lon="6.6875442396185205"><ele>236.0</ele><time>2026-04-03T15:16:04Z</time></trkpt><trkpt lat="43.61444554216734" lon="6.68759027588876"><ele>236.0</ele><time>2026-04-03T15:16:05Z</time></trkpt><trkpt lat="43.614516205729" lon="6.687636701351543"><ele>236.33333333333334</ele><time>2026-04-03T15:16:06Z</time></trkpt><trkpt lat="43.61457434848493" lon="6.68768270294054"><ele>236.66666666666669</ele><time>2026-04-03T15:16:07Z</time></trkpt><trkpt lat="43.61467083680433" lon="6.687796918177136"><ele>237.0</ele><time>2026-04-03T15:16:09Z</time></trkpt><trkpt lat="43.61472323204188" lon="6.687877777395198"><ele>237.33333333333331</ele><time>2026-04-03T15:16:10Z</time></trkpt><trkpt lat="43.61479283972895" lon="6.687924920870231"><ele>237.66666666666666</ele><time>2026-04-03T15:16:11Z</time></trkpt><trkpt lat="43.614870020736944" lon="6.687919438657793"><ele>238.0</ele><time>2026-04-03T15:16:12Z</time></trkpt><trkpt lat="43.61494885740431" lon="6.687872953171525"><ele>238.0</ele><time>2026-04-03T15:16:12.999Z</time></trkpt><trkpt lat="43.615005523063736" lon="6.687791185620959"><ele>238.0</ele><time>2026-04-03T15:16:13.999Z</time></trkpt><trkpt lat="43.6150865087809" lon="6.687684530428768"><ele>238.0</ele><time>2026-04-03T15:16:14.999Z</time></trkpt><trkpt lat="43.61520185651315" lon="6.687603962578328"><ele>238.0</ele><time>2026-04-03T15:16:15.999Z</time></trkpt><trkpt lat="43.615317053572575" lon="6.687559117751332"><ele>238.0</ele><time>2026-04-03T15:16:16.999Z</time></trkpt><trkpt lat="43.61542087403508" lon="6.687516021018607"><ele>238.60000000000002</ele><time>2026-04-03T15:16:17.999Z</time></trkpt><trkpt lat="43.61552074410235" lon="6.687482422294245"><ele>239.20000000000002</ele><time>2026-04-03T15:16:18.999Z</time></trkpt><trkpt lat="43.61563282699146" lon="6.687455295534005"><ele>239.8</ele><time>2026-04-03T15:16:19.999Z</time></trkpt><trkpt lat="43.615745326971386" lon="6.687436625932466"><ele>240.4</ele><time>2026-04-03T15:16:20.999Z</time></trkpt><trkpt lat="43.61585514233709" lon="6.68743023178904"><ele>241.0</ele><time>2026-04-03T15:16:21.999Z</time></trkpt><trkpt lat="43.61596337720197" lon="6.687439957214961"><ele>241.0</ele><time>2026-04-03T15:16:22.999Z</time></trkpt><trkpt lat="43.61607229439522" lon="6.687460287128208"><ele>241.0</ele><time>2026-04-03T15:16:23.999Z</time></trkpt><trkpt lat="43.61618664409117" lon="6.687491967766"><ele>241.0</ele><time>2026-04-03T15:16:24.999Z</time></trkpt><trkpt lat="43.616307870536545" lon="6.687535756070314"><ele>241.0</ele><time>2026-04-03T15:16:25.999Z</time></trkpt><trkpt lat="43.61643870053225" lon="6.68759001753153"><ele>241.5</ele><time>2026-04-03T15:16:26.999Z</time></trkpt><trkpt lat="43.61656760293779" lon="6.687656420963736"><ele>242.0</ele><time>2026-04-03T15:16:27.999Z</time></trkpt><trkpt lat="43.61667987487024" lon="6.687728900786406"><ele>242.5</ele><time>2026-04-03T15:16:28.999Z</time></trkpt><trkpt lat="43.61678266964597" lon="6.687804655885368"><ele>243.0</ele><time>2026-04-03T15:16:29.999Z</time></trkpt><trkpt lat="43.61687459385402" lon="6.687891595938952"><ele>243.0</ele><time>2026-04-03T15:16:30.999Z</time></trkpt><trkpt lat="43.61695965432682" lon="6.687990654667895"><ele>243.0</ele><time>2026-04-03T15:16:32Z</time></trkpt><trkpt lat="43.617058557694875" lon="6.688089463100673"><ele>243.0</ele><time>2026-04-03T15:16:33Z</time></trkpt><trkpt lat="43.617185715289345" lon="6.688194839972161"><ele>243.0</ele><time>2026-04-03T15:16:34Z</time></trkpt><trkpt lat="43.617341040743995" lon="6.6883012029068025"><ele>243.5</ele><time>2026-04-03T15:16:35Z</time></trkpt><trkpt lat="43.61748564683326" lon="6.688368629388857"><ele>244.0</ele><time>2026-04-03T15:16:36Z</time></trkpt><trkpt lat="43.61760852840718" lon="6.688418481315225"><ele>244.5</ele><time>2026-04-03T15:16:37Z</time></trkpt><trkpt lat="43.61771999631122" lon="6.688469709722691"><ele>245.0</ele><time>2026-04-03T15:16:38Z</time></trkpt><trkpt lat="43.61783279745477" lon="6.688564044042117"><ele>245.75</ele><time>2026-04-03T15:16:39Z</time></trkpt><trkpt lat="43.61792926086376" lon="6.68871102142979"><ele>246.5</ele><time>2026-04-03T15:16:40Z</time></trkpt><trkpt lat="43.617999517932034" lon="6.68887629870231"><ele>247.25</ele><time>2026-04-03T15:16:41Z</time></trkpt><trkpt lat="43.617994262338684" lon="6.689052462364444"><ele>248.0</ele><time>2026-04-03T15:16:42Z</time></trkpt><trkpt lat="43.6180144332612" lon="6.689195576799718"><ele>248.00000000000003</ele><time>2026-04-03T15:16:43Z</time></trkpt><trkpt lat="43.61800183809013" lon="6.689300731532079"><ele>248.0</ele><time>2026-04-03T15:16:44Z</time></trkpt><trkpt lat="43.61800927950743" lon="6.689399167502136"><ele>248.0</ele><time>2026-04-03T15:16:45Z</time></trkpt><trkpt lat="43.61803789513094" lon="6.689492277049254"><ele>248.0</ele><time>2026-04-03T15:16:46Z</time></trkpt><trkpt lat="43.6180980106486" lon="6.689587723622583"><ele>248.00000000000003</ele><time>2026-04-03T15:16:47Z</time></trkpt><trkpt lat="43.618199459917726" lon="6.6896522370584455"><ele>248.0</ele><time>2026-04-03T15:16:48Z</time></trkpt><trkpt lat="43.6183230782553" lon="6.689662658394994"><ele>248.0</ele><time>2026-04-03T15:16:49Z</time></trkpt><trkpt lat="43.61844293838043" lon="6.689666284437863"><ele>248.0</ele><time>2026-04-03T15:16:50Z</time></trkpt><trkpt lat="43.618554038728135" lon="6.689678322083433"><ele>248.0</ele><time>2026-04-03T15:16:51Z</time></trkpt><trkpt lat="43.61866354751454" lon="6.68969287480611"><ele>248.0</ele><time>2026-04-03T15:16:52Z</time></trkpt><trkpt lat="43.618776598293145" lon="6.689708169361902"><ele>248.75</ele><time>2026-04-03T15:16:53Z</time></trkpt><trkpt lat="43.61888527778004" lon="6.689720058221543"><ele>249.5</ele><time>2026-04-03T15:16:54Z</time></trkpt><trkpt lat="43.61899031151617" lon="6.689734894550145"><ele>250.25</ele><time>2026-04-03T15:16:55Z</time></trkpt><trkpt lat="43.61912305309783" lon="6.6897682796455715"><ele>251.0</ele><time>2026-04-03T15:16:56Z</time></trkpt><trkpt lat="43.61924640242794" lon="6.689807892829844"><ele>251.0</ele><time>2026-04-03T15:16:57Z</time></trkpt><trkpt lat="43.6193462446487" lon="6.689845112414947"><ele>251.0</ele><time>2026-04-03T15:16:58Z</time></trkpt><trkpt lat="43.61945687826361" lon="6.689887875972917"><ele>251.0</ele><time>2026-04-03T15:16:59Z</time></trkpt><trkpt lat="43.61957302628396" lon="6.68993053335257"><ele>251.0</ele><time>2026-04-03T15:17:00Z</time></trkpt><trkpt lat="43.61969093161962" lon="6.68998466705089"><ele>252.25</ele><time>2026-04-03T15:17:01Z</time></trkpt><trkpt lat="43.619802644028724" lon="6.6900532190773125"><ele>253.5</ele><time>2026-04-03T15:17:02Z</time></trkpt><trkpt lat="43.61992206531712" lon="6.690118196627484"><ele>254.75</ele><time>2026-04-03T15:17:03Z</time></trkpt><trkpt lat="43.62008793307376" lon="6.6901673951122875"><ele>256.0</ele><time>2026-04-03T15:17:04Z</time></trkpt><trkpt lat="43.62025247833565" lon="6.690211102428149"><ele>256.6</ele><time>2026-04-03T15:17:05Z</time></trkpt><trkpt lat="43.62038608740399" lon="6.690245823033602"><ele>257.20000000000005</ele><time>2026-04-03T15:17:06Z</time></trkpt><trkpt lat="43.62049853408859" lon="6.69027379684448"><ele>257.79999999999995</ele><time>2026-04-03T15:17:07Z</time></trkpt><trkpt lat="43.62059819800188" lon="6.690291731462071"><ele>258.4</ele><time>2026-04-03T15:17:08Z</time></trkpt><trkpt lat="43.62069215448812" lon="6.690312513313435"><ele>259.0</ele><time>2026-04-03T15:17:09Z</time></trkpt><trkpt lat="43.620798452308705" lon="6.690334850606001"><ele>259.4</ele><time>2026-04-03T15:17:10Z</time></trkpt><trkpt lat="43.62091062880248" lon="6.690357114962661"><ele>259.79999999999995</ele><time>2026-04-03T15:17:11Z</time></trkpt><trkpt lat="43.621019164001325" lon="6.690381668642095"><ele>260.20000000000005</ele><time>2026-04-03T15:17:12Z</time></trkpt><trkpt lat="43.621116838907525" lon="6.690411452569633"><ele>260.6</ele><time>2026-04-03T15:17:13Z</time></trkpt><trkpt lat="43.62121090841632" lon="6.6904397931601265"><ele>261.0</ele><time>2026-04-03T15:17:14Z</time></trkpt><trkpt lat="43.62129040331818" lon="6.690477932146305"><ele>261.5</ele><time>2026-04-03T15:17:15Z</time></trkpt><trkpt lat="43.62135815745545" lon="6.690513057034711"><ele>262.0</ele><time>2026-04-03T15:17:16Z</time></trkpt><trkpt lat="43.62141726553973" lon="6.6905496144753025"><ele>262.5</ele><time>2026-04-03T15:17:17Z</time></trkpt><trkpt lat="43.62150149983807" lon="6.690611486943238"><ele>263.0</ele><time>2026-04-03T15:17:19Z</time></trkpt><trkpt lat="43.62156352765748" lon="6.690657046656136"><ele>263.5</ele><time>2026-04-03T15:17:21Z</time></trkpt><trkpt lat="43.6216211421785" lon="6.690702676721538"><ele>264.0</ele><time>2026-04-03T15:17:23Z</time></trkpt><trkpt lat="43.62169113172332" lon="6.690761570096837"><ele>264.0</ele><time>2026-04-03T15:17:26Z</time></trkpt><trkpt lat="43.62176699795364" lon="6.690829760472402"><ele>264.0</ele><time>2026-04-03T15:17:28Z</time></trkpt><trkpt lat="43.6218496322119" lon="6.690928699466218"><ele>264.0</ele><time>2026-04-03T15:17:30Z</time></trkpt><trkpt lat="43.621957460347446" lon="6.691007907444883"><ele>264.0</ele><time>2026-04-03T15:17:32Z</time></trkpt><trkpt lat="43.62203447668672" lon="6.691070932233962"><ele>264.0</ele><time>2026-04-03T15:17:34Z</time></trkpt><trkpt lat="43.6220512201953" lon="6.6911555516680155"><ele>264.8333333333333</ele><time>2026-04-03T15:17:35Z</time></trkpt><trkpt lat="43.62204842273762" lon="6.691242948593611"><ele>265.6666666666667</ele><time>2026-04-03T15:17:36Z</time></trkpt><trkpt lat="43.62198351230135" lon="6.691347050521191"><ele>266.5</ele><time>2026-04-03T15:17:37Z</time></trkpt><trkpt lat="43.62194462262904" lon="6.69145511439314"><ele>267.33333333333337</ele><time>2026-04-03T15:17:38Z</time></trkpt><trkpt lat="43.62190749941402" lon="6.691566011273166"><ele>268.1666666666667</ele><time>2026-04-03T15:17:39Z</time></trkpt><trkpt lat="43.62187305227669" lon="6.691682306562246"><ele>269.0</ele><time>2026-04-03T15:17:40Z</time></trkpt><trkpt lat="43.62184166426495" lon="6.6917842022456835"><ele>269.0</ele><time>2026-04-03T15:17:41Z</time></trkpt><trkpt lat="43.62180909359709" lon="6.691881902072877"><ele>269.0</ele><time>2026-04-03T15:17:42Z</time></trkpt><trkpt lat="43.62177695774243" lon="6.691984183589101"><ele>269.0</ele><time>2026-04-03T15:17:43Z</time></trkpt><trkpt lat="43.62174710113609" lon="6.6920858797481"><ele>269.0</ele><time>2026-04-03T15:17:44Z</time></trkpt><trkpt lat="43.62171628102959" lon="6.692185516292779"><ele>269.0</ele><time>2026-04-03T15:17:45Z</time></trkpt><trkpt lat="43.62168521697613" lon="6.6922822969799425"><ele>269.0</ele><time>2026-04-03T15:17:46Z</time></trkpt><trkpt lat="43.62165377532007" lon="6.692382244306386"><ele>270.5</ele><time>2026-04-03T15:17:47Z</time></trkpt><trkpt lat="43.6216222065437" lon="6.6924811867729685"><ele>272.0</ele><time>2026-04-03T15:17:48Z</time></trkpt><trkpt lat="43.6215895160854" lon="6.6925817687452405"><ele>273.5</ele><time>2026-04-03T15:17:49Z</time></trkpt><trkpt lat="43.62156081112818" lon="6.692677517448205"><ele>275.0</ele><time>2026-04-03T15:17:50Z</time></trkpt><trkpt lat="43.621531478023435" lon="6.692783871538764"><ele>276.5</ele><time>2026-04-03T15:17:51Z</time></trkpt><trkpt lat="43.62152715356392" lon="6.6929012016069445"><ele>278.0</ele><time>2026-04-03T15:17:52Z</time></trkpt><trkpt lat="43.62155426871121" lon="6.693018889847307"><ele>280.6666666666667</ele><time>2026-04-03T15:17:53Z</time></trkpt><trkpt lat="43.62162280204283" lon="6.693081351946679"><ele>283.3333333333333</ele><time>2026-04-03T15:17:54Z</time></trkpt><trkpt lat="43.62187212224781" lon="6.693183099962375"><ele>286.0</ele><time>2026-04-03T15:17:56Z</time></trkpt><trkpt lat="43.62193211494521" lon="6.69286653715327"><ele>286.6</ele><time>2026-04-03T15:17:57Z</time></trkpt><trkpt lat="43.62201535396806" lon="6.692743411664185"><ele>287.20000000000005</ele><time>2026-04-03T15:17:58Z</time></trkpt><trkpt lat="43.62208650888102" lon="6.692624510304163"><ele>287.79999999999995</ele><time>2026-04-03T15:17:59Z</time></trkpt><trkpt lat="43.62215761459095" lon="6.6925187143769715"><ele>288.4</ele><time>2026-04-03T15:18:00Z</time></trkpt><trkpt lat="43.62222430314803" lon="6.692417898653975"><ele>289.0</ele><time>2026-04-03T15:18:01Z</time></trkpt><trkpt lat="43.62230687879215" lon="6.692320956891174"><ele>289.0</ele><time>2026-04-03T15:18:02Z</time></trkpt><trkpt lat="43.622393762232164" lon="6.69222349760135"><ele>289.0</ele><time>2026-04-03T15:18:03Z</time></trkpt><trkpt lat="43.62247235484474" lon="6.692151517374183"><ele>289.0</ele><time>2026-04-03T15:18:04Z</time></trkpt><trkpt lat="43.622530827521096" lon="6.692111397702942"><ele>289.0</ele><time>2026-04-03T15:18:05Z</time></trkpt><trkpt lat="43.62264977774634" lon="6.692090768794532"><ele>289.0</ele><time>2026-04-03T15:18:07Z</time></trkpt><trkpt lat="43.62275065112365" lon="6.692162492316134"><ele>291.0</ele><time>2026-04-03T15:18:09Z</time></trkpt><trkpt lat="43.62282538326676" lon="6.69219240632802"><ele>293.0</ele><time>2026-04-03T15:18:10Z</time></trkpt><trkpt lat="43.622891537568044" lon="6.69223396143251"><ele>295.0</ele><time>2026-04-03T15:18:11Z</time></trkpt><trkpt lat="43.62295134723374" lon="6.692313456552035"><ele>297.0</ele><time>2026-04-03T15:18:12Z</time></trkpt><trkpt lat="43.62300626330367" lon="6.692376834372176"><ele>299.0</ele><time>2026-04-03T15:18:13Z</time></trkpt><trkpt lat="43.62306990827672" lon="6.692409362206923"><ele>301.0</ele><time>2026-04-03T15:18:14Z</time></trkpt><trkpt lat="43.623148702895556" lon="6.692413590216612"><ele>301.0</ele><time>2026-04-03T15:18:15Z</time></trkpt><trkpt lat="43.62323687719123" lon="6.692395562620029"><ele>301.0</ele><time>2026-04-03T15:18:16Z</time></trkpt><trkpt lat="43.62332297962221" lon="6.692377106119801"><ele>301.0</ele><time>2026-04-03T15:18:16.999Z</time></trkpt><trkpt lat="43.62343788593701" lon="6.6923354121068215"><ele>301.0</ele><time>2026-04-03T15:18:17.999Z</time></trkpt><trkpt lat="43.62354925123493" lon="6.692275651762626"><ele>301.0</ele><time>2026-04-03T15:18:18.999Z</time></trkpt><trkpt lat="43.62364255167597" lon="6.692236485810957"><ele>302.3333333333333</ele><time>2026-04-03T15:18:19.999Z</time></trkpt><trkpt lat="43.623744146262865" lon="6.692276443694095"><ele>303.66666666666663</ele><time>2026-04-03T15:18:21.999Z</time></trkpt><trkpt lat="43.623792951491964" lon="6.692346213969842"><ele>305.0</ele><time>2026-04-03T15:18:22.999Z</time></trkpt><trkpt lat="43.62384967776208" lon="6.69242150415301"><ele>306.3333333333333</ele><time>2026-04-03T15:18:23.999Z</time></trkpt><trkpt lat="43.62391563075159" lon="6.692499676127145"><ele>307.6666666666667</ele><time>2026-04-03T15:18:24.999Z</time></trkpt><trkpt lat="43.62399627440946" lon="6.692593313221879"><ele>309.0</ele><time>2026-04-03T15:18:25.999Z</time></trkpt><trkpt lat="43.62408352593236" lon="6.692690067429812"><ele>312.1666666666667</ele><time>2026-04-03T15:18:26.999Z</time></trkpt><trkpt lat="43.62417528467553" lon="6.692780757384805"><ele>315.3333333333333</ele><time>2026-04-03T15:18:27.999Z</time></trkpt><trkpt lat="43.62426516743803" lon="6.692867897487035"><ele>318.5</ele><time>2026-04-03T15:18:28.999Z</time></trkpt><trkpt lat="43.62433351817839" lon="6.692933814019745"><ele>321.66666666666663</ele><time>2026-04-03T15:18:29.999Z</time></trkpt><trkpt lat="43.62438801421082" lon="6.692985014951452"><ele>324.8333333333333</ele><time>2026-04-03T15:18:30.999Z</time></trkpt><trkpt lat="43.62445135647766" lon="6.693044268245351"><ele>328.0</ele><time>2026-04-03T15:18:31.999Z</time></trkpt><trkpt lat="43.6245205116011" lon="6.69309323657237"><ele>328.0</ele><time>2026-04-03T15:18:32.999Z</time></trkpt><trkpt lat="43.624578303579305" lon="6.693143210357152"><ele>328.0</ele><time>2026-04-03T15:18:33.999Z</time></trkpt><trkpt lat="43.62465028661051" lon="6.69321894525276"><ele>328.0</ele><time>2026-04-03T15:18:35.999Z</time></trkpt><trkpt lat="43.62457703131576" lon="6.693311783261571"><ele>328.0</ele><time>2026-04-03T15:18:39Z</time></trkpt><trkpt lat="43.62447867451939" lon="6.693254091778323"><ele>328.0</ele><time>2026-04-03T15:18:41Z</time></trkpt><trkpt lat="43.6244430591951" lon="6.693332206235924"><ele>328.0</ele><time>2026-04-03T15:18:48Z</time></trkpt><trkpt lat="43.624498252898" lon="6.693417889323161"><ele>328.0</ele><time>2026-04-03T15:18:50Z</time></trkpt><trkpt lat="43.62459072853504" lon="6.693411021391667"><ele>328.0</ele><time>2026-04-03T15:18:51Z</time></trkpt><trkpt lat="43.6246721306466" lon="6.693426926943018"><ele>328.0</ele><time>2026-04-03T15:18:52Z</time></trkpt><trkpt lat="43.62476597214601" lon="6.6934544314930084"><ele>328.0</ele><time>2026-04-03T15:18:53Z</time></trkpt><trkpt lat="43.6248454761727" lon="6.693486698059326"><ele>328.0</ele><time>2026-04-03T15:18:54Z</time></trkpt><trkpt lat="43.62491458424802" lon="6.693494286608526"><ele>328.0</ele><time>2026-04-03T15:18:55Z</time></trkpt><trkpt lat="43.62499281095605" lon="6.69347180126502"><ele>328.0</ele><time>2026-04-03T15:18:56Z</time></trkpt><trkpt lat="43.62505495737927" lon="6.693405783450045"><ele>328.0</ele><time>2026-04-03T15:18:57Z</time></trkpt><trkpt lat="43.625114451587244" lon="6.69331870408994"><ele>328.0</ele><time>2026-04-03T15:18:58Z</time></trkpt><trkpt lat="43.625180165992354" lon="6.693216142808603"><ele>328.0</ele><time>2026-04-03T15:18:59Z</time></trkpt><trkpt lat="43.625260143682304" lon="6.693105728439379"><ele>328.0</ele><time>2026-04-03T15:19:00Z</time></trkpt><trkpt lat="43.62537467409227" lon="6.693005272284891"><ele>328.3333333333333</ele><time>2026-04-03T15:19:01Z</time></trkpt><trkpt lat="43.62549022885397" lon="6.69286809566442"><ele>328.6666666666667</ele><time>2026-04-03T15:19:02Z</time></trkpt><trkpt lat="43.625630458693" lon="6.6927540139401085"><ele>329.0</ele><time>2026-04-03T15:19:03Z</time></trkpt><trkpt lat="43.62577967572964" lon="6.692670739729904"><ele>329.0</ele><time>2026-04-03T15:19:04Z</time></trkpt><trkpt lat="43.62588992334773" lon="6.692565917481906"><ele>329.0</ele><time>2026-04-03T15:19:05Z</time></trkpt><trkpt lat="43.62599217087846" lon="6.692500641574019"><ele>329.0</ele><time>2026-04-03T15:19:06Z</time></trkpt><trkpt lat="43.6260725831286" lon="6.692443734532481"><ele>329.0</ele><time>2026-04-03T15:19:07Z</time></trkpt><trkpt lat="43.626145969651546" lon="6.692394243485618"><ele>329.0</ele><time>2026-04-03T15:19:08Z</time></trkpt><trkpt lat="43.62626230787686" lon="6.692314177275007"><ele>331.79999999999995</ele><time>2026-04-03T15:19:10Z</time></trkpt><trkpt lat="43.62633537151471" lon="6.69227145798029"><ele>334.59999999999997</ele><time>2026-04-03T15:19:12Z</time></trkpt><trkpt lat="43.62642432389533" lon="6.692268865356937"><ele>337.4</ele><time>2026-04-03T15:19:14Z</time></trkpt><trkpt lat="43.626480337705594" lon="6.69230921941491"><ele>340.2</ele><time>2026-04-03T15:19:15Z</time></trkpt><trkpt lat="43.62651745439804" lon="6.692486513472259"><ele>343.0</ele><time>2026-04-03T15:19:17Z</time></trkpt><trkpt lat="43.62643904284342" lon="6.692591400524598"><ele>343.0</ele><time>2026-04-03T15:19:18Z</time></trkpt><trkpt lat="43.626359586702605" lon="6.692647705613205"><ele>343.0</ele><time>2026-04-03T15:19:19Z</time></trkpt><trkpt lat="43.62627774058575" lon="6.692707862763404"><ele>343.0</ele><time>2026-04-03T15:19:20Z</time></trkpt><trkpt lat="43.62620973929475" lon="6.69279289774285"><ele>343.0</ele><time>2026-04-03T15:19:21Z</time></trkpt><trkpt lat="43.626139407438316" lon="6.692881654252631"><ele>343.0</ele><time>2026-04-03T15:19:22Z</time></trkpt><trkpt lat="43.62608016214941" lon="6.692973249792618"><ele>343.3333333333333</ele><time>2026-04-03T15:19:23Z</time></trkpt><trkpt lat="43.62600954268915" lon="6.6930496582234795"><ele>343.66666666666663</ele><time>2026-04-03T15:19:24Z</time></trkpt><trkpt lat="43.62594764597858" lon="6.693099712732506"><ele>344.0</ele><time>2026-04-03T15:19:25Z</time></trkpt><trkpt lat="43.62588482604991" lon="6.693161769358053"><ele>344.3333333333333</ele><time>2026-04-03T15:19:26Z</time></trkpt><trkpt lat="43.62581771571632" lon="6.693236074206065"><ele>344.6666666666667</ele><time>2026-04-03T15:19:27Z</time></trkpt><trkpt lat="43.62574446908833" lon="6.6933419837076755"><ele>345.0</ele><time>2026-04-03T15:19:28Z</time></trkpt><trkpt lat="43.625681422619735" lon="6.693470823480117"><ele>348.4</ele><time>2026-04-03T15:19:29Z</time></trkpt><trkpt lat="43.625630837898385" lon="6.693604922105068"><ele>351.8</ele><time>2026-04-03T15:19:30Z</time></trkpt><trkpt lat="43.62559275472043" lon="6.693725723832811"><ele>355.20000000000005</ele><time>2026-04-03T15:19:31Z</time></trkpt><trkpt lat="43.62555656788479" lon="6.693839375376332"><ele>358.6</ele><time>2026-04-03T15:19:32Z</time></trkpt><trkpt lat="43.62552157187422" lon="6.693957596175545"><ele>362.0</ele><time>2026-04-03T15:19:33Z</time></trkpt><trkpt lat="43.625485375426784" lon="6.694081017217549"><ele>362.0</ele><time>2026-04-03T15:19:34Z</time></trkpt><trkpt lat="43.62544582984514" lon="6.694184535174723"><ele>362.0</ele><time>2026-04-03T15:19:35Z</time></trkpt><trkpt lat="43.62537139803444" lon="6.694261398661755"><ele>362.0</ele><time>2026-04-03T15:19:36Z</time></trkpt><trkpt lat="43.625298628642284" lon="6.694332093052521"><ele>362.0</ele><time>2026-04-03T15:19:37Z</time></trkpt><trkpt lat="43.62523981717968" lon="6.694406356325331"><ele>362.0</ele><time>2026-04-03T15:19:38Z</time></trkpt><trkpt lat="43.62516744716096" lon="6.6944377873277015"><ele>362.0</ele><time>2026-04-03T15:19:39Z</time></trkpt><trkpt lat="43.625085649995675" lon="6.694383114988081"><ele>358.8</ele><time>2026-04-03T15:19:40Z</time></trkpt><trkpt lat="43.625013218703636" lon="6.694388635956763"><ele>355.6</ele><time>2026-04-03T15:19:41Z</time></trkpt><trkpt lat="43.62491413362319" lon="6.694358882216409"><ele>352.40000000000003</ele><time>2026-04-03T15:19:43Z</time></trkpt><trkpt lat="43.62482579084295" lon="6.694330180414288"><ele>349.20000000000005</ele><time>2026-04-03T15:19:45Z</time></trkpt><trkpt lat="43.62470817117221" lon="6.694329979588961"><ele>346.0</ele><time>2026-04-03T15:19:47Z</time></trkpt><trkpt lat="43.624640244843604" lon="6.694329979591001"><ele>346.0</ele><time>2026-04-03T15:19:48Z</time></trkpt><trkpt lat="43.6245730935616" lon="6.6943289674841"><ele>346.0</ele><time>2026-04-03T15:19:49Z</time></trkpt><trkpt lat="43.6244718623342" lon="6.69432676590633"><ele>346.0</ele><time>2026-04-03T15:19:51Z</time></trkpt><trkpt lat="43.624370815973855" lon="6.694324568349448"><ele>346.0</ele><time>2026-04-03T15:19:53Z</time></trkpt><trkpt lat="43.62423465694211" lon="6.694321332411263"><ele>346.0</ele><time>2026-04-03T15:19:55Z</time></trkpt><trkpt lat="43.624170524697334" lon="6.694352300859487"><ele>348.0</ele><time>2026-04-03T15:19:56Z</time></trkpt><trkpt lat="43.62409195970744" lon="6.694495221279099"><ele>364.0</ele><time>2026-04-03T15:19:59Z</time></trkpt><trkpt lat="43.62403238782146" lon="6.6945695482540355"><ele>364.0</ele><time>2026-04-03T15:20:02Z</time></trkpt><trkpt lat="43.62398227641834" lon="6.694652951367552"><ele>364.0</ele><time>2026-04-03T15:20:04Z</time></trkpt><trkpt lat="43.62393000557881" lon="6.694706830793281"><ele>364.0</ele><time>2026-04-03T15:20:08Z</time></trkpt><trkpt lat="43.62389661330555" lon="6.694798125947934"><ele>364.0</ele><time>2026-04-03T15:20:11Z</time></trkpt></trkseg></trk></gpx>